[[{"header":{"parameterUnit":"m.s-1","parameterCategory":1,"la1":30.6,"la2":28.766,"lo1":-90.7593,"lo2":-88.6598,"dy":0.0162,"dx":0.0183,"nx":116,"ny":114,"refTime":"2023-11-02T18:00:00:Z","depth":0,"parameterNumber":2,"parameterNumberName":"U-component_of_WINDS"},"data":[0.0,0.0,0.0,0.0,0.0,0.0,0.0,0.0,0.0,0.0,0.0,0.0,0.0,0.0,0.0,0.0,0.0,0.0,0.0,0.0,0.0,0.0,0.0,0.0,0.0,0.0,0.0,0.0,0.0,0.0,0.0,0.0,0.0,0.0,0.0,0.0,0.0,0.0,0.0,0.0,0.0,0.0,0.0,0.0,0.0,0.0,0.0,0.0,0.0,0.0,0.0,0.0,0.0,0.0,0.0,0.0,0.0,0.0,0.0,0.0,0.0,0.0,0.0,0.0,0.0,0.0,0.0,0.0,0.0,0.0,0.0,0.0,0.0,0.0,0.0,0.0,0.0,0.0,0.0,0.0,0.0,0.0,0.0,0.0,0.0,0.0,0.0,0.0,0.0,0.0,0.0,0.0,0.0,0.0,0.0,0.0,0.0,0.0,0.0,0.0,0.0,0.0,0.0,0.0,0.0,0.0,0.0,0.0,0.0,0.0,0.0,0.0,0.0,0.0,0.0,0.0,0.0,0.0,0.0,0.0,0.0,0.0,0.0,0.0,0.0,0.0,0.0,0.0,0.0,0.0,0.0,0.0,0.0,0.0,0.0,0.0,0.0,0.0,0.0,0.0,0.0,0.0,0.0,0.0,0.0,0.0,0.0,0.0,0.0,0.0,0.0,0.0,0.0,0.0,0.0,0.0,0.0,0.0,0.0,0.0,0.0,0.0,0.0,0.0,0.0,0.0,0.0,0.0,0.0,0.0,0.0,0.0,0.0,0.0,0.0,0.0,0.0,0.0,0.0,0.0,0.0,0.0,0.0,0.0,0.0,0.0,0.0,0.0,0.0,0.0,0.0,0.0,0.0,0.0,0.0,0.0,0.0,0.0,0.0,0.0,0.0,0.0,0.0,0.0,0.0,0.0,0.0,0.0,0.0,0.0,0.0,0.0,0.0,0.0,0.0,0.0,0.0,0.0,0.0,0.0,0.0,0.0,0.0,0.0,0.0,0.0,0.0,0.0,0.0,0.0,0.0,0.0,0.0,0.0,0.0,0.0,0.0,0.0,0.0,0.0,0.0,0.0,0.0,0.0,0.0,0.0,0.0,0.0,0.0,0.0,0.0,0.0,0.0,0.0,0.0,0.0,0.0,0.0,0.0,0.0,0.0,0.0,0.0,0.0,0.0,0.0,0.0,0.0,0.0,0.0,0.0,0.0,0.0,0.0,0.0,0.0,0.0,0.0,0.0,0.0,0.0,0.0,0.0,0.0,0.0,0.0,0.0,0.0,0.0,0.0,0.0,0.0,0.0,0.0,0.0,0.0,0.0,0.0,0.0,0.0,0.0,0.0,0.0,0.0,0.0,0.0,0.0,0.0,0.0,0.0,0.0,0.0,0.0,0.0,0.0,0.0,0.0,0.0,0.0,0.0,0.0,0.0,0.0,0.0,0.0,0.0,0.0,0.0,0.0,0.0,0.0,0.0,0.0,0.0,0.0,0.0,0.0,0.0,0.0,0.0,0.0,0.0,0.0,0.0,0.0,0.0,0.0,0.0,0.0,0.0,0.0,0.0,0.0,0.0,0.0,0.0,0.0,0.0,0.0,0.0,0.0,0.0,0.0,0.0,0.0,0.0,0.0,0.0,0.0,0.0,0.0,0.0,0.0,0.0,0.0,0.0,0.0,0.0,0.0,0.0,0.0,0.0,0.0,0.0,0.0,0.0,0.0,0.0,0.0,0.0,0.0,0.0,0.0,0.0,0.0,0.0,0.0,0.0,0.0,0.0,0.0,0.0,0.0,0.0,0.0,0.0,0.0,0.0,0.0,0.0,0.0,0.0,0.0,0.0,0.0,0.0,0.0,0.0,0.0,0.0,0.0,0.0,0.0,0.0,0.0,0.0,0.0,0.0,0.0,0.0,0.0,0.0,0.0,0.0,0.0,0.0,0.0,0.0,0.0,0.0,0.0,0.0,0.0,0.0,0.0,0.0,0.0,0.0,0.0,0.0,0.0,0.0,0.0,0.0,0.0,0.0,0.0,0.0,0.0,0.0,0.0,0.0,0.0,0.0,0.0,0.0,0.0,0.0,0.0,0.0,0.0,0.0,0.0,0.0,0.0,0.0,0.0,0.0,0.0,0.0,0.0,0.0,0.0,0.0,0.0,0.0,0.0,0.0,0.0,0.0,0.0,0.0,0.0,0.0,0.0,0.0,0.0,0.0,0.0,0.0,0.0,0.0,0.0,0.0,0.0,0.0,0.0,0.0,0.0,0.0,0.0,0.0,0.0,0.0,0.0,0.0,0.0,0.0,0.0,0.0,0.0,0.0,0.0,0.0,0.0,0.0,0.0,0.0,0.0,0.0,0.0,0.0,0.0,0.0,0.0,0.0,0.0,0.0,0.0,0.0,0.0,0.0,0.0,0.0,0.0,0.0,0.0,0.0,0.0,0.0,0.0,0.0,0.0,0.0,0.0,0.0,0.0,0.0,0.0,0.0,0.0,0.0,0.0,0.0,0.0,0.0,0.0,0.0,0.0,0.0,0.0,0.0,0.0,0.0,0.0,0.0,0.0,0.0,0.0,0.0,0.0,0.0,0.0,0.0,0.0,0.0,0.0,0.0,0.0,0.0,0.0,0.0,0.0,0.0,0.0,0.0,0.0,0.0,0.0,0.0,0.0,0.0,0.0,0.0,0.0,0.0,0.0,0.0,0.0,0.0,0.0,0.0,0.0,0.0,0.0,0.0,0.0,0.0,0.0,0.0,0.0,0.0,0.0,0.0,0.0,0.0,0.0,0.0,0.0,0.0,0.0,0.0,0.0,0.0,0.0,0.0,0.0,0.0,0.0,0.0,0.0,0.0,0.0,0.0,0.0,0.0,0.0,0.0,0.0,0.0,0.0,0.0,0.0,0.0,0.0,0.0,0.0,0.0,0.0,0.0,0.0,0.0,0.0,0.0,0.0,0.0,0.0,0.0,0.0,0.0,0.0,0.0,0.0,0.0,0.0,0.0,0.0,0.0,0.0,0.0,0.0,0.0,0.0,0.0,0.0,0.0,0.0,0.0,0.0,0.0,0.0,0.0,0.0,0.0,0.0,0.0,0.0,0.0,0.0,0.0,0.0,0.0,0.0,0.0,0.0,0.0,0.0,0.0,0.0,0.0,0.0,0.0,0.0,0.0,0.0,0.0,0.0,0.0,0.0,0.0,0.0,0.0,0.0,0.0,0.0,0.0,0.0,0.0,0.0,0.0,0.0,0.0,0.0,0.0,0.0,0.0,0.0,0.0,0.0,0.0,0.0,0.0,0.0,0.0,0.0,0.0,0.0,0.0,0.0,0.0,0.0,0.0,0.0,0.0,0.0,0.0,0.0,0.0,0.0,0.0,0.0,0.0,0.0,0.0,0.0,0.0,0.0,0.0,0.0,0.0,0.0,0.0,0.0,0.0,0.0,0.0,0.0,0.0,0.0,0.0,0.0,0.0,0.0,0.0,0.0,0.0,0.0,0.0,0.0,0.0,0.0,0.0,0.0,0.0,0.0,0.0,0.0,0.0,0.0,0.0,0.0,0.0,0.0,0.0,0.0,0.0,0.0,0.0,0.0,0.0,0.0,0.0,0.0,0.0,0.0,0.0,0.0,0.0,0.0,0.0,0.0,0.0,0.0,0.0,0.0,0.0,0.0,0.0,0.0,0.0,0.0,0.0,0.0,0.0,0.0,0.0,0.0,0.0,0.0,0.0,0.0,0.0,0.0,0.0,0.0,0.0,0.0,0.0,0.0,0.0,0.0,0.0,0.0,0.0,0.0,0.0,0.0,0.0,0.0,0.0,0.0,0.0,0.0,0.0,0.0,0.0,0.0,0.0,0.0,0.0,0.0,0.0,0.0,0.0,0.0,0.0,0.0,0.0,0.0,0.0,0.0,0.0,0.0,0.0,0.0,0.0,0.0,0.0,0.0,0.0,0.0,0.0,0.0,0.0,0.0,0.0,0.0,0.0,0.0,0.0,0.0,0.0,0.0,0.0,0.0,0.0,0.0,0.0,0.0,0.0,0.0,0.0,0.0,0.0,0.0,0.0,0.0,0.0,0.0,0.0,0.0,0.0,0.0,0.0,0.0,0.0,0.0,0.0,0.0,0.0,0.0,0.0,0.0,0.0,0.0,0.0,0.0,0.0,0.0,0.0,0.0,0.0,0.0,0.0,0.0,0.0,0.0,0.0,0.0,0.0,0.0,0.0,0.0,0.0,0.0,0.0,0.0,0.0,0.0,0.0,0.0,0.0,0.0,0.0,0.0,0.0,0.0,0.0,0.0,0.0,0.0,0.0,0.0,0.0,0.0,0.0,0.0,0.0,0.0,0.0,0.0,0.0,0.0,0.0,0.0,0.0,0.0,0.0,0.0,0.0,0.0,0.0,0.0,0.0,0.0,0.0,0.0,0.0,0.0,0.0,0.0,0.0,0.0,0.0,0.0,0.0,0.0,0.0,0.0,0.0,0.0,0.0,0.0,0.0,0.0,0.0,0.0,0.0,0.0,0.0,0.0,0.0,0.0,0.0,0.0,0.0,0.0,0.0,0.0,0.0,0.0,0.0,0.0,0.0,0.0,0.0,0.0,0.0,0.0,0.0,0.0,0.0,0.0,0.0,0.0,0.0,0.0,0.0,0.0,0.0,0.0,0.0,0.0,0.0,0.0,0.0,0.0,0.0,0.0,0.0,0.0,0.0,0.0,0.0,0.0,0.0,0.0,0.0,0.0,0.0,0.0,0.0,0.0,0.0,0.0,0.0,0.0,0.0,0.0,0.0,0.0,0.0,0.0,0.0,0.0,0.0,0.0,0.0,0.0,0.0,0.0,0.0,0.0,0.0,0.0,0.0,0.0,0.0,0.0,0.0,0.0,0.0,0.0,0.0,0.0,0.0,0.0,0.0,0.0,0.0,0.0,0.0,0.0,0.0,0.0,0.0,0.0,0.0,0.0,0.0,0.0,0.0,0.0,0.0,0.0,0.0,0.0,0.0,0.0,0.0,0.0,0.0,0.0,0.0,0.0,0.0,0.0,0.0,0.0,0.0,0.0,0.0,0.0,0.0,0.0,0.0,0.0,0.0,0.0,0.0,0.0,0.0,0.0,0.0,0.0,0.0,0.0,0.0,0.0,0.0,0.0,0.0,0.0,0.0,0.0,0.0,0.0,0.0,0.0,0.0,0.0,0.0,0.0,0.0,0.0,0.0,0.0,0.0,0.0,0.0,0.0,0.0,0.0,0.0,0.0,0.0,0.0,0.0,0.0,0.0,0.0,0.0,0.0,0.0,0.0,0.0,0.0,0.0,0.0,0.0,0.0,0.0,0.0,0.0,0.0,0.0,0.0,0.0,0.0,0.0,0.0,0.0,0.0,0.0,0.0,0.0,0.0,0.0,0.0,0.0,0.0,0.0,0.0,0.0,0.0,0.0,0.0,0.0,0.0,0.0,0.0,0.0,0.0,0.0,0.0,0.0,0.0,0.0,0.0,0.0,0.0,0.0,0.0,0.0,0.0,0.0,0.0,0.0,0.0,0.0,0.0,0.0,0.0,0.0,0.0,0.0,0.0,0.0,0.0,0.0,0.0,0.0,0.0,0.0,0.0,0.0,0.0,0.0,0.0,0.0,0.0,0.0,0.0,0.0,0.0,0.0,0.0,0.0,0.0,0.0,0.0,0.0,0.0,0.0,0.0,0.0,0.0,0.0,0.0,0.0,0.0,0.0,0.0,0.0,0.0,0.0,0.0,0.0,0.0,0.0,0.0,0.0,0.0,0.0,0.0,0.0,0.0,0.0,0.0,0.0,0.0,0.0,0.0,0.0,0.0,0.0,0.0,0.0,0.0,0.0,0.0,0.0,0.0,0.0,0.0,0.0,0.0,0.0,0.0,0.0,0.0,0.0,0.0,0.0,0.0,0.0,0.0,0.0,0.0,0.0,0.0,0.0,0.0,0.0,0.0,0.0,0.0,0.0,0.0,0.0,0.0,0.0,0.0,0.0,0.0,0.0,0.0,0.0,0.0,0.0,0.0,0.0,0.0,0.0,0.0,0.0,0.0,0.0,0.0,0.0,0.0,0.0,0.0,0.0,0.0,0.0,0.0,0.0,0.0,0.0,-4.0496,-4.0496,0.0,0.0,0.0,0.0,0.0,0.0,0.0,0.0,0.0,0.0,0.0,0.0,0.0,0.0,0.0,0.0,0.0,0.0,0.0,0.0,0.0,0.0,0.0,0.0,0.0,0.0,0.0,0.0,0.0,0.0,0.0,0.0,0.0,0.0,0.0,0.0,0.0,0.0,0.0,0.0,0.0,0.0,0.0,0.0,0.0,0.0,0.0,0.0,0.0,0.0,0.0,0.0,0.0,0.0,0.0,0.0,0.0,0.0,0.0,0.0,0.0,0.0,0.0,0.0,0.0,0.0,0.0,0.0,0.0,0.0,0.0,0.0,0.0,0.0,0.0,0.0,0.0,0.0,0.0,0.0,0.0,0.0,0.0,0.0,0.0,0.0,0.0,0.0,0.0,0.0,0.0,0.0,0.0,0.0,0.0,0.0,0.0,0.0,0.0,0.0,0.0,0.0,0.0,0.0,0.0,0.0,0.0,0.0,0.0,0.0,0.0,0.0,0.0,0.0,-4.0496,-4.0496,0.0,0.0,0.0,0.0,0.0,0.0,0.0,0.0,0.0,0.0,0.0,0.0,0.0,0.0,0.0,0.0,0.0,0.0,0.0,0.0,0.0,0.0,0.0,0.0,0.0,0.0,0.0,0.0,0.0,0.0,0.0,0.0,0.0,0.0,0.0,0.0,0.0,0.0,0.0,0.0,0.0,0.0,0.0,0.0,0.0,0.0,0.0,0.0,0.0,0.0,0.0,0.0,0.0,0.0,0.0,0.0,0.0,0.0,0.0,0.0,0.0,0.0,0.0,0.0,0.0,0.0,0.0,0.0,0.0,0.0,0.0,0.0,0.0,0.0,0.0,0.0,0.0,0.0,0.0,0.0,0.0,0.0,0.0,0.0,0.0,0.0,0.0,0.0,0.0,0.0,0.0,0.0,0.0,0.0,0.0,0.0,0.0,0.0,0.0,0.0,0.0,0.0,0.0,0.0,0.0,0.0,0.0,0.0,-4.1155,-4.1074,-4.0966,-4.0954,-4.0958,-4.0958,-4.0958,-4.0785,-4.0496,-4.0496,0.0,0.0,0.0,0.0,0.0,0.0,0.0,0.0,0.0,0.0,0.0,0.0,0.0,0.0,0.0,0.0,0.0,0.0,0.0,0.0,0.0,-3.55,-3.5488,-3.5515,-3.5574,-3.5872,0.0,0.0,0.0,0.0,0.0,0.0,0.0,0.0,0.0,0.0,0.0,0.0,-4.1191,-4.1191,-4.1191,-4.1191,-4.1191,0.0,0.0,0.0,0.0,0.0,0.0,0.0,0.0,0.0,0.0,0.0,0.0,0.0,0.0,0.0,0.0,0.0,0.0,0.0,0.0,0.0,0.0,0.0,0.0,0.0,0.0,0.0,0.0,0.0,0.0,0.0,0.0,0.0,0.0,0.0,0.0,0.0,0.0,0.0,0.0,0.0,0.0,0.0,-4.1191,-4.1191,0.0,0.0,0.0,0.0,0.0,0.0,0.0,0.0,0.0,0.0,0.0,0.0,0.0,-4.2303,-4.3055,-4.3062,-4.305,-4.3037,-4.2931,-4.2866,-4.2841,-4.278,-4.2758,-4.2758,-4.2758,0.0,-4.0496,-4.0496,0.0,0.0,0.0,0.0,0.0,0.0,0.0,0.0,0.0,0.0,0.0,0.0,0.0,0.0,0.0,0.0,0.0,0.0,0.0,0.0,0.0,-3.55,-3.55,-3.55,-3.5939,-3.6357,-3.668,0.0,0.0,0.0,0.0,0.0,0.0,0.0,0.0,0.0,-4.1597,-4.1875,-4.1894,-4.2383,-4.2617,-4.2578,-4.209,-4.1621,-4.1191,-4.1191,0.0,0.0,0.0,0.0,0.0,0.0,0.0,0.0,0.0,0.0,0.0,0.0,0.0,0.0,0.0,0.0,0.0,0.0,0.0,0.0,0.0,0.0,0.0,0.0,0.0,0.0,0.0,0.0,0.0,0.0,0.0,0.0,0.0,0.0,0.0,0.0,0.0,0.0,0.0,-4.1191,-4.1191,-4.1191,-4.1191,-4.1191,0.0,0.0,0.0,0.0,0.0,0.0,0.0,0.0,0.0,-4.3029,-4.3015,-4.3175,-4.3565,-4.3529,-4.3461,-4.3408,-4.3266,-4.3175,-4.3134,-4.3107,-4.3104,-4.3104,-4.3104,-4.2662,-4.195,-4.195,-4.1662,-4.1239,0.0,0.0,0.0,0.0,-4.0496,-4.0496,0.0,0.0,0.0,0.0,0.0,0.0,0.0,0.0,0.0,0.0,0.0,0.0,-3.55,-3.55,-3.55,-3.55,-3.6231,-3.6788,-3.7019,-3.8492,0.0,0.0,0.0,0.0,0.0,0.0,0.0,-4.1677,-4.2352,-4.2713,-4.2754,-4.3398,-4.3691,-4.3672,-4.3027,-4.2285,-4.1484,-4.1289,-4.1191,0.0,0.0,0.0,0.0,0.0,0.0,0.0,0.0,0.0,0.0,0.0,0.0,0.0,0.0,0.0,0.0,0.0,0.0,0.0,0.0,0.0,0.0,0.0,0.0,0.0,0.0,0.0,0.0,0.0,0.0,0.0,0.0,0.0,0.0,0.0,0.0,0.0,0.0,-4.1191,-4.1289,-4.1484,-4.1504,-4.1582,0.0,0.0,0.0,0.0,0.0,0.0,-4.3594,-4.3669,-4.3787,-4.3946,-4.4216,-4.4453,-4.4645,-4.4784,-4.4786,-4.4657,-4.4518,-4.4442,-4.4374,-4.4374,-4.4374,-4.4374,-4.4162,-4.4066,-4.4028,-4.3374,-4.272,-4.2143,-4.2143,-4.1739,-4.117,-4.117,-4.117,-4.1131,0.0,0.0,0.0,0.0,0.0,0.0,0.0,0.0,0.0,0.0,0.0,-3.55,-3.55,-3.55,-3.55,-3.55,-3.6231,-3.7038,-3.7873,-3.8792,-3.9646,0.0,0.0,0.0,0.0,0.0,0.0,-4.347,-4.3511,-4.3576,-4.3633,-4.3672,-4.3691,-4.3691,-4.3652,-4.3144,-4.2285,-4.1523,-4.1191,-4.1191,0.0,0.0,0.0,0.0,0.0,0.0,0.0,0.0,0.0,0.0,0.0,0.0,0.0,0.0,0.0,0.0,0.0,0.0,0.0,0.0,0.0,0.0,0.0,0.0,0.0,0.0,0.0,0.0,0.0,0.0,0.0,0.0,0.0,0.0,0.0,0.0,0.0,0.0,0.0,-4.2246,-4.2344,0.0,0.0,0.0,0.0,-4.3633,-4.3633,-4.3652,-4.3691,-4.3691,-4.4082,-4.4902,-4.5742,-4.6519,-4.7201,-4.7907,-4.8194,-4.8055,-4.7921,-4.7845,-4.7855,-4.7855,-4.7855,-4.7817,-4.7048,-4.6712,-4.6519,-4.4105,-4.3066,-4.3028,-4.3028,-4.3008,-4.297,-4.297,-4.297,-4.2854,0.0,0.0,0.0,0.0,0.0,0.0,0.0,0.0,0.0,-3.55,-3.55,-3.55,-3.55,-3.55,-3.55,-3.55,-3.675,-3.768,-3.7988,-3.9304,-4.0208,0.0,0.0,0.0,0.0,0.0,-4.3095,-4.3481,-4.4154,-4.4802,-4.5391,-4.5957,-4.6211,-4.6191,-4.5625,-4.4883,-4.4023,-4.3164,-4.248,-4.1973,-4.1973,-4.166,0.0,0.0,0.0,0.0,0.0,0.0,0.0,0.0,0.0,0.0,0.0,0.0,0.0,0.0,0.0,0.0,0.0,0.0,0.0,0.0,0.0,0.0,0.0,0.0,0.0,0.0,0.0,0.0,0.0,0.0,0.0,0.0,0.0,0.0,0.0,0.0,0.0,-4.2363,-4.2891,0.0,-4.3672,-4.3691,-4.418,-4.5293,-4.5371,-4.5859,-4.6992,-4.7051,-4.7187,-4.75,-4.7812,-4.8061,-4.823,-4.8405,-4.8436,-4.8292,-4.8155,-4.8105,-4.8105,-4.8105,-4.8105,-4.8086,-4.7798,-4.7682,-4.7605,-4.6701,-4.5355,-4.3874,-4.3874,-4.3566,-4.3104,-4.3104,-4.3104,-4.3066,0.0,0.0,0.0,0.0,0.0,0.0,0.0,0.0,0.0,-3.55,-3.55,-3.55,-3.55,-3.55,-3.55,-3.55,-3.7026,-3.8007,-3.8007,-3.9835,-4.0931,0.0,0.0,0.0,0.0,-4.3992,-4.4388,-4.475,-4.5757,-4.656,-4.7187,-4.7773,-4.8047,-4.8008,-4.7422,-4.6855,-4.6269,-4.5391,-4.418,-4.2832,-4.2832,-4.2344,-4.1601,0.0,0.0,0.0,0.0,0.0,0.0,0.0,0.0,0.0,0.0,0.0,0.0,0.0,0.0,0.0,0.0,0.0,0.0,0.0,0.0,0.0,0.0,0.0,0.0,0.0,0.0,0.0,0.0,0.0,0.0,0.0,0.0,0.0,0.0,-4.2324,-4.2949,-4.3242,-4.4043,-4.4687,-4.498,-4.5273,-4.5937,-4.709,-4.7187,-4.7676,-4.8848,-4.8906,-4.8906,-4.8906,-4.9138,-4.9217,-4.9072,-4.9221,-4.9246,-4.9103,-4.9025,-4.8971,-4.8971,-4.8971,-4.8971,-4.8952,-4.8663,-4.8548,-4.8529,-4.8221,-4.7105,-4.5566,-4.5278,-4.4662,-4.3932,-4.3932,-4.3932,-4.3893,0.0,0.0,0.0,0.0,0.0,0.0,0.0,0.0,-3.55,-3.55,-3.55,-3.55,-3.55,-3.55,-3.55,-3.55,-3.7026,-3.8007,-3.8046,-4.0412,-4.1808,0.0,0.0,0.0,-4.4563,-4.5402,-4.6367,-4.7437,-4.8281,-4.8792,-4.8945,-4.8945,-4.8945,-4.8945,-4.8945,-4.8926,-4.8848,-4.8008,-4.6152,-4.3828,-4.3769,-4.3223,-4.2441,0.0,0.0,0.0,0.0,0.0,0.0,0.0,0.0,0.0,0.0,0.0,0.0,0.0,0.0,0.0,0.0,0.0,0.0,0.0,0.0,0.0,0.0,0.0,0.0,0.0,0.0,0.0,0.0,0.0,0.0,0.0,0.0,0.0,-4.2441,-4.3203,-4.4082,-4.4941,-4.582,-4.6719,-4.7558,-4.8398,-4.8906,-4.8945,-4.8945,-4.8945,-4.8984,-4.8984,-4.8984,-4.8984,-4.9667,-4.9975,-4.9844,-5.0539,-5.0844,-5.0712,-5.0702,-5.0702,-5.0702,-5.0693,-5.0712,-5.0654,-4.9798,-4.9433,-4.9375,-4.8529,-4.8163,-4.8067,-4.725,-4.6413,-4.5691,-4.5652,-4.5614,-4.5479,0.0,0.0,0.0,0.0,0.0,0.0,0.0,-3.55,-3.55,-3.55,-3.55,-3.55,-3.55,-3.55,-3.55,-3.55,-3.7026,-3.8277,-3.8892,-4.0739,0.0,0.0,0.0,0.0,-4.6358,-4.6759,-4.7404,-4.8337,-4.8681,-4.9198,-4.9844,-4.9844,-4.9844,-4.9844,-4.9844,-4.9492,-4.8887,-4.8633,-4.7754,-4.6426,-4.5156,-4.4121,-4.3262,0.0,0.0,0.0,0.0,0.0,0.0,0.0,0.0,0.0,0.0,0.0,0.0,0.0,0.0,0.0,0.0,0.0,0.0,0.0,0.0,0.0,0.0,0.0,0.0,0.0,0.0,0.0,0.0,0.0,0.0,0.0,-4.4551,-4.4785,-4.3516,-4.4648,-4.5664,-4.5918,-4.7266,-4.8281,-4.8516,-4.8769,-4.916,-4.9805,-4.9844,-5.0098,-5.0683,-5.0703,-5.0703,-5.0703,-5.0916,-5.0959,-5.082,-5.1011,-5.1078,-5.0991,-5.0894,-5.0844,-5.0844,-5.073,-5.0712,-5.0693,-5.0462,-5.0346,-5.0327,-5.0067,-4.9606,-4.8952,-4.8105,-4.7625,-4.7336,-4.6759,-4.6144,-4.5575,0.0,0.0,0.0,0.0,0.0,0.0,0.0,-3.55,-3.55,-3.55,-3.55,-3.55,-3.55,-3.55,-3.55,-3.55,-3.7373,-3.8757,-3.9265,-4.1527,0.0,0.0,0.0,-4.6073,-4.7129,-4.7961,-4.8639,-4.9163,-4.9622,-5.0128,-5.0617,-5.0683,-5.0703,-5.0703,-5.0703,-5.043,-4.9922,-4.959,-4.9141,-4.8535,-4.6797,-4.5351,-4.4199,-4.3672,-4.3262,-4.2832,-4.1992,-4.1699,-4.1641,-4.1308,0.0,0.0,0.0,0.0,0.0,0.0,0.0,0.0,0.0,0.0,0.0,0.0,0.0,0.0,0.0,0.0,0.0,0.0,0.0,0.0,0.0,0.0,0.0,0.0,-4.5644,-4.6074,-4.543,-4.6211,-4.6973,-4.7344,-4.8613,-4.9433,-4.9433,-4.9746,-5.0156,-5.0664,-5.0703,-5.0918,-5.1387,-5.1406,-5.1406,-5.1406,-5.1344,-5.1271,-5.1204,-5.1171,-5.1141,-5.1108,-5.0959,-5.0908,-5.0901,-5.0766,-5.0712,-5.0712,-5.0712,-5.0712,-5.0712,-5.0712,-5.0404,-4.9856,0.0,0.0,0.0,0.0,-4.7086,-4.6605,0.0,0.0,0.0,0.0,0.0,0.0,0.0,-3.55,-3.55,-3.55,-3.55,-3.55,-3.55,-3.55,-3.55,-3.55,-3.7738,-3.9323,-3.9708,0.0,0.0,-4.5751,-4.6623,-4.7163,-4.7329,-4.8958,-4.9853,-4.9956,-5.0794,-5.1204,-5.1204,-5.1343,-5.1406,-5.1406,-5.1406,-5.1406,-5.1348,-5.0644,-5.0273,-5.0058,-4.8516,-4.6855,-4.5273,-4.5078,-4.4512,-4.3711,-4.2754,-4.2402,-4.2285,-4.1465,0.0,0.0,0.0,0.0,0.0,0.0,0.0,0.0,0.0,0.0,0.0,0.0,0.0,0.0,0.0,0.0,0.0,0.0,0.0,0.0,0.0,0.0,0.0,0.0,-4.6523,-4.6894,-4.7773,-4.7891,-4.8183,-4.8945,-4.9805,-5.0332,-5.0332,-5.0976,-5.1406,-5.1406,-5.1406,-5.1406,-5.1406,-5.1406,0.0,0.0,0.0,-5.1213,-5.1213,-5.1163,-5.1135,-5.1131,-5.0997,-5.0918,-5.0911,-5.0775,-5.0712,-5.0712,-5.0712,-5.0712,-5.0712,-5.0712,-5.0712,-5.0616,-4.9856,-4.9009,-4.8259,-4.8259,-4.8182,-4.8009,0.0,0.0,0.0,0.0,0.0,0.0,0.0,-3.55,-3.55,-3.55,-3.55,-3.55,-3.55,-3.55,-3.55,-3.55,-3.7199,-3.9411,0.0,0.0,-4.475,-4.5751,-4.659,-4.7403,-4.8234,-4.926,-5.0136,-5.0855,-5.1086,-5.1204,-5.1204,-5.1343,-5.1406,-5.1406,-5.1406,-5.1406,-5.1387,-5.123,-5.0781,-5.0176,-4.9824,-4.8652,-4.6933,-4.5547,-4.4902,-4.4531,-4.2969,-4.2402,-4.2285,-4.1465,-4.1191,-4.1191,-4.1191,0.0,0.0,0.0,0.0,0.0,0.0,0.0,0.0,0.0,0.0,0.0,0.0,0.0,0.0,0.0,0.0,0.0,0.0,0.0,0.0,-4.7285,-4.7949,-4.8691,-4.957,-4.9707,-4.9766,-4.9922,-5.0664,-5.1172,-5.1172,-5.1308,-5.1406,-5.1406,-5.1406,-5.1406,-5.1406,-5.1406,-5.1406,-5.1406,-5.1366,-5.1365,-5.1365,-5.1342,-5.134,-5.134,-5.1141,0.0,-5.1042,-5.0805,-5.0712,-5.0712,-5.0712,-5.0712,-5.0712,-5.0712,-5.0712,-5.0673,-5.0519,-4.9913,-4.9144,-4.9144,-4.8702,-4.8086,0.0,0.0,0.0,0.0,0.0,0.0,0.0,-3.55,-3.55,-3.55,-3.55,-3.55,-3.55,-3.55,-3.5654,-3.6077,-3.8027,0.0,0.0,-4.4085,-4.475,-4.5751,-4.6597,-4.7469,-4.8377,-4.925,-5.0086,-5.0908,-5.1074,-5.114,-5.1144,-5.1317,-5.1406,-5.1406,-5.1406,-5.1406,-5.1406,-5.1406,-5.1172,-5.0762,-5.0351,-4.9414,-4.8105,-4.6797,-4.6035,-4.5488,-4.418,-4.3418,-4.293,-4.207,-4.1523,-4.1191,-4.1191,-4.1191,-4.1191,0.0,0.0,0.0,0.0,0.0,0.0,0.0,0.0,0.0,0.0,0.0,0.0,0.0,0.0,-4.5273,0.0,0.0,-4.7734,-4.8183,-4.8984,-4.9707,-5.0137,-5.0547,-5.0801,-5.0801,-5.1152,-5.1406,-5.1406,-5.1406,-5.1406,-5.1406,-5.1406,-5.1406,-5.1406,-5.1406,-5.1406,-5.1406,-5.1406,-5.1406,-5.1406,-5.1406,-5.1406,-5.1406,-5.1238,-5.114,-5.1133,-5.0905,-5.0789,-5.0808,-5.0721,-5.0712,-5.0712,-5.0712,-5.0712,-5.0712,-5.0712,-5.0442,-5.0048,-5.0048,-4.9779,-4.9336,0.0,0.0,0.0,0.0,0.0,0.0,0.0,0.0,-3.55,-3.55,-3.55,-3.55,-3.55,-3.55,-3.5885,-3.6865,0.0,0.0,0.0,-4.397,-4.4519,-4.5506,-4.6512,-4.7453,-4.8273,-4.9122,-4.9937,-5.0712,-5.0966,-5.1089,-5.1099,-5.1309,-5.1406,-5.1406,-5.1406,-5.1406,-5.1406,-5.1406,-5.1406,-5.1328,-5.0527,-4.9687,-4.8808,-4.793,-4.7051,-4.6191,-4.5312,-4.4433,-4.3574,-4.2695,-4.1875,-4.1191,-4.1191,-4.1191,-4.1191,-4.1191,-4.1191,0.0,0.0,0.0,0.0,0.0,0.0,0.0,0.0,0.0,-4.4141,-4.4863,-4.5273,-4.5937,-4.7344,-4.7871,-4.834,-4.9043,-4.9863,-5.043,-5.043,-5.0996,-5.1406,-5.1406,-5.1406,-5.1406,-5.1406,-5.1406,-5.1406,-5.1406,-5.1406,-5.1406,-5.1406,-5.1406,-5.1406,-5.1406,-5.1406,-5.1406,-5.1406,-5.1406,-5.1406,-5.1406,-5.1267,-5.1204,-5.1199,-5.0994,-5.0908,-5.0901,-5.0757,-5.0712,-5.0712,-5.0712,-5.0712,-5.0712,-5.0712,-5.0712,-5.0712,-5.0712,-5.0712,-5.0596,0.0,0.0,0.0,0.0,0.0,0.0,0.0,0.0,0.0,-3.55,-3.55,-3.55,-3.55,-3.55,-3.6135,-3.7719,0.0,0.0,-4.1904,-4.2797,-4.3671,-4.4596,-4.6113,-4.7351,-4.8273,-4.9037,-4.9846,-5.0712,-5.0966,-5.1089,-5.1099,-5.1309,-5.1406,-5.1406,-5.1406,-5.1406,-5.1406,-5.1406,-5.1406,-5.1328,-5.0527,-4.9687,-4.8808,-4.793,-4.7051,-4.6191,-4.5312,-4.4433,-4.3574,-4.2695,-4.1875,-4.1191,-4.1191,-4.1191,-4.1191,-4.1191,0.0,-4.1191,-4.1191,-4.1719,-4.2266,-4.2266,-4.293,-4.3555,0.0,0.0,-4.4883,-4.498,-4.623,-4.7363,-4.7558,-4.8867,-4.9941,-5.0039,-5.0742,-5.1269,-5.1269,-5.1348,-5.1406,-5.1406,-5.1406,-5.1406,-5.1406,-5.1406,-5.1406,-5.1406,-5.1406,-5.1406,-5.1406,-5.1406,-5.1406,-5.1406,-5.1406,-5.1406,-5.1406,-5.1406,-5.1406,-5.1406,-5.1267,-5.1204,-5.1199,-5.0994,-5.0908,-5.0901,-5.0757,-5.0712,-5.0712,-5.0712,-5.0712,-5.0712,-5.0712,-5.0712,-5.0712,-5.0712,-5.0712,-5.0693,0.0,0.0,0.0,0.0,0.0,0.0,0.0,0.0,0.0,0.0,-3.55,-3.55,-3.55,-3.5923,-3.6481,0.0,0.0,0.0,-4.0931,-4.1854,-4.2953,-4.4318,-4.5021,-4.6052,-4.7447,-4.7785,-4.8606,-4.9933,-5.0216,-5.0593,-5.1099,-5.1309,-5.1406,-5.1406,-5.1406,-5.1406,-5.1406,-5.1406,-5.1133,-5.0664,-5.0332,-4.9375,-4.8105,-4.7734,-4.7051,-4.625,-4.5898,-4.5195,0.0,0.0,-4.2598,-4.1816,-4.1348,-4.1191,-4.1289,-4.1758,-4.1894,0.0,-4.2519,-4.2891,0.0,0.0,-4.3808,-4.4453,-4.4453,-4.5137,-4.5762,-4.5762,-4.6738,-4.7754,-4.8262,-4.9375,-5.0351,0.0,-5.1172,-5.1406,-5.1406,-5.1406,-5.1406,-5.1406,-5.1406,-5.1406,-5.1406,-5.1406,-5.1406,-5.1406,-5.1406,-5.1406,-5.1406,-5.1406,-5.1406,-5.1406,-5.1406,-5.1406,-5.1406,-5.1406,-5.1406,-5.1406,-5.1344,-5.132,-5.1318,-5.1154,-5.1003,-5.0901,-5.0757,-5.0712,-5.0712,-5.0712,-5.0712,-5.0712,-5.0712,-5.0712,-5.0712,-5.0712,-5.0712,-5.0712,0.0,0.0,0.0,0.0,0.0,0.0,0.0,0.0,0.0,0.0,0.0,-3.55,-3.55,-3.6019,0.0,0.0,0.0,0.0,0.0,-4.0969,-4.2085,-4.3547,-4.4047,-4.5009,-4.6509,-4.6778,-4.7605,-4.9048,-4.9304,-4.9756,-5.0398,-5.0606,-5.0703,-5.0703,-5.0703,-5.0703,-5.0703,-5.0703,-5.0371,-4.9824,-4.957,-4.873,-4.7578,-4.7324,-4.6699,-4.5976,-4.6211,-4.5586,0.0,0.0,-4.2969,-4.1973,-4.1387,-4.1348,-4.1641,-4.2226,-4.2578,-4.2891,-4.3535,0.0,0.0,-4.4062,-4.4707,-4.5351,-4.5351,-4.5859,-4.6367,-4.6601,-4.7344,-4.8223,-4.9101,-4.9961,-5.0723,-5.1308,-5.1406,-5.1406,-5.1406,-5.1406,-5.1406,-5.1406,-5.1406,-5.1406,-5.1406,-5.1406,-5.1406,-5.1406,-5.1406,-5.1406,-5.1406,-5.1406,-5.1406,-5.1406,-5.1406,-5.1406,-5.1406,-5.1406,-5.1406,-5.1406,-5.1406,-5.1406,-5.1406,-5.1267,-5.1085,-5.0882,-5.0808,-5.073,-5.0712,-5.0712,-5.0712,-5.0712,-5.0712,-5.0712,-5.0712,-5.0712,-5.0712,-5.0712,0.0,0.0,0.0,0.0,0.0,0.0,0.0,0.0,0.0,0.0,0.0,0.0,0.0,0.0,0.0,0.0,0.0,0.0,0.0,-4.0092,-4.0931,-4.1827,-4.3431,-4.472,-4.5614,-4.6471,-4.7317,-4.8144,-4.8405,-4.855,-4.8574,-4.8849,-4.8984,-4.8984,-4.8984,-4.8984,-4.8984,-4.8984,-4.8965,-4.8867,-4.8027,-4.7656,-4.7519,-4.666,-4.5801,-4.5156,-4.5996,0.0,0.0,-4.3711,-4.2598,-4.123,-4.1211,-4.1738,0.0,-4.2383,-4.3008,-4.3672,-4.3691,0.0,-4.4961,-4.4961,-4.5625,-4.6269,-4.6269,-4.6289,-4.6543,-4.7383,-4.8242,-4.9121,-5.0,-5.082,-5.1367,-5.1406,-5.1406,-5.1406,-5.1406,-5.1406,-5.1406,-5.1406,-5.1406,-5.1406,0.0,-5.1406,-5.1406,-5.1406,-5.1406,-5.1406,-5.1406,-5.1406,-5.1406,-5.1406,-5.1406,-5.1406,-5.1406,-5.1406,-5.1406,-5.1406,-5.1406,-5.1406,-5.1406,-5.1267,-5.1085,-5.0908,-5.0901,-5.0822,-5.0712,-5.0712,-5.0712,-5.0712,-5.0712,-5.0712,-5.0712,-5.0712,-5.0712,-5.0712,0.0,0.0,0.0,0.0,0.0,0.0,0.0,0.0,0.0,0.0,0.0,0.0,0.0,0.0,0.0,0.0,0.0,0.0,0.0,-3.8373,-3.9469,-4.0873,-4.1477,-4.2459,-4.3912,-4.4759,-4.5586,-4.6432,-4.7196,-4.7886,-4.8496,-4.8679,-4.8801,-4.8906,-4.8906,-4.8906,-4.8906,-4.8906,-4.8574,-4.7969,-4.709,-4.6387,-4.5781,-4.4902,-4.4394,-4.418,0.0,0.0,0.0,-4.3027,-4.2461,-4.1992,-4.1992,-4.2187,-4.2637,-4.3789,-4.4746,-4.543,-4.543,0.0,-4.5859,-4.5859,-4.6074,-4.6308,-4.6308,-4.6308,-4.6543,-4.7422,-4.8281,-4.918,-5.0039,-5.0859,-5.1406,-5.1406,-5.1406,-5.1406,-5.1406,-5.1406,-5.1406,-5.1406,-5.1406,0.0,0.0,0.0,0.0,-5.1406,-5.1406,-5.1406,-5.1406,-5.1406,-5.1406,-5.1406,-5.1406,-5.1406,-5.1406,-5.1406,-5.1406,-5.1406,-5.1406,-5.1406,-5.1406,-5.1267,-5.1157,-5.1085,-5.0959,-5.0871,-5.083,-5.074,-5.0712,-5.0712,-5.0712,-5.0712,-5.0712,-5.0712,-5.0712,-5.0712,0.0,0.0,0.0,0.0,0.0,0.0,0.0,0.0,0.0,0.0,0.0,0.0,0.0,0.0,0.0,0.0,0.0,0.0,0.0,0.0,-3.8161,-3.9554,-4.0189,-4.1016,-4.2143,-4.3297,-4.4143,-4.471,-4.5373,-4.6026,-4.66,-4.6745,-4.6876,-4.7007,-4.7007,-4.7029,-4.7031,-4.7031,-4.6719,-4.6152,-4.5605,-4.5039,-4.4473,-4.3906,-4.3516,0.0,0.0,0.0,-4.2754,-4.248,-4.2207,-4.2012,-4.2305,-4.2832,-4.3613,-4.5039,-4.5859,-4.6308,-4.6308,-4.6308,-4.6308,-4.6308,-4.6308,-4.6308,-4.6308,-4.6308,-4.6543,-4.7422,-4.8281,-4.918,-5.0039,-5.0859,-5.1406,-5.1406,-5.1406,-5.1406,-5.1406,-5.1406,-5.1406,-5.1406,-5.1406,-5.1406,0.0,0.0,0.0,-5.1406,-5.1406,-5.1406,-5.1406,-5.1406,-5.1406,-5.1406,-5.1406,-5.1406,-5.1406,-5.1406,-5.1406,-5.1406,-5.1406,-5.1406,-5.1406,-5.1318,-5.1242,-5.1196,-5.1039,-5.0933,-5.0894,-5.0757,-5.0712,-5.0712,-5.0712,-5.0712,-5.0712,-5.0712,-5.0712,-5.0712,0.0,0.0,0.0,0.0,0.0,0.0,0.0,0.0,0.0,0.0,0.0,0.0,0.0,0.0,0.0,0.0,0.0,0.0,0.0,0.0,0.0,-3.7892,-3.9457,-4.0323,-4.0362,-4.2085,-4.297,-4.297,-4.3116,-4.3201,-4.3194,-4.3349,-4.3475,-4.3595,-4.3599,-4.3639,-4.3691,-4.3691,-4.3691,-4.3691,-4.3652,-4.3633,-4.3633,-4.3594,0.0,0.0,0.0,0.0,0.0,-4.207,0.0,-4.1406,-4.2207,-4.3633,-4.5176,-4.6035,-4.6308,-4.6308,-4.6289,-4.6289,-4.6308,-4.6289,-4.6289,-4.6308,-4.6308,-4.6308,-4.6543,-4.7422,-4.8262,-4.9101,0.0,0.0,-5.1348,-5.1348,-5.1367,-5.1406,-5.1406,-5.1406,-5.1406,0.0,0.0,0.0,0.0,0.0,0.0,-5.1406,-5.1406,-5.1406,-5.1406,-5.1406,-5.1406,-5.1406,-5.1406,-5.1406,-5.1406,-5.1406,-5.1406,-5.1406,-5.1406,-5.1406,-5.1406,-5.1406,-5.1322,-5.1199,-5.1133,-5.1039,-5.0894,-5.0766,-5.0702,-5.0712,-5.0712,-5.0712,-5.0712,-5.0712,-5.0712,-5.0712,0.0,0.0,0.0,0.0,0.0,0.0,0.0,0.0,0.0,0.0,0.0,0.0,0.0,0.0,0.0,0.0,0.0,0.0,0.0,0.0,0.0,0.0,0.0,0.0,0.0,0.0,0.0,0.0,-4.2468,-4.3151,-4.3194,-4.334,-4.3468,-4.3597,-4.3644,-4.3671,-4.3691,-4.3691,-4.3691,-4.3633,0.0,-4.2734,-4.2676,0.0,0.0,0.0,0.0,0.0,0.0,0.0,0.0,0.0,0.0,-4.4121,-4.5176,-4.6035,-4.6308,-4.6289,-4.6175,-4.6224,-4.6288,-4.6174,-4.6224,-4.6308,-4.6308,-4.6308,-4.6543,-4.7422,-4.7773,-4.8203,0.0,0.0,0.0,-5.0508,-5.1016,0.0,-5.1406,-5.1406,0.0,-5.1406,0.0,-5.1406,-5.1406,-5.1406,0.0,0.0,-5.1406,-5.1406,-5.1406,-5.1406,-5.1406,-5.1406,-5.1406,-5.1406,-5.1406,-5.1406,-5.1406,-5.1406,-5.1406,-5.1406,-5.1406,-5.1406,-5.1322,-5.1201,-5.1183,-5.1069,-5.0908,-5.0856,-5.0791,-5.0712,-5.0712,-5.0712,-5.0712,-5.0712,-5.0712,-5.0712,0.0,0.0,0.0,0.0,0.0,0.0,0.0,0.0,0.0,0.0,0.0,0.0,0.0,0.0,0.0,0.0,0.0,0.0,0.0,0.0,0.0,0.0,0.0,0.0,0.0,0.0,0.0,0.0,0.0,0.0,-4.1528,-4.1611,-4.1949,-4.2463,-4.2505,-4.2555,-4.2598,-4.2598,0.0,0.0,0.0,0.0,0.0,0.0,0.0,0.0,0.0,0.0,0.0,0.0,0.0,-4.2558,-4.3437,-4.4297,-4.5176,-4.6035,0.0,-4.6202,-4.6199,-4.62,-4.6199,-4.6117,-4.62,-4.6289,-4.6224,-4.6268,-4.6445,-4.6933,-4.7324,0.0,-4.8242,-4.9043,0.0,0.0,0.0,0.0,-5.1348,-5.1406,-5.1406,0.0,-5.1406,0.0,-5.1406,-5.1406,-5.1406,0.0,-5.1406,-5.1406,-5.1406,-5.1406,-5.1406,-5.1406,-5.1406,-5.1406,-5.1406,-5.1406,-5.1406,-5.1406,-5.1406,-5.1406,-5.1406,-5.1406,-5.1365,-5.1273,-5.1234,-5.1131,-5.1025,-5.094,-5.0859,-5.0782,-5.0712,-5.0712,-5.0712,-5.0712,-5.0712,-5.0712,0.0,0.0,0.0,0.0,0.0,0.0,0.0,0.0,0.0,0.0,0.0,0.0,0.0,0.0,0.0,0.0,0.0,0.0,0.0,0.0,0.0,0.0,0.0,0.0,0.0,0.0,0.0,0.0,0.0,0.0,0.0,0.0,0.0,0.0,0.0,0.0,0.0,0.0,0.0,0.0,0.0,0.0,0.0,0.0,0.0,0.0,0.0,0.0,0.0,0.0,-4.166,-4.2383,-4.3262,-4.4121,-4.5,-4.5879,-4.6103,-4.6138,-4.6246,-4.6198,-4.6108,-4.6108,-4.62,-4.6268,-4.6149,-4.6222,-4.6308,-4.6308,0.0,-4.7422,-4.7422,-4.8144,-4.8965,-4.9726,0.0,-5.0449,-5.1133,-5.1328,-5.1406,-5.1406,-5.1406,-5.1406,-5.1406,-5.1406,-5.1406,-5.1406,-5.1406,-5.1406,-5.1406,-5.1406,-5.1406,-5.1406,-5.1406,-5.1406,-5.1406,-5.1406,-5.1406,-5.1406,-5.1406,-5.1406,-5.1406,-5.1406,-5.1386,-5.1366,-5.1268,-5.1201,-5.1145,-5.0983,-5.0916,-5.0856,-5.0758,-5.0712,-5.0712,-5.0712,-5.0712,-5.0712,0.0,0.0,0.0,0.0,0.0,0.0,0.0,0.0,0.0,0.0,-3.55,0.0,0.0,0.0,0.0,0.0,0.0,0.0,0.0,0.0,0.0,0.0,0.0,0.0,0.0,0.0,0.0,0.0,-3.7642,0.0,0.0,0.0,0.0,0.0,0.0,0.0,0.0,0.0,0.0,0.0,0.0,0.0,0.0,0.0,0.0,0.0,0.0,0.0,0.0,0.0,-4.1289,-4.1543,-4.2363,-4.3223,-4.4101,-4.4961,-4.5635,-4.611,-4.612,-4.6117,-4.6108,-4.6108,-4.62,-4.6289,-4.6268,-4.6289,0.0,0.0,-4.6426,-4.6523,-4.6523,-4.7246,-4.7871,-4.8027,-4.9258,-5.0254,-5.0391,-5.0976,-5.1406,0.0,-5.1406,-5.1406,-5.1406,-5.1406,0.0,0.0,-5.1406,-5.1406,-5.1406,-5.1406,-5.1406,-5.1406,-5.1406,-5.1406,-5.1406,-5.1406,-5.1406,-5.1406,-5.1406,-5.1406,-5.1406,-5.1406,-5.1343,-5.1238,-5.1322,-5.1208,-5.0953,-5.1025,-5.0939,-5.073,-5.0702,-5.0712,-5.0712,-5.0712,-5.0712,-5.0712,0.0,0.0,0.0,0.0,0.0,0.0,0.0,0.0,0.0,0.0,-3.55,-3.55,0.0,0.0,0.0,0.0,0.0,0.0,0.0,0.0,0.0,0.0,0.0,0.0,0.0,-3.5885,-3.6077,-3.6077,0.0,-3.6973,-3.7538,-3.7595,-3.7934,-3.8506,-3.8573,0.0,0.0,0.0,0.0,0.0,0.0,0.0,0.0,0.0,0.0,0.0,0.0,0.0,0.0,0.0,-4.1191,-4.1348,-4.2148,-4.3008,-4.3867,-4.4746,-4.5517,-4.6108,-4.6108,-4.6045,-4.5992,-4.5992,-4.6042,-4.6113,-4.6175,0.0,0.0,0.0,-4.6308,-4.6308,-4.6308,-4.6641,0.0,-4.7539,-4.8301,-4.916,-5.0078,-5.0527,0.0,-5.1348,-5.1406,-5.1406,0.0,-5.1406,-5.1406,-5.1406,-5.1406,-5.1406,-5.1406,-5.1406,-5.1406,-5.1406,-5.1406,-5.1406,-5.1406,-5.1406,-5.1406,-5.1406,-5.1406,-5.1406,-5.1406,-5.1406,-5.1366,-5.1318,-5.1366,-5.1261,-5.1064,-5.1094,-5.0979,-5.0808,-5.0721,-5.0712,-5.0712,-5.0712,-5.0712,-5.0712,0.0,0.0,0.0,0.0,0.0,0.0,0.0,-3.55,-3.55,-3.55,-3.55,-3.55,-3.55,-3.55,-3.55,0.0,0.0,0.0,0.0,0.0,0.0,0.0,0.0,0.0,0.0,0.0,0.0,-3.5522,-3.5522,0.0,0.0,0.0,0.0,0.0,-3.8047,-3.8144,-3.832,0.0,0.0,0.0,0.0,-4.0137,0.0,0.0,0.0,0.0,0.0,0.0,0.0,0.0,-4.1191,-4.1308,-4.1933,-4.2734,-4.3555,-4.4238,-4.5107,-4.5837,-4.5869,-4.5905,-4.5936,-4.5936,-4.5936,-4.5916,-4.5843,-4.5816,0.0,0.0,-4.6016,-4.6074,-4.6269,-4.6308,-4.6523,0.0,-4.748,-4.8086,-4.9453,-4.9961,-5.043,0.0,-5.1308,0.0,-5.1406,-5.1406,0.0,-5.1406,-5.1406,-5.1406,-5.1406,-5.1406,-5.1406,-5.1406,-5.1406,-5.1406,-5.1406,-5.1406,-5.1406,-5.1406,-5.1406,-5.1406,-5.1406,-5.1406,-5.1406,-5.1406,-5.1366,-5.1291,-5.1174,-5.1084,-5.0972,-5.0851,-5.0749,-5.0712,-5.0712,-5.0712,-5.0712,-5.0712,0.0,0.0,0.0,0.0,0.0,0.0,0.0,-3.55,-3.55,-3.55,-3.55,-3.55,-3.55,-3.55,-3.55,0.0,0.0,0.0,0.0,0.0,0.0,0.0,0.0,0.0,0.0,0.0,0.0,-3.559,-3.559,0.0,0.0,0.0,0.0,0.0,0.0,-3.668,-3.7422,-3.7422,0.0,0.0,0.0,0.0,0.0,0.0,0.0,0.0,0.0,0.0,0.0,0.0,0.0,-4.1211,-4.1289,-4.1875,-4.2539,-4.2617,0.0,0.0,-4.5075,-4.5571,-4.6082,-4.6082,-4.6082,-4.5887,-4.5091,0.0,0.0,-4.5097,-4.5117,-4.5351,-4.6152,-4.6308,-4.6328,-4.6406,0.0,-4.7656,0.0,0.0,-5.0234,-5.0293,0.0,0.0,-5.1406,-5.1406,-5.1406,-5.1406,-5.1406,-5.1406,-5.1406,-5.1406,-5.1406,-5.1406,-5.1406,-5.1406,-5.1406,-5.1406,-5.1406,-5.1406,-5.1406,-5.1406,-5.1406,-5.1406,-5.1406,-5.1387,-5.127,-5.119,-5.1099,-5.0972,-5.0835,-5.0721,-5.0702,-5.0712,-5.0712,-5.0712,-5.0712,-5.0712,0.0,0.0,0.0,0.0,0.0,0.0,0.0,-3.55,-3.55,-3.55,-3.55,-3.55,-3.55,-3.55,-3.55,0.0,0.0,0.0,0.0,0.0,0.0,0.0,0.0,0.0,0.0,0.0,-3.5571,-3.5611,-3.5648,0.0,0.0,0.0,0.0,0.0,0.0,-3.6191,-3.6523,-3.6523,0.0,0.0,0.0,0.0,0.0,0.0,0.0,0.0,0.0,0.0,0.0,0.0,0.0,0.0,-4.1191,-4.1426,0.0,0.0,-4.3194,-4.4085,-4.4139,-4.4304,-4.4465,-4.4465,-4.4478,-4.4413,-4.4131,0.0,-4.4091,-4.4198,-4.4219,-4.4316,-4.4668,-4.4746,-4.4902,-4.543,0.0,0.0,-4.7441,0.0,0.0,-5.0137,-5.0918,0.0,0.0,0.0,-5.1406,-5.1406,-5.1406,-5.1406,-5.1406,-5.1406,-5.1406,-5.1406,-5.1406,-5.1406,-5.1406,-5.1406,-5.1406,-5.1406,-5.1406,-5.1406,-5.1406,-5.1406,-5.1406,-5.1406,-5.1344,-5.126,-5.1147,-5.1069,-5.0945,-5.0814,-5.073,-5.0712,-5.0712,-5.0712,-5.0712,-5.0712,0.0,0.0,0.0,0.0,0.0,0.0,-3.55,-3.55,-3.55,-3.55,-3.55,-3.55,-3.55,-3.55,-3.55,-3.55,0.0,0.0,0.0,0.0,0.0,0.0,0.0,0.0,0.0,0.0,-3.5611,-3.563,-3.5719,-3.5817,0.0,0.0,-3.595,-3.5996,0.0,0.0,0.0,0.0,0.0,0.0,0.0,0.0,0.0,0.0,0.0,0.0,0.0,0.0,0.0,0.0,0.0,0.0,0.0,0.0,0.0,0.0,-4.2613,-4.3243,-4.3259,-4.3351,-4.3487,-4.3458,-4.3467,-4.3422,0.0,0.0,-4.3232,-4.33,-4.332,-4.3398,-4.3652,-4.3691,-4.3984,0.0,0.0,-4.5527,-4.7012,-4.8183,0.0,0.0,0.0,-5.1406,0.0,-5.1406,-5.1406,-5.1406,-5.1406,-5.1406,-5.1406,-5.1406,-5.1406,-5.1406,-5.1406,-5.1406,-5.1406,-5.1406,-5.1406,-5.1406,-5.1406,-5.1406,-5.1406,-5.1406,-5.1406,-5.1406,-5.1365,-5.1294,-5.1196,-5.1124,-5.1027,-5.0894,-5.0808,-5.074,-5.0712,-5.0712,-5.0712,-5.0712,0.0,0.0,0.0,0.0,0.0,0.0,0.0,-3.55,-3.55,-3.55,-3.55,-3.55,-3.55,-3.55,-3.55,-3.55,0.0,0.0,0.0,0.0,0.0,0.0,0.0,0.0,0.0,0.0,-3.5635,-3.5703,-3.5836,-3.5922,-3.5996,-3.5996,-3.5996,-3.5996,0.0,0.0,0.0,0.0,0.0,0.0,0.0,0.0,0.0,0.0,0.0,0.0,0.0,0.0,0.0,0.0,0.0,0.0,0.0,0.0,0.0,0.0,-4.1777,-4.2402,-4.2402,-4.3047,-4.367,-4.362,-4.3606,-4.337,0.0,0.0,-4.2332,-4.2401,-4.2402,-4.2676,-4.3535,-4.3691,-4.3984,-4.4863,-4.5,0.0,-4.6191,-4.7812,0.0,0.0,0.0,-5.1406,-5.1406,-5.1406,-5.1406,-5.1406,-5.1406,-5.1406,-5.1406,-5.1406,-5.1406,-5.1406,-5.1406,-5.1406,-5.1406,-5.1406,-5.1406,-5.1406,-5.1406,-5.1406,-5.1406,-5.1406,-5.1406,-5.1387,-5.1265,-5.1204,-5.1196,-5.1124,-5.1027,-5.0908,-5.0908,-5.0822,-5.0712,-5.0712,-5.0712,-5.0712,0.0,0.0,0.0,0.0,0.0,0.0,0.0,-3.55,-3.55,-3.55,-3.55,-3.55,-3.55,-3.55,-3.55,-3.55,0.0,0.0,0.0,0.0,0.0,0.0,0.0,0.0,0.0,0.0,-3.5816,-3.5838,-3.5923,-3.5975,-3.5996,-3.5996,-3.5996,-3.5996,-3.5996,-3.5996,0.0,0.0,0.0,0.0,0.0,0.0,0.0,0.0,0.0,0.0,0.0,0.0,0.0,0.0,0.0,0.0,0.0,0.0,0.0,-4.1191,-4.1324,-4.1452,-4.1542,-4.1714,-4.1854,-4.1839,-4.1896,-4.1866,-4.1509,0.0,-4.1559,-4.1582,-4.1582,-4.166,-4.1933,-4.1992,-4.2461,-4.3887,-4.4101,0.0,0.0,0.0,0.0,-4.8828,-5.0371,-5.1406,0.0,0.0,-5.1406,-5.1406,-5.1406,-5.1406,-5.1406,-5.1406,-5.1406,-5.1406,-5.1406,-5.1406,-5.1406,-5.1406,-5.1406,-5.1406,-5.1406,-5.1406,-5.1406,-5.1406,-5.1406,-5.1406,-5.1365,-5.1343,-5.1321,-5.1218,-5.1131,-5.1094,-5.1044,-5.0946,-5.0835,-5.0835,-5.0773,-5.0712,0.0,0.0,0.0,0.0,0.0,0.0,0.0,-3.55,-3.55,-3.55,-3.55,-3.55,-3.55,-3.55,-3.55,-3.55,0.0,0.0,0.0,0.0,0.0,0.0,0.0,0.0,0.0,-3.5814,-3.5901,-3.5901,-3.5973,-3.5996,-3.5996,-3.5996,-3.5996,-3.5996,-3.5996,-3.5996,0.0,0.0,0.0,0.0,0.0,0.0,-3.7402,0.0,0.0,0.0,0.0,0.0,0.0,0.0,0.0,0.0,0.0,0.0,0.0,0.0,-4.1149,-4.1083,0.0,-4.1149,-4.1078,-4.1078,-4.1149,0.0,0.0,0.0,-4.1191,-4.1191,-4.1191,-4.1191,-4.1191,-4.1191,-4.1758,-4.3437,-4.3691,-4.4316,0.0,0.0,0.0,-4.9258,0.0,0.0,0.0,-5.1406,-5.1406,-5.1406,-5.1406,-5.1406,-5.1406,-5.1406,-5.1406,-5.1406,-5.1406,-5.1406,-5.1406,-5.1406,-5.1406,-5.1406,-5.1406,-5.1406,-5.1406,-5.1406,-5.1406,-5.1406,-5.1406,-5.1406,0.0,-5.1318,-5.1242,-5.1199,-5.1147,-5.1069,-5.0972,-5.0972,-5.0894,-5.0793,0.0,0.0,0.0,0.0,0.0,0.0,0.0,0.0,0.0,0.0,-3.55,-3.55,-3.55,-3.55,-3.5507,0.0,0.0,0.0,0.0,0.0,0.0,0.0,0.0,0.0,0.0,-3.5843,-3.5907,-3.5907,-3.5973,-3.5996,-3.5996,-3.5996,-3.5996,-3.5996,-3.5996,-3.5996,-3.5996,-3.5996,-3.5996,-3.5996,-3.5996,-3.6484,0.0,0.0,0.0,0.0,0.0,0.0,0.0,0.0,0.0,0.0,0.0,0.0,0.0,0.0,0.0,0.0,0.0,-4.1191,0.0,0.0,0.0,0.0,0.0,0.0,0.0,-4.1191,-4.1191,-4.1191,-4.1191,-4.1191,-4.1758,-4.3437,-4.3691,-4.4316,0.0,-4.7109,0.0,0.0,-5.0879,0.0,-5.1406,-5.1406,-5.1406,-5.1406,-5.1406,-5.1406,-5.1406,-5.1406,-5.1406,-5.1406,-5.1406,-5.1406,-5.1406,-5.1406,-5.1406,-5.1406,-5.1406,-5.1406,-5.1406,-5.1406,-5.1406,-5.1406,-5.1406,-5.1406,-5.1406,-5.1406,-5.1322,-5.1208,-5.1208,-5.1164,-5.1103,-5.1103,-5.1039,-5.0911,0.0,0.0,0.0,0.0,0.0,0.0,0.0,0.0,0.0,0.0,-3.55,-3.55,-3.55,-3.55,-3.5515,0.0,0.0,0.0,0.0,0.0,0.0,0.0,0.0,0.0,0.0,-3.5926,-3.5974,-3.5974,-3.5996,-3.5996,-3.5996,-3.5996,-3.5996,-3.5996,-3.5996,-3.5996,-3.5996,-3.5996,-3.5996,-3.5996,-3.5996,-3.6113,0.0,0.0,0.0,0.0,-4.0644,-4.1191,0.0,0.0,0.0,0.0,0.0,0.0,0.0,0.0,-4.1191,-4.1191,-4.1191,0.0,-4.1191,-4.1191,-4.1191,-4.1191,0.0,0.0,0.0,0.0,0.0,0.0,0.0,-4.1191,-4.1758,-4.3437,-4.3691,-4.4316,-4.6055,0.0,0.0,-4.916,-5.0508,-5.1406,-5.1406,-5.1406,-5.1406,-5.1406,-5.1406,-5.1406,-5.1406,-5.1406,-5.1406,-5.1406,-5.1406,-5.1406,-5.1406,-5.1406,-5.1406,-5.1406,-5.1406,-5.1406,-5.1406,-5.1406,-5.1406,-5.1406,-5.1406,-5.1406,-5.1406,-5.1406,-5.1386,-5.1345,-5.1345,-5.1288,-5.1177,-5.1177,-5.1117,-5.1045,0.0,0.0,0.0,0.0,0.0,0.0,0.0,0.0,0.0,0.0,0.0,0.0,0.0,0.0,0.0,0.0,0.0,0.0,0.0,0.0,0.0,0.0,0.0,0.0,-3.5947,-3.5975,-3.5996,-3.5996,-3.5996,-3.5996,-3.5996,-3.5996,-3.5996,-3.5996,-3.5996,-3.5996,-3.5996,-3.5996,-3.5996,-3.5996,-3.5996,0.0,0.0,0.0,0.0,0.0,-4.0566,-4.1191,0.0,-4.1191,-4.1191,-4.1191,0.0,0.0,0.0,0.0,-4.1191,-4.1191,-4.1191,-4.1191,-4.1191,-4.1191,-4.1191,-4.1191,0.0,0.0,0.0,0.0,0.0,0.0,0.0,0.0,-4.2187,-4.3496,-4.4043,0.0,0.0,0.0,-4.8906,-4.8906,-5.0371,-5.1406,0.0,-5.1406,-5.1406,-5.1406,-5.1406,-5.1406,-5.1406,-5.1406,-5.1406,-5.1406,-5.1406,-5.1406,-5.1406,-5.1406,-5.1406,-5.1406,-5.1406,-5.1406,-5.1406,-5.1406,-5.1406,-5.1406,-5.1406,-5.1406,-5.1406,-5.1406,-5.1406,-5.1406,-5.1406,-5.1365,-5.1295,-5.1295,-5.1225,-5.1145,0.0,0.0,0.0,0.0,0.0,0.0,0.0,0.0,0.0,0.0,0.0,0.0,0.0,0.0,0.0,0.0,0.0,0.0,0.0,0.0,0.0,0.0,0.0,-3.5945,-3.5996,-3.5996,-3.5996,-3.5996,-3.5996,-3.5996,-3.5996,-3.5996,-3.5996,-3.5996,-3.5996,-3.5996,-3.5996,-3.5996,-3.5996,-3.5996,-3.5996,0.0,0.0,0.0,0.0,0.0,0.0,0.0,0.0,-4.1191,-4.1191,-4.1191,-4.1191,0.0,0.0,0.0,0.0,0.0,-4.1191,-4.1191,-4.1191,-4.1191,-4.1191,-4.1191,0.0,0.0,0.0,0.0,0.0,0.0,0.0,-4.1933,0.0,0.0,0.0,0.0,-4.6191,-4.7695,-4.875,-4.8887,-5.0273,0.0,-5.1387,-5.1406,-5.1406,-5.1406,-5.1406,-5.1406,-5.1406,-5.1406,-5.1406,-5.1406,-5.1406,-5.1406,-5.1406,-5.1406,-5.1406,-5.1406,-5.1406,-5.1406,-5.1406,-5.1406,-5.1406,-5.1406,-5.1406,-5.1406,-5.1406,-5.1406,-5.1406,-5.1406,-5.1406,-5.1406,-5.1406,-5.1406,-5.1322,-5.1234,0.0,0.0,0.0,0.0,0.0,0.0,0.0,0.0,0.0,0.0,0.0,0.0,0.0,0.0,0.0,0.0,0.0,0.0,0.0,0.0,0.0,0.0,-3.5976,-3.5996,-3.5996,-3.5996,-3.5996,-3.5996,-3.5996,-3.5996,-3.5996,-3.5996,-3.5996,-3.5996,-3.5996,-3.5996,-3.5996,-3.5996,-3.5996,-3.5996,-3.5996,0.0,0.0,0.0,0.0,0.0,0.0,0.0,0.0,-4.1191,-4.1191,-4.1191,-4.1191,0.0,0.0,0.0,0.0,0.0,-4.1191,-4.1191,-4.1191,-4.1191,-4.1191,-4.1191,0.0,0.0,0.0,0.0,0.0,0.0,0.0,-4.2324,-4.293,0.0,0.0,-4.6152,0.0,0.0,-4.8066,-4.8808,0.0,-5.0644,-5.1328,-5.1406,-5.1406,-5.1406,-5.1406,-5.1406,-5.1406,-5.1406,-5.1406,-5.1406,-5.1406,-5.1406,-5.1406,-5.1406,-5.1406,-5.1406,-5.1406,-5.1406,-5.1406,-5.1406,-5.1406,-5.1406,-5.1406,-5.1406,-5.1406,-5.1406,-5.1406,-5.1406,-5.1406,-5.1406,-5.1406,-5.1406,-5.1386,-5.1345,0.0,0.0,0.0,0.0,0.0,0.0,0.0,0.0,0.0,0.0,0.0,0.0,0.0,0.0,0.0,0.0,0.0,0.0,0.0,0.0,0.0,-3.5996,-3.5996,-3.5996,-3.5996,-3.5996,-3.5996,-3.5996,-3.5996,-3.5996,-3.5996,-3.5996,-3.5996,-3.5996,-3.5996,-3.5996,-3.5996,-3.5996,-3.5996,-3.5996,0.0,0.0,0.0,0.0,0.0,0.0,0.0,0.0,0.0,0.0,-4.1191,-4.1191,-4.1191,0.0,0.0,0.0,0.0,0.0,-4.1191,-4.1191,-4.1191,-4.1191,-4.1191,-4.1191,0.0,0.0,0.0,0.0,0.0,0.0,0.0,0.0,-4.3672,-4.543,0.0,-4.6308,-4.6308,-4.7051,-4.793,0.0,0.0,-5.0527,-5.1328,-5.1406,-5.1406,-5.1406,-5.1406,-5.1406,-5.1406,-5.1406,-5.1406,-5.1406,-5.1406,-5.1406,-5.1406,-5.1406,-5.1406,-5.1406,-5.1406,-5.1406,-5.1406,-5.1406,-5.1406,-5.1406,-5.1406,-5.1406,-5.1406,-5.1406,-5.1406,-5.1406,-5.1406,-5.1406,-5.1406,-5.1406,-5.1406,-5.1386,0.0,0.0,0.0,0.0,0.0,0.0,0.0,0.0,0.0,0.0,0.0,0.0,0.0,0.0,0.0,0.0,0.0,0.0,0.0,0.0,-3.5996,-3.5996,-3.5996,-3.5996,-3.5996,-3.5996,-3.5996,-3.5996,-3.5996,-3.5996,-3.5996,-3.5996,-3.5996,-3.5996,-3.5996,-3.5996,-3.5996,-3.5996,-3.5996,-3.5996,0.0,0.0,0.0,0.0,0.0,0.0,0.0,0.0,0.0,0.0,0.0,0.0,0.0,0.0,0.0,-4.1191,-4.1191,-4.1191,-4.1191,-4.1191,-4.1191,-4.1191,0.0,0.0,0.0,0.0,0.0,0.0,0.0,0.0,0.0,-4.3574,0.0,-4.6074,-4.6308,-4.6308,-4.6308,-4.6875,-4.7695,-4.8769,-4.9492,-5.0293,-5.1308,-5.1406,-5.1406,-5.1406,-5.1406,-5.1406,-5.1406,-5.1406,-5.1406,-5.1406,-5.1406,-5.1406,-5.1406,-5.1406,-5.1406,-5.1406,-5.1406,-5.1406,-5.1406,-5.1406,-5.1406,-5.1406,-5.1406,-5.1406,-5.1406,-5.1406,-5.1406,-5.1406,-5.1406,-5.1406,-5.1406,-5.1406,-5.1406,-5.1386,0.0,0.0,0.0,0.0,0.0,0.0,0.0,0.0,0.0,0.0,0.0,0.0,0.0,0.0,0.0,0.0,0.0,0.0,0.0,0.0,-3.5996,-3.5996,-3.5996,-3.5996,-3.5996,-3.5996,-3.5996,-3.5996,-3.5996,-3.5996,-3.5996,-3.5996,-3.5996,-3.5996,-3.5996,-3.5996,-3.5996,-3.5996,-3.5996,-3.5996,-3.5996,0.0,0.0,0.0,0.0,0.0,0.0,0.0,0.0,0.0,0.0,0.0,0.0,0.0,-4.1191,-4.1191,-4.1191,-4.1191,-4.1191,-4.1191,-4.1191,-4.1191,-4.1191,0.0,-4.1191,-4.1191,0.0,-4.1191,0.0,0.0,0.0,-4.498,-4.6152,-4.6289,-4.6308,-4.6308,-4.6308,0.0,-4.7012,-4.8691,-4.8965,-4.9629,-5.123,-5.1406,-5.1406,-5.1406,-5.1406,-5.1406,-5.1406,-5.1406,-5.1406,-5.1406,-5.1406,-5.1406,-5.1406,-5.1406,-5.1406,-5.1406,-5.1406,-5.1406,-5.1406,-5.1406,-5.1406,-5.1406,-5.1406,-5.1406,-5.1406,-5.1406,-5.1406,-5.1406,-5.1406,-5.1406,-5.1406,-5.1406,-5.1406,-5.1406,0.0,0.0,0.0,0.0,0.0,0.0,0.0,0.0,0.0,0.0,0.0,0.0,0.0,0.0,0.0,0.0,0.0,0.0,0.0,0.0,-3.5996,-3.5996,-3.5996,-3.5996,-3.5996,-3.5996,-3.5996,-3.5996,-3.5996,-3.5996,-3.5996,-3.5996,-3.5996,-3.5996,-3.5996,-3.5996,-3.5996,-3.5996,-3.5996,-3.5996,-3.5996,-3.5996,0.0,0.0,0.0,0.0,0.0,0.0,0.0,0.0,-4.1191,-4.1191,-4.1191,-4.1191,-4.1191,-4.1191,-4.1191,-4.1191,-4.1191,-4.1191,-4.1191,-4.1191,-4.1191,0.0,0.0,-4.1191,-4.1348,-4.1836,-4.2187,0.0,0.0,0.0,-4.6308,-4.6308,-4.6308,-4.6308,-4.6308,-4.6308,-4.6758,-4.7949,-4.8086,-4.8769,-5.0488,-5.0644,-5.0859,-5.1367,-5.1406,-5.1406,-5.1406,-5.1406,-5.1406,-5.1406,-5.1406,-5.1406,-5.1406,-5.1406,-5.1406,-5.1406,-5.1406,-5.1406,-5.1406,-5.1406,-5.1406,-5.1406,-5.1406,-5.1406,-5.1406,-5.1406,-5.1406,-5.1406,-5.1406,-5.1406,-5.1406,-5.1406,-5.1406,-5.1406,0.0,0.0,0.0,0.0,0.0,0.0,0.0,0.0,0.0,0.0,0.0,0.0,0.0,0.0,0.0,0.0,0.0,0.0,0.0,-3.5996,-3.5996,-3.5996,-3.5996,-3.5996,-3.5996,-3.5996,-3.5996,-3.5996,-3.5996,-3.5996,-3.5996,-3.5996,-3.5996,-3.5996,-3.5996,-3.5996,-3.5996,-3.5996,-3.5996,-3.5996,-3.5996,-3.5996,0.0,0.0,0.0,0.0,0.0,0.0,0.0,0.0,-4.1191,-4.1191,-4.1191,-4.1191,-4.1191,-4.1191,-4.1191,-4.1191,-4.1191,-4.1191,-4.1191,-4.1191,0.0,0.0,-4.1191,-4.1191,-4.1426,-4.2226,-4.2832,0.0,-4.5137,0.0,0.0,0.0,-4.6308,-4.6308,-4.6308,-4.6308,-4.6621,-4.75,-4.7598,-4.8183,-4.9648,-4.9785,-5.0019,-5.0566,-5.0605,-5.0605,-5.0605,-5.0605,-5.0742,-5.1016,-5.1016,-5.1133,-5.1406,-5.1406,-5.1406,-5.1406,-5.1406,-5.1406,-5.1406,-5.1406,-5.1406,-5.1406,-5.1406,-5.1406,-5.1406,-5.1406,-5.1406,-5.1406,-5.1406,-5.1406,-5.1406,-5.1406,-5.1406,-5.1406,0.0,0.0,0.0,0.0,0.0,0.0,0.0,0.0,0.0,0.0,0.0,0.0,0.0,0.0,0.0,0.0,0.0,0.0,-3.5996,-3.5996,-3.5996,-3.5996,-3.5996,-3.5996,-3.5996,-3.5996,-3.5996,-3.5996,-3.5996,-3.5996,-3.5996,-3.5996,-3.5996,-3.5996,-3.5996,-3.5996,-3.5996,-3.5996,-3.5996,-3.5996,-3.5996,-3.5996,-3.6094,0.0,0.0,0.0,0.0,0.0,0.0,0.0,-4.1191,-4.1191,-4.1191,-4.1191,-4.1191,-4.1191,-4.1191,-4.1191,-4.1191,-4.1191,-4.1191,0.0,0.0,0.0,-4.1191,-4.1211,-4.1445,-4.2266,-4.3808,-4.5273,-4.6133,-4.6308,0.0,-4.6308,-4.6308,-4.6308,-4.6308,-4.6308,-4.6621,-4.748,-4.7598,-4.793,-4.8808,-4.8887,-4.8887,-4.8906,-4.8906,-4.8906,-4.8906,-4.8906,-4.9297,-5.0156,-5.0195,-5.0566,-5.1367,-5.1387,-5.1387,-5.1387,-5.1387,-5.1387,-5.1406,-5.1406,-5.1406,-5.1406,-5.1406,-5.1406,-5.1406,-5.1406,-5.1406,-5.1406,-5.1406,-5.1406,-5.1406,-5.1406,-5.1406,-5.1406,0.0,0.0,0.0,0.0,0.0,0.0,0.0,0.0,0.0,0.0,0.0,0.0,0.0,0.0,0.0,0.0,0.0,0.0,-3.5996,-3.5996,-3.5996,-3.5996,-3.5996,-3.5996,-3.5996,-3.5996,-3.5996,-3.5996,-3.5996,-3.5996,-3.5996,-3.5996,-3.5996,-3.5996,-3.5996,-3.5996,-3.5996,-3.5996,-3.5996,-3.5996,-3.5996,-3.5996,-3.6094,0.0,0.0,0.0,0.0,0.0,0.0,0.0,0.0,0.0,-4.1191,-4.1191,-4.1191,-4.1191,-4.1191,-4.1191,-4.1191,-4.1191,0.0,-4.1191,0.0,0.0,0.0,-4.1641,0.0,0.0,-4.5137,-4.5996,-4.625,-4.6308,0.0,-4.6308,-4.6308,-4.6308,-4.6308,-4.6308,-4.6406,-4.6641,-4.6699,-4.7031,-4.7891,-4.7988,-4.8242,-4.8848,-4.8906,-4.8906,-4.8906,-4.8906,-4.9023,-4.9277,-4.9297,-4.9394,-4.9648,-4.9648,-4.9941,-5.0566,-5.0566,-5.0859,-5.1406,-5.1406,-5.1406,-5.1406,-5.1406,-5.1406,-5.1406,-5.1406,-5.1406,-5.1406,-5.1406,-5.1406,-5.1406,-5.1406,-5.1406,-5.1406,0.0,0.0,0.0,0.0,0.0,0.0,0.0,0.0,0.0,0.0,0.0,0.0,0.0,0.0,0.0,0.0,0.0,0.0,0.0,0.0,-3.5996,-3.5996,-3.5996,-3.5996,-3.5996,-3.5996,-3.5996,-3.5996,-3.5996,-3.5996,-3.5996,-3.5996,-3.5996,-3.5996,-3.5996,-3.5996,-3.5996,-3.5996,-3.5976,-3.5951,-3.5951,-3.5927,-3.5936,0.0,0.0,0.0,0.0,0.0,0.0,0.0,0.0,0.0,-4.0176,0.0,-4.0176,-4.0176,-4.0176,-4.0176,-4.0176,-4.043,0.0,-4.0684,-4.0937,-4.1367,-4.2031,0.0,0.0,0.0,-4.5683,-4.6308,-4.6308,-4.6308,0.0,-4.6308,-4.6308,-4.6308,-4.6308,-4.6308,-4.6308,-4.6308,-4.6308,-4.6504,-4.7031,-4.707,-4.7305,-4.7832,-4.7871,-4.7871,-4.7871,-4.7871,-4.8027,-4.8379,-4.8379,-4.8555,-4.8906,-4.8906,-4.916,-4.9687,-4.9687,-4.9941,-5.043,-5.1094,-5.1406,-5.1406,-5.1406,-5.1406,-5.1406,-5.1406,-5.1406,-5.1406,-5.1406,-5.1406,-5.1406,-5.1406,-5.1406,-5.1406,0.0,0.0,0.0,0.0,0.0,0.0,0.0,0.0,0.0,0.0,-3.5996,0.0,0.0,0.0,0.0,0.0,0.0,0.0,0.0,0.0,-3.5996,-3.5996,-3.5996,-3.5996,-3.5996,-3.5996,-3.5996,-3.5996,-3.5996,-3.5996,-3.5996,-3.5996,-3.5996,-3.5996,-3.5996,-3.5996,-3.5996,-3.5996,-3.5951,-3.5901,-3.5901,-3.5812,-3.5707,-3.5707,0.0,0.0,0.0,0.0,0.0,0.0,0.0,0.0,-3.8594,-3.8594,-3.8594,-3.8594,-3.8594,-3.8594,-3.8594,0.0,0.0,-3.9902,-4.0566,0.0,-4.332,-4.3691,-4.3965,-4.4922,0.0,-4.6308,-4.6308,-4.6308,-4.6308,-4.6308,-4.6308,-4.6308,-4.6308,-4.6308,-4.6308,-4.6308,-4.6308,-4.6308,-4.6308,-4.6308,-4.6308,-4.6308,-4.6308,-4.6308,-4.6308,-4.6308,-4.666,-4.7461,-4.748,-4.7851,-4.8652,-4.8652,-4.8691,-4.8789,-4.8789,-4.8828,-4.8945,-5.0566,-5.1328,-5.1406,-5.1406,-5.1406,-5.1406,-5.1406,-5.1406,-5.1406,-5.1406,-5.1406,-5.1406,-5.1406,-5.1406,-5.1406,0.0,0.0,0.0,0.0,0.0,0.0,0.0,0.0,0.0,0.0,0.0,0.0,0.0,0.0,0.0,0.0,0.0,0.0,0.0,0.0,-3.5996,-3.5996,-3.5996,-3.5996,-3.5996,-3.5996,-3.5996,-3.5996,-3.5996,-3.5996,-3.5996,-3.5996,-3.5996,-3.5996,-3.5996,-3.5996,-3.5996,-3.5996,-3.5951,-3.5901,-3.5901,-3.5812,-3.5707,-3.5707,-3.6236,0.0,0.0,0.0,0.0,0.0,0.0,0.0,-3.8573,-3.8594,-3.8594,-3.8594,-3.8594,-3.8594,-3.8594,-3.9238,0.0,0.0,-4.0566,-4.1641,-4.332,-4.3691,-4.4141,-4.5703,-4.6172,-4.6308,-4.6308,-4.6308,-4.6308,-4.6308,-4.6308,-4.6308,-4.6308,-4.6308,-4.6308,-4.6308,-4.6308,-4.6308,-4.6308,-4.6308,-4.6308,-4.6308,-4.6308,-4.6308,-4.6308,-4.6308,-4.6387,-4.6562,-4.6582,-4.668,-4.6855,-4.6855,-4.7207,-4.7871,-4.7871,-4.8242,-4.8945,-4.998,-5.0801,-5.1406,-5.1406,-5.1406,-5.1406,-5.1406,-5.1406,-5.1406,-5.1406,-5.1406,-5.1406,-5.1406,-5.1406,-5.1406,0.0,0.0,0.0,0.0,0.0,0.0,0.0,0.0,0.0,0.0,0.0,0.0,0.0,0.0,0.0,0.0,0.0,0.0,0.0,0.0,0.0,-3.5996,-3.5996,-3.5996,-3.5996,-3.5996,-3.5996,-3.5996,-3.5996,-3.5996,0.0,0.0,-3.5996,-3.5996,-3.5996,-3.5996,-3.5996,-3.5972,-3.5892,-3.5802,-3.5762,-3.5717,-3.565,-3.565,-3.5959,-3.6398,-3.6454,0.0,0.0,0.0,0.0,0.0,0.0,0.0,-3.7363,-3.7363,-3.7363,-3.7363,-3.7363,0.0,0.0,-4.0312,0.0,-4.1523,-4.2793,-4.3398,-4.4082,-4.5391,-4.6016,-4.6308,-4.6308,-4.6308,-4.6308,-4.6308,-4.6308,-4.6308,-4.6308,-4.6308,-4.6308,-4.6308,-4.6308,-4.6308,-4.6308,-4.6308,-4.6308,-4.6308,-4.6308,-4.6308,-4.6308,-4.6308,-4.6308,-4.6308,-4.6308,-4.6308,-4.6308,-4.6308,-4.6523,-4.6973,-4.6973,-4.7422,-4.8301,-4.918,-5.0039,-5.082,-5.082,-5.1035,-5.1406,-5.1406,-5.1406,-5.1406,-5.1406,-5.1406,-5.1406,-5.1406,-5.1406,-5.1406,0.0,0.0,0.0,0.0,0.0,0.0,0.0,0.0,0.0,0.0,0.0,0.0,0.0,0.0,0.0,0.0,0.0,0.0,0.0,0.0,0.0,0.0,-3.5996,-3.5996,-3.5996,-3.5996,-3.5996,-3.5996,-3.5996,0.0,0.0,0.0,0.0,-3.5996,-3.5995,-3.5975,-3.5975,-3.589,-3.5802,-3.57,-3.5648,-3.5626,-3.5626,-3.5626,-3.5638,-3.5693,-3.5829,-3.5862,-3.5864,-3.595,0.0,0.0,0.0,0.0,-3.5996,-3.5996,-3.5996,-3.5996,0.0,0.0,-3.9023,-4.0762,-4.1191,0.0,-4.2226,-4.2969,-4.3711,-4.4609,-4.5586,-4.6308,-4.6308,-4.6308,-4.6308,-4.6308,-4.6308,-4.6308,-4.6308,-4.6308,-4.6308,-4.6308,-4.6308,-4.6308,-4.6308,-4.6308,-4.6308,-4.6308,-4.6308,-4.6308,-4.6308,-4.6308,-4.6308,-4.6308,-4.6308,-4.6308,-4.6308,-4.6308,-4.6308,-4.6308,-4.6308,-4.668,-4.7402,-4.8125,-4.9004,-4.998,-4.998,-5.0351,-5.0976,-5.0976,-5.0976,-5.0976,-5.0976,-5.0976,-5.0976,-5.0976,-5.0976,-5.0976,0.0,0.0,0.0,0.0,0.0,0.0,0.0,0.0,0.0,0.0,0.0,0.0,0.0,0.0,0.0,0.0,0.0,0.0,0.0,0.0,0.0,0.0,-3.5996,-3.5996,-3.5996,-3.5996,-3.5996,-3.5996,0.0,0.0,0.0,0.0,0.0,-3.5996,0.0,-3.5911,-3.5908,-3.5775,-3.5717,-3.5703,-3.5693,-3.5686,-3.5686,-3.5686,-3.5659,-3.5616,-3.5709,-3.5687,-3.5676,-3.5841,-3.5911,0.0,0.0,0.0,-3.5996,-3.5996,-3.5996,-3.5996,0.0,0.0,-3.9023,0.0,-4.1191,-4.1406,0.0,0.0,-4.2812,0.0,-4.5176,-4.6308,-4.6308,-4.6308,-4.6308,-4.6308,-4.6308,-4.6308,-4.6308,-4.6308,-4.6308,-4.6308,-4.6308,-4.6308,-4.6308,-4.6308,-4.6308,-4.6308,-4.6308,-4.6308,-4.6308,-4.6308,-4.6308,-4.6308,-4.6308,-4.6308,-4.6308,-4.6308,-4.6308,-4.6308,-4.6308,-4.6367,-4.6484,-4.6582,-4.7539,-4.9062,-4.9062,-4.9121,-4.9238,-4.9238,-4.9238,-4.9238,-4.9238,-4.9238,-4.9238,-4.9238,-4.9238,-4.9238,0.0,0.0,0.0,0.0,0.0,0.0,0.0,0.0,0.0,0.0,0.0,0.0,0.0,0.0,0.0,0.0,0.0,0.0,0.0,0.0,0.0,0.0,-3.5996,-3.5996,-3.5996,-3.5996,-3.5996,-3.5996,0.0,0.0,0.0,-3.5951,-3.5946,0.0,0.0,0.0,0.0,-3.572,-3.5675,-3.5638,-3.5638,-3.5638,-3.5638,0.0,0.0,0.0,0.0,0.0,-3.5679,-3.5836,-3.5901,-3.591,-3.5975,0.0,0.0,0.0,-3.5996,0.0,-3.6601,-3.7637,-3.8906,0.0,-4.084,-4.1289,-4.1641,0.0,-4.2519,-4.2891,-4.3965,-4.498,-4.5488,-4.5976,-4.6308,-4.6308,-4.6308,-4.6308,-4.6308,-4.6308,-4.6308,-4.6308,-4.6308,-4.6308,-4.6308,-4.6308,-4.6308,-4.6308,-4.6308,-4.6308,-4.6308,-4.6308,-4.6308,-4.6308,-4.6308,-4.6308,-4.6308,-4.6308,-4.6308,-4.6308,-4.6308,-4.6308,-4.6308,-4.6308,-4.6973,-4.8164,-4.8164,-4.8457,-4.8906,-4.8906,-4.8906,-4.8906,-4.8906,-4.8906,-4.8906,-4.8906,-4.8906,-4.8906,0.0,0.0,0.0,0.0,0.0,0.0,0.0,0.0,0.0,0.0,0.0,0.0,0.0,0.0,0.0,0.0,0.0,0.0,0.0,0.0,0.0,0.0,0.0,-3.5996,-3.5996,-3.5996,-3.5996,0.0,0.0,0.0,-3.5974,-3.5887,-3.5836,0.0,-3.5819,-3.5768,0.0,0.0,0.0,0.0,0.0,0.0,0.0,0.0,0.0,0.0,0.0,0.0,0.0,0.0,-3.5873,-3.5908,-3.5951,-3.5995,0.0,0.0,0.0,0.0,0.0,0.0,-3.8535,-3.9629,-4.0391,-4.0937,0.0,0.0,-4.2109,0.0,-4.2773,-4.3574,-4.4219,-4.5058,-4.5644,-4.5644,-4.5644,-4.5644,-4.5644,-4.5644,-4.5644,-4.5644,-4.582,-4.5976,-4.5976,-4.6172,-4.6308,-4.6308,-4.6308,-4.6308,-4.6308,-4.6308,-4.6308,-4.6308,-4.6308,-4.6308,-4.6308,-4.6308,-4.6308,-4.6308,-4.6308,-4.6308,-4.6308,-4.6308,-4.6641,-4.7266,-4.7266,-4.7637,-4.8242,-4.8242,-4.8242,-4.8242,-4.8242,-4.8242,-4.8242,-4.8242,-4.8242,-4.8242,0.0,0.0,0.0,0.0,0.0,0.0,0.0,0.0,0.0,0.0,0.0,0.0,0.0,0.0,-3.5996,-3.5996,0.0,0.0,0.0,0.0,0.0,0.0,0.0,0.0,0.0,-3.5996,0.0,0.0,0.0,0.0,-3.5905,-3.5769,-3.5683,-3.5611,-3.5611,-3.5606,-3.5591,0.0,0.0,0.0,0.0,0.0,0.0,0.0,0.0,0.0,0.0,0.0,0.0,0.0,0.0,0.0,-3.5905,-3.5948,-3.5996,0.0,0.0,0.0,0.0,-3.7324,0.0,-3.9473,0.0,0.0,0.0,0.0,-4.1269,-4.1269,-4.1914,-4.248,-4.2539,-4.3242,-4.3848,-4.3848,-4.3848,-4.3848,-4.3848,-4.3848,-4.3848,-4.3848,-4.4551,-4.5078,-4.5078,-4.582,-4.6308,-4.6308,-4.6308,-4.6308,-4.6308,-4.6308,-4.6308,-4.6308,-4.6308,-4.6308,-4.6308,-4.6308,-4.6308,-4.6308,-4.6308,-4.6308,-4.6308,-4.6308,-4.6328,-4.6367,-4.6367,-4.6387,-4.6445,-4.6445,-4.6445,-4.6445,-4.6445,-4.6445,-4.6445,-4.6445,-4.6445,-4.6445,0.0,0.0,0.0,0.0,0.0,0.0,0.0,0.0,0.0,0.0,0.0,0.0,0.0,-3.5996,-3.5996,-3.5996,-3.5996,0.0,0.0,0.0,0.0,0.0,0.0,0.0,0.0,0.0,0.0,0.0,0.0,-3.5867,-3.5766,-3.5675,-3.5616,-3.5611,-3.5611,-3.5577,-3.554,-3.557,0.0,0.0,0.0,0.0,0.0,0.0,0.0,0.0,0.0,0.0,0.0,0.0,0.0,0.0,0.0,0.0,0.0,0.0,0.0,0.0,0.0,0.0,0.0,-3.8086,-3.9062,-3.998,-4.0293,-4.0801,-4.1191,-4.1191,-4.1426,-4.1621,-4.1621,-4.2754,-4.3691,-4.3691,-4.3691,-4.3691,-4.3691,-4.3691,-4.3691,-4.3691,-4.3984,-4.418,-4.418,-4.4453,-4.4629,-4.4629,-4.4629,-4.4629,-4.4629,-4.4629,-4.4883,-4.5449,-4.5469,-4.5723,-4.6289,-4.6308,-4.6308,-4.6308,-4.6308,-4.6308,-4.6308,-4.6308,-4.6308,-4.6308,-4.6308,-4.6308,-4.6308,-4.6308,-4.6308,-4.6308,-4.6308,-4.6308,-4.6308,-4.6308,-4.6308,-4.6308,0.0,0.0,0.0,0.0,0.0,0.0,0.0,0.0,0.0,0.0,0.0,0.0,0.0,0.0,-3.5996,-3.5996,-3.5996,-3.5996,-3.5996,-3.5996,0.0,0.0,0.0,0.0,0.0,0.0,0.0,0.0,0.0,0.0,0.0,-3.5605,-3.5574,-3.5574,-3.5574,-3.5534,0.0,0.0,0.0,-3.5494,0.0,0.0,-3.55,0.0,0.0,0.0,0.0,0.0,0.0,0.0,0.0,0.0,0.0,0.0,0.0,0.0,0.0,0.0,-3.5972,0.0,0.0,0.0,0.0,-3.918,-3.9766,0.0,-4.0859,-4.1133,-4.1191,-4.1191,-4.1191,-4.2109,-4.2851,-4.2851,-4.2851,-4.2851,-4.2851,-4.2851,-4.2851,-4.2851,-4.3105,-4.3262,-4.3262,-4.3535,-4.3691,-4.3691,-4.3691,-4.3691,-4.3691,-4.3691,-4.3965,-4.4551,-4.4551,-4.498,-4.5859,-4.5859,-4.6016,-4.6308,-4.6308,-4.6308,-4.6308,-4.6308,-4.6308,-4.6308,-4.6308,-4.6308,-4.6308,-4.6308,-4.6308,-4.6308,-4.6308,-4.6308,-4.6308,-4.6308,-4.6308,-4.6308,0.0,0.0,0.0,0.0,0.0,0.0,0.0,0.0,0.0,0.0,0.0,0.0,0.0,0.0,0.0,-3.5996,-3.5996,-3.5996,-3.5996,-3.5996,0.0,0.0,0.0,0.0,0.0,0.0,0.0,0.0,0.0,0.0,0.0,0.0,-3.55,-3.55,-3.55,-3.55,-3.55,0.0,-3.55,-3.55,0.0,-3.55,-3.55,0.0,0.0,0.0,-3.55,-3.55,0.0,-3.55,0.0,0.0,0.0,0.0,0.0,0.0,0.0,0.0,0.0,0.0,0.0,0.0,0.0,0.0,-3.9433,-3.9844,-4.0098,-4.0976,-4.1152,-4.1172,-4.1191,-4.1191,-4.1191,-4.1191,-4.1191,-4.1191,-4.1191,-4.1191,-4.1191,-4.1191,-4.1894,-4.2363,-4.2363,-4.3125,-4.3633,-4.3633,-4.3633,-4.3633,-4.3633,-4.3652,-4.3652,-4.3652,-4.3691,-4.4101,-4.4941,-4.4961,-4.5391,-4.6269,-4.6269,-4.6289,-4.6308,-4.6308,-4.6308,-4.6308,-4.6308,-4.6308,-4.6308,-4.6308,-4.6308,-4.6308,-4.6308,-4.6308,-4.6308,-4.6308,-4.6308,-4.6308,0.0,0.0,0.0,0.0,0.0,0.0,0.0,0.0,0.0,0.0,0.0,0.0,0.0,0.0,-3.5996,-3.5996,-3.5996,-3.5996,-3.5996,-3.5996,-3.5996,-3.5996,-3.5949,0.0,0.0,0.0,0.0,0.0,0.0,0.0,0.0,0.0,0.0,0.0,-3.55,-3.55,-3.55,-3.55,0.0,-3.55,-3.55,-3.55,0.0,0.0,0.0,0.0,0.0,-3.55,-3.55,0.0,-3.5515,-3.5534,0.0,0.0,0.0,0.0,0.0,0.0,-3.5758,0.0,0.0,0.0,0.0,0.0,-3.7688,-3.8323,-3.9065,-3.9944,-4.0192,-4.0449,-4.1074,-4.1191,-4.1191,-4.1191,-4.1191,-4.1191,-4.1191,-4.1191,-4.1191,-4.1191,-4.1406,-4.1523,-4.1523,-4.1758,-4.1894,0.0,-4.1894,-4.1894,-4.1894,-4.2441,-4.2754,-4.2754,-4.3379,-4.3828,-4.4062,-4.4062,-4.4492,-4.5351,-4.5351,-4.5683,-4.6308,-4.6308,-4.6308,-4.6308,-4.6308,-4.6308,-4.6308,-4.6308,-4.6308,-4.6308,-4.6308,-4.6308,-4.6308,-4.6308,-4.6308,-4.6308,0.0,0.0,0.0,0.0,0.0,0.0,0.0,0.0,0.0,0.0,0.0,0.0,0.0,0.0,0.0,-3.5996,-3.5996,-3.5996,-3.5996,-3.5996,-3.5995,-3.5951,-3.5916,-3.5873,0.0,0.0,0.0,0.0,0.0,0.0,-3.55,-3.55,0.0,0.0,0.0,0.0,0.0,0.0,0.0,0.0,-3.55,0.0,0.0,-3.55,-3.55,0.0,0.0,0.0,-3.6,-3.6,-3.5788,0.0,0.0,0.0,0.0,0.0,0.0,0.0,0.0,0.0,0.0,0.0,0.0,0.0,-3.692,-3.7466,-3.8131,-3.897,-3.9251,-3.9512,-4.0019,-4.0117,-4.0117,-4.0117,-4.0117,-4.0371,-4.1094,-4.1191,-4.1191,-4.1191,-4.1191,-4.1191,-4.1191,-4.1191,-4.1191,-4.1191,-4.1191,-4.1191,-4.1191,-4.1641,-4.1894,-4.1894,-4.2383,-4.2812,-4.3144,-4.3164,-4.3594,-4.4453,-4.4453,-4.4902,-4.5762,-4.5762,-4.5957,-4.6308,-4.6308,-4.6308,-4.6308,-4.6308,-4.6308,-4.6308,-4.6308,-4.6308,-4.6308,-4.6308,-4.6308,-4.6308,0.0,0.0,0.0,0.0,0.0,0.0,0.0,0.0,0.0,0.0,0.0,0.0,0.0,0.0,0.0,0.0,-3.5996,-3.5996,-3.5996,-3.5996,0.0,-3.5903,-3.5873,-3.5802,-3.5693,-3.5616,0.0,-3.5585,-3.5522,-3.55,-3.55,-3.55,0.0,0.0,0.0,0.0,0.0,0.0,0.0,-3.55,-3.55,-3.55,0.0,0.0,-3.5635,-3.5731,-3.6538,-3.6846,-3.6827,-3.6731,-3.6212,0.0,0.0,0.0,0.0,0.0,-3.5534,0.0,0.0,0.0,0.0,0.0,-3.5675,0.0,-3.6654,-3.6935,-3.7253,-3.8075,-3.8346,-3.8476,-3.8554,-3.8594,-3.8594,-3.8574,-3.8594,-3.9141,-4.0684,-4.0918,-4.0957,-4.1035,-4.1055,-4.1094,-4.1191,-4.1191,-4.1191,-4.1191,-4.1191,-4.1191,-4.1191,-4.1191,-4.1191,-4.1191,-4.1191,-4.1543,-4.2266,-4.2266,-4.2695,-4.3555,-4.3555,-4.4004,-4.4863,-4.4961,-4.543,-4.6152,-4.6269,-4.6308,-4.6308,-4.6308,-4.6308,-4.6308,-4.6308,-4.6308,-4.6308,-4.6308,-4.6308,-4.6308,0.0,0.0,0.0,0.0,0.0,0.0,0.0,0.0,0.0,0.0,0.0,0.0,0.0,0.0,0.0,0.0,-3.5996,-3.5996,-3.5996,-3.5948,-3.5911,-3.5901,-3.5735,-3.5654,-3.5631,-3.5544,-3.5515,-3.5515,-3.552,-3.55,-3.55,0.0,0.0,0.0,0.0,0.0,0.0,0.0,0.0,-3.55,-3.55,-3.55,-3.5577,-3.6212,-3.6462,-3.6577,-3.745,-3.7757,-3.7642,-3.6942,-3.6596,-3.6346,0.0,0.0,0.0,-3.55,0.0,0.0,0.0,0.0,0.0,0.0,-3.5547,0.0,-3.5746,-3.5847,-3.6157,-3.702,-3.7331,-3.7674,-3.8318,-3.8531,-3.8553,-3.846,-3.8531,-3.8711,-3.9062,-3.9101,-3.9375,-4.0078,-4.0156,-4.043,-4.1133,-4.1191,-4.1191,-4.1191,-4.1191,-4.1191,-4.1191,-4.1191,-4.1191,-4.1191,-4.1191,-4.1289,-4.1426,-4.1426,-4.1836,-4.2656,-4.2656,-4.3105,-4.3984,-4.4687,-4.5098,-4.5293,-4.5996,-4.6308,-4.6308,-4.6308,-4.6308,-4.6308,-4.6308,-4.6308,-4.6308,-4.6308,-4.6308,-4.6308,0.0,0.0,0.0,0.0,0.0,0.0,0.0,0.0,0.0,0.0,0.0,0.0,0.0,0.0,0.0,0.0,0.0,0.0,0.0,0.0,-3.5858,-3.5746,-3.5659,-3.5574,-3.5558,-3.5528,-3.55,-3.55,-3.55,-3.55,-3.55,0.0,0.0,0.0,0.0,0.0,0.0,0.0,-3.55,-3.55,-3.55,0.0,-3.6135,-3.6538,-3.6962,-3.7469,-3.8334,-3.8642,-3.8584,-3.8142,-3.7719,0.0,-3.6365,-3.6096,-3.6019,0.0,-3.55,-3.55,0.0,0.0,0.0,-3.55,-3.55,0.0,0.0,-3.5558,-3.5727,-3.6163,-3.6359,-3.6584,-3.6977,-3.7157,-3.7209,-3.7084,-3.7193,-3.7264,-3.716,-3.7982,-3.8769,-3.9199,-3.9258,-3.9414,-3.9863,-3.9902,-4.0078,-4.0527,-4.0547,-4.0742,-4.1172,-4.1191,-4.1191,-4.1191,-4.1191,-4.1191,-4.1191,-4.1191,-4.1406,-4.1797,-4.1797,-4.2246,-4.3066,-4.3496,-4.3945,-4.4394,-4.5273,-4.5644,-4.5683,-4.6113,-4.6308,-4.6308,-4.6308,-4.6308,-4.6308,-4.6308,-4.6308,-4.6308,-3.5996,0.0,0.0,0.0,0.0,0.0,0.0,0.0,0.0,0.0,0.0,0.0,0.0,0.0,0.0,0.0,0.0,0.0,0.0,0.0,0.0,0.0,-3.5585,-3.5564,-3.55,-3.55,-3.55,-3.55,-3.55,-3.55,-3.55,0.0,0.0,0.0,0.0,0.0,0.0,0.0,0.0,-3.5519,0.0,-3.6115,-3.6731,-3.7065,-3.7642,-3.8354,-3.9227,-3.9534,-3.9515,-3.9361,-3.8834,-3.8104,-3.7238,-3.6846,0.0,0.0,0.0,0.0,0.0,0.0,0.0,0.0,0.0,-3.55,0.0,0.0,0.0,-3.5588,-3.5639,-3.5678,0.0,0.0,0.0,-3.5693,0.0,0.0,0.0,-3.7079,0.0,-3.8319,-3.834,-3.8418,-3.8574,-3.8594,-3.8887,-3.9609,-3.9648,-4.0039,-4.0898,-4.0957,-4.1035,-4.1191,-4.1191,-4.1191,-4.1191,-4.1191,-4.1191,-4.1191,-4.1191,-4.1543,-4.2168,-4.2324,-4.2773,-4.3496,-4.4375,-4.4746,-4.4824,-4.5683,-4.6055,-4.6074,-4.623,-4.6308,-4.6308,-4.6308,-4.6308,-4.6308,-3.5996,-3.5996,0.0,0.0,0.0,0.0,0.0,0.0,0.0,0.0,0.0,0.0,0.0,0.0,0.0,0.0,0.0,0.0,-3.5901,0.0,0.0,0.0,0.0,-3.5501,-3.55,-3.55,-3.55,-3.55,-3.55,-3.55,0.0,0.0,0.0,0.0,-3.55,0.0,0.0,0.0,-3.55,0.0,-3.6269,-3.6615,0.0,-3.8411,-3.9073,-3.9265,-4.0073,-4.0362,-4.0246,0.0,-3.9227,-3.8996,0.0,-3.7315,-3.6673,-3.6596,0.0,0.0,0.0,0.0,0.0,0.0,-3.55,0.0,-3.55,0.0,-3.5515,-3.5515,0.0,-3.5611,-3.5611,0.0,0.0,0.0,0.0,0.0,-3.5707,-3.5992,-3.6495,-3.7277,-3.7417,-3.7754,-3.8535,-3.8594,-3.8633,-3.873,-3.875,-3.9121,-4.0,-4.0059,-4.0391,-4.1172,-4.1191,-4.1191,-4.1191,-4.1191,-4.1191,-4.1191,-4.1191,-4.125,-4.1367,-4.207,-4.2441,-4.2598,-4.3476,-4.3848,-4.3926,-4.4785,-4.5156,-4.5215,-4.5996,-4.6308,-4.6308,-4.6308,-4.6308,-4.6308,-3.5996,-3.5996,0.0,0.0,0.0,0.0,0.0,0.0,0.0,0.0,0.0,0.0,0.0,0.0,0.0,0.0,0.0,-3.5774,0.0,0.0,0.0,0.0,0.0,0.0,-3.55,-3.55,-3.55,-3.55,-3.55,0.0,0.0,0.0,0.0,0.0,-3.55,0.0,-3.55,0.0,-3.5769,0.0,0.0,-3.7757,0.0,-3.9015,-3.9592,-4.0035,-4.0381,-4.0496,-4.0458,0.0,-3.9996,0.0,0.0,0.0,0.0,-3.7,0.0,0.0,0.0,0.0,0.0,0.0,0.0,0.0,-3.55,0.0,-3.55,-3.55,0.0,0.0,0.0,0.0,0.0,0.0,-3.563,-3.5663,0.0,0.0,-3.5946,-3.6387,0.0,0.0,-3.7051,-3.709,-3.7305,-3.7812,-3.7851,-3.8223,-3.9101,-3.9141,-3.9551,-4.043,-4.0449,-4.0684,-4.1191,-4.1127,-4.1081,-4.1081,-4.1017,-4.0962,-4.0983,-4.1404,-4.1558,-4.1512,-4.2479,-4.2898,-4.2956,-4.3835,-4.4214,-4.4336,-4.5215,-4.5859,-4.6308,-4.6308,-4.6308,-4.6308,0.0,0.0,0.0,0.0,0.0,0.0,0.0,0.0,0.0,0.0,0.0,0.0,-3.5928,-3.5866,0.0,0.0,-3.5723,-3.565,0.0,0.0,-3.5558,0.0,0.0,0.0,0.0,0.0,-3.55,-3.55,0.0,0.0,0.0,0.0,0.0,0.0,0.0,-3.55,-3.55,0.0,-3.5962,-3.6769,-3.7642,-3.8642,-3.9631,-3.9631,-3.9996,-4.0496,-4.0496,-4.0496,-4.0496,-4.0496,-4.0496,0.0,-3.9804,-3.9477,-3.8988,0.0,0.0,0.0,-3.5712,0.0,0.0,0.0,0.0,0.0,0.0,0.0,0.0,0.0,-3.55,0.0,0.0,0.0,0.0,0.0,0.0,-3.5626,0.0,-3.5611,0.0,-3.5808,0.0,0.0,0.0,-3.5952,-3.6228,-3.6872,-3.6933,-3.7324,-3.8162,-3.822,-3.8611,-3.9451,-3.9699,-4.0129,-4.0778,-4.0883,-4.0952,-4.093,-4.0854,-4.0797,-4.0801,-4.0908,-4.0883,-4.084,-4.1574,-4.1891,-4.1969,-4.2829,-4.3224,-4.3348,-4.4228,-4.495,-4.5577,-4.6093,-4.6308,-4.6308,-3.5877,-3.597,0.0,0.0,0.0,0.0,0.0,0.0,0.0,0.0,0.0,0.0,0.0,0.0,0.0,0.0,0.0,-3.5596,-3.5611,0.0,-3.5507,0.0,0.0,-3.55,0.0,0.0,0.0,0.0,0.0,0.0,0.0,0.0,0.0,0.0,-3.55,-3.55,-3.55,-3.55,-3.5962,-3.6769,-3.7642,-3.8988,-4.0458,0.0,-4.0477,-4.0496,-4.0496,0.0,0.0,-4.0496,-4.0496,-4.0496,0.0,0.0,0.0,0.0,0.0,0.0,0.0,0.0,0.0,-3.55,0.0,0.0,0.0,0.0,-3.55,0.0,0.0,0.0,0.0,0.0,0.0,0.0,0.0,0.0,0.0,0.0,-3.5596,-3.5601,-3.5671,0.0,0.0,-3.5836,-3.5903,-3.5944,-3.6011,-3.6384,-3.7196,-3.7234,-3.7604,-3.8426,-3.9204,-3.9649,-3.9747,-4.0442,-4.0805,-4.0805,-4.0801,-4.0797,-4.0797,-4.0801,-4.0801,-4.0797,-4.0821,-4.0844,-4.0922,-4.1782,-4.2159,-4.2241,-4.3101,-4.3475,-4.3711,-4.5617,-4.6308,-4.6308,0.0,0.0,0.0,0.0,0.0,0.0,0.0,-3.5862,0.0,0.0,-3.578,0.0,0.0,-3.5663,-3.5621,0.0,0.0,-3.5534,-3.5534,-3.5515,0.0,0.0,0.0,-3.55,0.0,0.0,0.0,0.0,0.0,0.0,0.0,0.0,0.0,0.0,0.0,-3.55,0.0,0.0,0.0,0.0,0.0,-3.9996,-4.0496,0.0,-4.0496,-4.0496,-4.0496,-4.0496,-4.0496,-4.0496,-4.0496,-4.0496,-4.0496,-4.0304,-3.9938,-3.9111,-3.8238,-3.7373,0.0,0.0,-3.55,-3.55,0.0,0.0,0.0,0.0,0.0,0.0,0.0,0.0,0.0,0.0,0.0,0.0,0.0,0.0,0.0,0.0,-3.5534,-3.5534,-3.5595,0.0,0.0,0.0,-3.5766,-3.5766,-3.5788,-3.5929,-3.6198,-3.6214,-3.6607,-3.745,-3.7735,-3.8432,-3.9627,-3.9779,-4.016,-4.0731,-4.0635,-4.0604,-4.0591,-4.0693,-4.0682,-4.061,-4.0693,-4.0736,-4.0756,-4.1047,-4.1199,-4.1326,-4.219,-4.2545,-4.2689,-4.3922,-4.4757,-4.5326,-3.5663,0.0,0.0,0.0,0.0,0.0,0.0,0.0,0.0,0.0,-3.5675,0.0,-3.5652,0.0,-3.5568,0.0,-3.5528,-3.55,-3.55,-3.55,0.0,-3.55,-3.55,-3.55,0.0,0.0,0.0,0.0,0.0,-3.55,0.0,0.0,0.0,0.0,0.0,-3.55,-3.55,-3.55,-3.6462,0.0,0.0,-4.0496,0.0,0.0,-4.0496,-4.0496,0.0,-4.0496,-4.0496,-4.0496,-4.0496,-4.0496,-4.0496,-4.0496,-4.0342,-3.9534,-3.8892,-3.82,-3.7019,-3.6327,-3.5865,-3.5577,-3.55,0.0,-3.55,0.0,-3.55,0.0,0.0,0.0,0.0,0.0,0.0,0.0,0.0,0.0,0.0,-3.55,-3.55,-3.55,-3.554,-3.5588,0.0,-3.5646,-3.5652,-3.5652,-3.5686,-3.5689,-3.5675,-3.5652,-3.5928,-3.6476,-3.6768,-3.7598,-3.906,-3.9257,-3.9792,-4.063,-4.0537,-4.0496,-4.0496,-4.0582,-4.0568,-4.0504,-4.0582,-4.063,-4.063,-4.063,-4.066,-4.0751,-4.1318,-4.1537,-4.1683,-4.2948,-4.3755,-4.4324,-3.5574,0.0,0.0,0.0,-3.5696,0.0,0.0,0.0,-3.5693,0.0,-3.5639,-3.56,-3.56,-3.554,-3.55,-3.55,-3.55,-3.55,-3.55,-3.55,0.0,0.0,-3.55,-3.55,-3.55,0.0,0.0,0.0,0.0,0.0,0.0,0.0,0.0,0.0,-3.55,0.0,-3.5486,-3.5493,-3.6462,-3.8142,-3.9823,-4.0496,-4.0496,-4.0496,-4.0496,-4.0496,-4.0496,-4.0496,-4.0496,-4.0496,-4.0496,-4.0496,-4.0496,-4.0496,-4.0342,-3.9573,-3.9323,-3.8938,-3.7276,-3.6769,-3.6519,-3.575,-3.5538,-3.55,0.0,0.0,-3.55,0.0,0.0,0.0,0.0,0.0,0.0,0.0,0.0,0.0,0.0,0.0,-3.55,-3.55,-3.55,-3.55,-3.55,-3.555,-3.56,-3.56,-3.5655,-3.5667,0.0,-3.56,-3.56,-3.56,-3.628,-3.7083,-3.8028,-3.8824,-3.965,-4.0439,-4.0477,-4.0496,-4.0496,-4.0496,-4.0496,-4.0496,-4.0496,-4.0496,-4.0496,-4.0496,-4.0496,-4.0496,-4.0496,-4.0496,-4.0742,-4.2621,-4.3335,-4.3339,-3.5522,-3.5515,-3.5508,0.0,-3.5595,-3.5621,0.0,0.0,0.0,0.0,-3.554,-3.5528,-3.5528,-3.5508,-3.55,-3.55,-3.55,0.0,0.0,0.0,0.0,-3.55,-3.55,-3.55,-3.55,-3.55,-3.55,-3.55,0.0,0.0,-3.55,0.0,0.0,0.0,0.0,0.0,-3.5215,-3.5424,-3.6462,-3.8142,-3.9823,-4.0496,-4.0496,0.0,-4.0496,-4.0496,-4.0496,-4.0496,-4.0496,-4.0496,-4.0496,-4.0496,-4.0496,-4.0496,-4.0458,-4.0246,-3.9765,-3.9207,-3.8738,-3.77,-3.6654,-3.6442,-3.5942,-3.55,-3.55,-3.55,0.0,0.0,0.0,0.0,0.0,0.0,0.0,0.0,0.0,0.0,0.0,0.0,0.0,-3.55,-3.55,-3.55,-3.55,-3.5521,-3.5528,-3.5528,-3.5534,-3.554,-3.5534,-3.5528,-3.5528,-3.5528,-3.572,-3.6213,-3.705,-3.7914,-3.8757,-3.9631,-4.0208,-4.0496,-4.0496,-4.0496,-4.0496,-4.0496,-4.0496,-4.0496,-4.0496,-4.0496,-4.0496,-4.0496,-4.0496,-4.0496,-4.0646,-4.1791,-4.226,-4.2449,-3.55,0.0,0.0,-3.55,0.0,0.0,-3.557,-3.5528,0.0,-3.5981,-3.5712,0.0,-3.65,-3.625,-3.6173,-3.6558,-3.6596,0.0,-3.6596,0.0,0.0,-3.6038,-3.6019,-3.5865,-3.5519,-3.55,0.0,-3.55,0.0,0.0,-3.55,0.0,0.0,0.0,0.0,-3.5424,-3.5327,-3.6226,-3.7275,-3.8473,-3.9785,-4.023,0.0,-4.012,-4.012,-4.012,-4.012,-4.0274,-4.0496,-4.0496,-4.0496,-4.0496,-4.0496,-4.0496,-4.0496,-4.0496,-4.0189,-3.9746,-3.94,-3.8584,-3.7642,-3.6885,-3.6365,-3.5923,-3.5577,-3.55,-3.55,0.0,-3.55,-3.55,0.0,0.0,0.0,0.0,0.0,0.0,0.0,0.0,0.0,0.0,-3.55,-3.55,-3.55,-3.55,-3.55,-3.55,-3.55,-3.55,-3.55,-3.55,-3.55,-3.55,-3.55,-3.5885,-3.6692,-3.7565,-3.843,-3.9304,-4.0112,-4.0496,-4.0496,-4.0496,-4.0496,-4.0496,-4.0496,-4.0496,-4.0496,-4.0496,-4.0496,-4.0496,-4.0496,-4.0496,-4.0554,-4.1046,-4.1284,-4.1402,-3.55,0.0,0.0,0.0,0.0,0.0,0.0,-3.55,0.0,-3.6596,0.0,-3.625,-3.7834,-3.7315,-3.718,-3.793,-3.8007,-3.8007,-3.8007,-3.8007,-3.7661,-3.6904,-3.6865,-3.6481,-3.5673,-3.5654,-3.5615,0.0,0.0,0.0,0.0,0.0,0.0,0.0,0.0,0.0,0.0,-3.7199,-3.8187,-3.8813,-3.968,-3.987,-3.9599,-3.9599,-3.9599,-3.9599,-3.9599,-3.9954,-4.037,-4.037,-4.037,-4.0397,-4.0422,-4.0457,-4.0457,-4.0489,-4.0496,-4.0342,-3.965,-3.9381,-3.8911,-3.7276,-3.6769,-3.6481,-3.5673,-3.55,-3.55,-3.55,-3.55,-3.5493,-3.5446,0.0,0.0,0.0,0.0,0.0,0.0,0.0,0.0,0.0,0.0,0.0,-3.55,-3.55,-3.55,-3.55,-3.55,-3.55,0.0,0.0,-3.55,-3.55,-3.55,-3.5846,-3.6538,-3.7411,-3.8277,-3.915,-3.9958,-4.04,-4.0496,-4.0496,-4.0496,-4.0496,-4.0496,-4.0496,-4.0496,-4.0496,-4.0496,-4.0496,-4.0496,-4.0496,-4.0496,-4.0496,-4.0496,-4.0496,-3.55,0.0,0.0,0.0,0.0,-3.55,-3.55,-3.55,-3.5788,-3.6596,-3.6577,-3.6885,-3.7892,-3.7853,-3.7834,-3.7988,-3.8007,0.0,0.0,0.0,0.0,-3.7777,-3.7777,-3.7373,-3.65,-3.6481,-3.6154,0.0,0.0,0.0,0.0,0.0,0.0,0.0,0.0,0.0,-3.62,-3.6702,0.0,-3.8455,-3.9328,-3.9645,-3.9599,-3.9599,-3.9599,-3.9599,-3.9599,-3.9668,-3.9757,-3.9757,-3.9757,-3.98,-4.0081,-4.0167,-4.0204,-4.0441,-4.0496,-4.0477,-4.0323,-3.9804,-3.9053,-3.8027,-3.7238,-3.6481,-3.5673,-3.55,-3.55,-3.55,-3.55,-3.5432,-3.5207,0.0,0.0,0.0,0.0,0.0,0.0,0.0,0.0,0.0,0.0,-3.55,-3.55,-3.55,-3.55,-3.55,-3.55,-3.55,0.0,0.0,-3.55,0.0,-3.55,-3.5577,0.0,-3.6519,-3.7373,-3.8238,-3.9111,-3.9861,-4.0496,-4.0496,-4.0496,-4.0496,-4.0496,-4.0496,-4.0496,-4.0496,-4.0496,-4.0496,-4.0496,-4.0496,-4.0496,-4.0496,-4.0496,-4.0496,0.0,0.0,0.0,0.0,0.0,0.0,0.0,-3.6115,-3.6423,-3.7257,-3.7373,-3.7873,-3.9161,-3.8911,-3.8834,-3.9258,-3.9304,-3.9304,-3.9304,-3.9304,-3.9104,-3.8681,-3.8661,-3.8277,-3.7392,-3.6923,-3.65,-3.6115,0.0,0.0,0.0,0.0,0.0,0.0,0.0,-3.5817,0.0,0.0,-3.7614,-3.8752,-3.9177,-3.9262,-3.9127,-3.9127,-3.9127,-3.9127,-3.9127,-3.9127,-3.9176,-3.9493,-3.9599,-3.9634,-3.9786,-3.9829,-3.988,-3.9994,-4.0167,-4.0285,-4.0285,-4.012,-3.9727,-3.8873,-3.8027,-3.7161,-3.6308,-3.5808,-3.5453,-3.5312,-3.5297,-3.5207,-3.4944,-3.4999,-3.5096,0.0,0.0,0.0,0.0,0.0,-3.5297,0.0,0.0,0.0,0.0,-3.55,-3.55,-3.55,-3.55,0.0,0.0,0.0,-3.55,0.0,0.0,0.0,-3.55,0.0,-3.7142,-3.8007,-3.8873,-3.9727,-4.0496,-4.0496,-4.0496,-4.0496,-4.0496,-4.0496,-4.0496,-4.0496,-4.0496,-4.0496,-4.0496,-4.0496,-4.0496,-4.0496,-4.0496,-4.0496,0.0,-3.55,0.0,0.0,-3.5635,-3.5962,-3.6596,-3.7,-3.7507,-3.818,-3.8277,-3.8834,-4.0342,-3.9938,-3.9804,-4.0439,-4.0496,-4.0496,-4.0496,-4.0496,-4.0227,-3.9573,-3.9554,-3.915,-3.8296,-3.7603,-3.7043,0.0,0.0,0.0,0.0,0.0,0.0,0.0,0.0,0.0,0.0,0.0,-3.7748,-3.9008,-3.9008,-3.8898,-3.8707,-3.8707,-3.8707,-3.8707,-3.8707,-3.8707,-3.8762,-3.9255,-3.9414,-3.9427,-3.9481,-3.9486,-3.9517,-3.9587,-3.9786,-3.9992,-3.9992,-4.0148,-4.0109,-3.9295,-3.8432,-3.7589,-3.6719,-3.5914,-3.5273,-3.5062,-3.4972,-3.487,-3.4724,-3.4813,-3.4879,0.0,0.0,0.0,0.0,0.0,-3.5105,0.0,0.0,0.0,-3.55,-3.55,-3.55,-3.55,-3.55,-3.55,-3.55,0.0,0.0,0.0,-3.55,-3.55,-3.55,0.0,-3.6969,-3.8007,-3.87,-3.9534,-4.0496,-4.0496,-4.0496,-4.0496,-4.0496,-4.0496,-4.0496,-4.0496,-4.0496,-4.0496,-4.0496,-4.0496,-4.0496,-4.0496,-4.0496,-4.0496,0.0,0.0,0.0,0.0,0.0,-3.6615,-3.6692,-3.8046,-3.9092,-3.9169,-3.9188,-3.9515,-4.04,-4.0439,-4.0419,-4.0496,-4.0496,-4.0496,-4.0496,-4.0496,-4.0477,-4.04,-4.04,-4.0015,-3.9207,-3.9111,-3.8154,0.0,0.0,-3.6086,0.0,0.0,0.0,0.0,0.0,0.0,-3.6714,-3.6468,-3.729,-3.875,-3.875,-3.8719,-3.8707,-3.8707,-3.8707,-3.8707,-3.8707,-3.8707,-3.8707,-3.8765,-3.8777,-3.8833,-3.9063,-3.9152,-3.9218,-3.9498,-3.9622,-3.9645,-3.9645,-3.9668,-3.9471,-3.8598,-3.7789,-3.6967,-3.6153,-3.535,-3.4764,-3.4734,-3.4489,-3.4379,-3.4653,-3.4467,-3.4449,0.0,0.0,0.0,0.0,0.0,-3.5105,-3.5105,0.0,0.0,-3.55,-3.55,-3.55,-3.55,-3.55,-3.55,0.0,0.0,0.0,-3.55,-3.55,-3.55,-3.55,-3.5577,-3.6423,-3.8007,-3.8084,-3.895,-4.0496,-4.0496,-4.0496,-4.0496,-4.0496,-4.0496,-4.0496,-4.0496,-4.0496,-4.0496,-4.0496,-4.0496,-4.0496,-4.0496,-4.0496,-4.0496,0.0,0.0,0.0,0.0,0.0,0.0,-3.8104,-3.8854,-3.9477,-3.9958,-4.0015,-4.015,-4.0458,-4.0496,-4.0496,-4.0496,-4.0496,-4.0496,-4.0496,-4.0496,-4.0496,-4.0496,-4.0496,-4.0342,-4.0035,-3.9342,-3.8609,0.0,0.0,0.0,0.0,0.0,0.0,0.0,-3.4806,-3.5528,-3.6482,-3.6871,-3.7661,-3.8707,-3.8707,-3.8707,-3.8707,-3.8707,-3.8707,-3.8707,-3.8707,-3.8707,-3.8707,-3.8707,-3.8707,-3.8719,-3.8829,-3.8855,-3.8884,-3.9022,-3.9157,-3.9289,-3.9289,-3.9457,-3.9524,-3.9173,-3.809,-3.7025,-3.6694,-3.5618,-3.4643,-3.4434,-3.4165,-3.3999,-3.4136,-3.4171,-3.4242,-3.4318,0.0,0.0,0.0,0.0,0.0,-3.4555,0.0,-3.5016,-3.5016,-3.5174,-3.5266,-3.5266,-3.5417,-3.55,-3.55,0.0,0.0,-3.55,0.0,-3.55,-3.55,-3.55,-3.6346,-3.8007,-3.8007,-3.8873,-4.0496,-4.0496,-4.0496,-4.0496,-4.0496,-4.0496,-4.0496,-4.0496,-4.0496,-4.0496,-4.0496,-4.0496,-4.0496,-4.0496,-4.0496,-4.0496,-3.55,-3.5692,-3.6038,-3.6596,-3.7123,-3.7873,-3.9111,-3.9496,-3.9861,-4.0439,-4.0496,-4.0496,-4.0496,-4.0496,-4.0496,-4.0496,-4.0496,-4.0496,-4.0496,-4.0496,-4.0496,-4.0496,-4.0496,0.0,-4.0381,-3.9593,-3.8965,-3.8536,-3.7422,0.0,0.0,0.0,-3.5305,-3.4841,-3.5465,-3.608,-3.6703,-3.7254,-3.797,-3.8707,-3.8707,-3.8707,-3.8707,-3.8707,-3.8707,-3.8707,-3.8707,-3.8707,-3.8707,-3.8707,-3.8707,-3.8707,-3.8707,-3.8707,-3.8707,-3.8707,-3.8829,-3.8985,-3.8985,-3.9163,-3.9327,-3.9327,-3.8084,-3.6866,-3.6866,-3.5593,-3.4364,-3.4123,-3.3923,-3.3807,-3.3807,-3.3948,-3.4043,-3.3954,0.0,0.0,0.0,-3.4093,0.0,-3.4345,-3.4551,-3.4724,-3.4803,-3.4926,-3.4981,-3.4981,-3.5223,-3.5424,-3.55,0.0,0.0,0.0,0.0,0.0,-3.55,-3.55,-3.6346,-3.8007,-3.8007,-3.8873,-4.0496,-4.0496,-4.0496,-4.0496,-4.0496,-4.0496,-4.0496,-4.0496,-4.0496,-4.0496,-4.0496,-4.0496,-4.0496,-4.0496,-4.0496,-4.0496,-3.55,-3.6135,-3.6692,-3.6692,-3.8123,-3.9284,-3.9304,-3.9977,-4.0496,-4.0496,-4.0496,-4.0496,-4.0496,-4.0496,-4.0496,-4.0496,-4.0496,-4.0496,-4.0496,-4.0496,-4.0496,0.0,0.0,-4.0372,-4.011,-4.0081,-3.937,-3.7914,0.0,0.0,-3.6676,-3.6689,-3.6539,-3.6281,-3.6299,-3.674,-3.7492,-3.7492,-3.797,-3.8707,-3.8707,-3.8707,-3.8707,-3.8707,-3.8707,-3.8707,-3.8707,-3.8707,-3.8707,-3.8707,-3.8707,-3.8707,-3.8707,-3.8707,-3.8707,-3.8707,-3.8707,-3.8707,-3.8707,-3.8707,-3.8723,-3.8723,-3.7511,-3.6299,-3.6299,-3.5014,-3.382,-3.382,-3.3788,-3.3807,-3.3807,-3.3788,-3.3889,-3.4159,0.0,0.0,0.0,-3.4188,0.0,-3.4653,-3.4694,-3.4793,-3.5079,-3.487,-3.4694,-3.4694,-3.4954,-3.5215,-3.5493,-3.55,0.0,-3.55,-3.55,0.0,-3.55,-3.55,-3.6346,-3.8007,-3.8007,-3.8873,-4.0496,-4.0496,-4.0496,-4.0496,-4.0496,-4.0496,-4.0496,-4.0496,-4.0496,-4.0496,-4.0496,-4.0496,-4.0496,-4.0496,-4.0496,-4.0496,-3.6327,-3.7007,-3.7777,-3.8373,-3.8931,-3.9477,-4.0035,-4.0342,-4.0496,-4.0496,-4.0496,-4.0496,-4.0496,-4.0496,-4.0496,0.0,-4.0496,-4.0496,0.0,-4.0496,-4.0496,-4.0496,-4.0496,-4.0372,-4.0101,-3.988,-3.9421,-3.8721,-3.8258,-3.7561,-3.6695,-3.6509,-3.638,-3.6321,-3.6868,-3.7254,-3.7529,-3.8098,-3.8469,-3.8707,-3.8707,-3.8707,-3.8707,-3.8707,-3.8707,-3.8707,-3.8707,-3.8707,-3.8707,-3.8707,-3.8707,-3.8707,-3.8707,-3.8707,-3.8707,-3.8707,-3.8707,-3.8707,-3.8707,-3.8707,-3.8707,-3.8707,-3.7496,-3.6303,-3.6303,-3.5,-3.3807,-3.3807,-3.3807,-3.3807,-3.3807,-3.3807,-3.3829,-3.3897,-3.3868,0.0,-3.3915,0.0,-3.3979,-3.4062,-3.4093,-3.4123,-3.4201,-3.43,-3.4368,-3.4368,-3.4645,-3.4944,0.0,0.0,0.0,0.0,-3.55,0.0,-3.55,-3.55,-3.6346,-3.8007,-3.8007,-3.8873,-4.0496,-4.0496,-4.0496,-4.0496,-4.0496,-4.0496,-4.0496,-4.0496,-4.0496,-4.0496,-4.0496,-4.0496,-4.0496,-4.0496,-4.0496,-4.0496,-3.7199,-3.7892,-3.8661,-3.9207,-3.9554,-3.9919,-4.0419,-4.0496,-4.0496,-4.0496,-4.0496,-4.0496,-4.0496,-4.0496,-4.0496,-4.0496,-4.0496,-4.0496,-4.0496,-4.0496,-4.0496,-4.0496,-4.0397,-4.0203,-3.9922,-3.9587,-3.9257,-3.8947,-3.8437,-3.7942,-3.7442,-3.7286,-3.7202,-3.7221,-3.7716,-3.7936,-3.7988,-3.8487,-3.8707,-3.8707,-3.8707,-3.8707,-3.8707,-3.8707,-3.8707,-3.8707,-3.8707,-3.8707,-3.8707,-3.8707,-3.8707,-3.8707,-3.8707,-3.8707,-3.8707,-3.8707,-3.8707,-3.8707,-3.8707,-3.8707,-3.8707,-3.8707,-3.7496,-3.6138,-3.5495,-3.4541,-3.3807,-3.3807,-3.3807,-3.3807,-3.3807,-3.3807,-3.3807,-3.3807,-3.3807,-3.3807,-3.3807,-3.3807,-3.3842,-3.3935,-3.385,-3.3842,-3.3935,-3.4006,-3.4056,-3.4056,-3.4353,0.0,0.0,0.0,-3.5198,-3.5198,-3.5297,-3.5354,-3.5354,-3.5446,-3.6346,-3.8007,-3.8642,-3.9496,-4.0496,-4.0496,-4.0496,-4.0496,-4.0496,-4.0496,-4.0496,-4.0496,-4.0496,-4.0496,-4.0496,-4.0496,-4.0496,-4.0496,-4.0496,-4.0496,-3.8084,-3.8796,-3.9381,-3.9381,-3.9996,-4.0496,-4.0496,-4.0496,-4.0496,-4.0496,-4.0496,-4.0496,-4.0496,-4.0496,-4.0496,-4.0496,-4.0496,-4.0496,-4.0496,-4.0496,-4.0489,-4.0473,-4.0223,-3.9932,-3.9576,-3.9251,-3.8975,-3.8707,-3.8707,-3.8707,-3.8707,-3.8707,-3.8707,-3.8707,-3.8707,-3.8707,-3.8707,-3.8707,-3.8707,-3.8707,-3.8707,-3.8707,-3.8707,-3.8707,-3.8707,-3.8707,-3.8707,-3.8707,-3.8707,-3.8707,-3.8707,-3.8707,-3.8707,-3.8707,-3.8707,-3.8707,-3.8707,-3.8707,-3.8707,-3.8707,-3.8707,-3.8707,-3.7496,-3.5862,-3.4174,-3.3807,-3.3807,-3.3807,-3.3807,-3.3807,-3.3807,-3.3807,-3.3807,-3.3807,-3.3807,-3.3807,-3.3807,-3.3807,-3.3889,-3.4147,-3.3948,-3.3902,-3.4159,-3.3948,-3.3807,-3.3807,0.0,0.0,0.0,0.0,-3.4653,-3.4694,-3.4944,-3.5079,-3.5079,-3.5385,-3.6416,-3.8104,-3.9727,-4.0496,-4.0496,-4.0496,-4.0496,-4.0496,-4.0496,-4.0496,-4.0496,-4.0496,-4.0489,-4.0473,-4.0473,-4.0473,-4.0473,-4.0473,-4.0473,-4.0473,-3.8996,-3.965,-4.0227,-4.0227,-4.0362,-4.0496,-4.0496,-4.0496,-4.0496,-4.0496,-4.0496,-4.0496,-4.0496,-4.0496,-4.0496,-4.0496,-4.0496,-4.0496,-4.0496,-4.0496,-4.0406,-4.0195,-4.0129,-3.9819,-3.9225,-3.9133,-3.8975,-3.8707,-3.8707,-3.8707,-3.8707,-3.8707,-3.8707,-3.8707,-3.8707,-3.8707,-3.8707,-3.8707,-3.8707,-3.8707,-3.8707,-3.8707,-3.8707,-3.8707,-3.8707,-3.8707,-3.8707,-3.8707,-3.8707,-3.8707,-3.8707,-3.8707,-3.8707,-3.8707,-3.8707,-3.8707,-3.8707,-3.8707,-3.8707,-3.8707,-3.8707,-3.8707,-3.7496,-3.5862,-3.4174,-3.3807,-3.3807,-3.3807,-3.3807,-3.3807,-3.3807,-3.3807,-3.3807,-3.3807,-3.3807,-3.3807,-3.3807,-3.3807,-3.3815,-3.3889,-3.3842,-3.3815,-3.3889,-3.3842,-3.3807,0.0,0.0,-3.3889,-3.3889,-3.3967,-3.4232,-3.4684,-3.4754,-3.4784,-3.4784,-3.567,-3.7075,-3.8988,-4.0015,-4.0496,-4.0496,-4.0496,-4.0496,-4.0496,-4.0496,-4.0496,-4.0496,-4.0496,-4.0381,-4.0186,-4.0186,-4.0186,-4.0186,-4.0186,-4.0186,-4.0186,-3.9842,-4.0208,-4.0496,-4.0496,-4.0496,-4.0496,-4.0496,-4.0496,-4.0496,-4.0496,-4.0496,-4.0496,-4.0496,-4.0496,-4.0496,-4.0496,-4.0496,-4.0496,-4.0496,-4.0381,-4.0241,-4.0101,-3.9808,-3.9462,-3.9112,-3.8971,-3.8859,-3.8707,-3.8707,-3.8707,-3.8707,-3.8707,-3.8707,-3.8707,-3.8707,-3.8707,-3.8707,-3.8707,-3.8707,-3.8707,-3.8707,-3.8707,-3.8707,-3.8707,-3.8707,-3.8707,-3.8707,-3.8707,-3.8707,-3.8707,-3.8707,-3.8707,-3.8707,-3.8707,-3.8707,-3.8707,-3.8707,-3.8707,-3.8707,-3.8707,-3.8524,-3.779,-3.6945,-3.5862,-3.4174,-3.3807,-3.3807,-3.3807,-3.3807,-3.3807,-3.3807,-3.3807,-3.3807,-3.3807,-3.3807,-3.3807,-3.3807,-3.3807,-3.3807,-3.3807,-3.3807,-3.3807,-3.3807,-3.3807,-3.3807,-3.3807,-3.3807,0.0,-3.3807,-3.3807,-3.3941,-3.4279,-3.4409,-3.4456,-3.4456,-3.5937,-3.7405,-3.8851,-3.97,-4.0082,-4.0082,-4.0258,-4.0321,-4.0321,-4.0321,-4.0321,-4.0313,-4.0148,-3.9994,-3.988,-3.988,-3.988,-3.988,-3.988,-3.988,-3.988,-4.0496,-4.0496,-4.0496,-4.0496,-4.0496,-4.0496,-4.0496,-4.0496,-4.0496,-4.0496,-4.0496,-4.0496,-4.0496,-4.0496,-4.0496,-4.0496,-4.0465,-4.0449,-4.0449,-4.0223,-4.0042,-3.9943,-3.9401,-3.9085,-3.9036,-3.8833,-3.8707,-3.8707,-3.8707,-3.8707,-3.8707,-3.8707,-3.8707,-3.8707,-3.8707,-3.8707,-3.8707,-3.8707,-3.8707,-3.8707,-3.8707,-3.8707,-3.8707,-3.8707,-3.8707,-3.8707,-3.8707,-3.8707,-3.8707,-3.8707,-3.8707,-3.8707,-3.8707,-3.8707,-3.8707,-3.8707,-3.8707,-3.8707,-3.8707,-3.8707,-3.8322,-3.6688,-3.6303,-3.5862,-3.4174,-3.3807,-3.3807,-3.3807,-3.3807,-3.3807,-3.3807,-3.3807,-3.3807,-3.3807,-3.3807,-3.3807,-3.3807,-3.3807,-3.3807,-3.3807,-3.3807,-3.3807,-3.3807,-3.3807,-3.3807,-3.3807,-3.3807,-3.3807,-3.3807,-3.3807,-3.3807,-3.3807,-3.4018,-3.4282,-3.4572,-3.6348,-3.7649,-3.852,-3.9248,-3.9599,-3.9611,-3.9901,-4.0022,-4.0022,-4.0022,-4.0022,-4.0002,-3.9731,-3.9576,-3.951,-3.951,-3.951,-3.951,-3.951,-3.951,-3.951,-4.0496,-4.0496,-4.0496,-4.0496,-4.0496,-4.0496,-4.0496,-4.0496,-4.0496,-4.0496,-4.0496,-4.0496,-4.0496,-4.0496,-4.0496,-4.0496,-4.0285,-4.0158,-4.0158,-4.012,-3.9859,-3.9276,-3.9165,-3.8999,-3.8777,-3.8719,-3.8707,-3.8707,-3.8707,-3.8707,-3.8707,-3.8707,-3.8707,-3.8707,-3.8707,-3.8707,-3.8707,-3.8707,-3.8707,-3.8707,-3.8707,-3.8707,-3.8707,-3.8707,-3.8707,-3.8707,-3.8707,-3.8707,-3.8707,-3.8707,-3.8707,-3.8707,-3.8707,-3.8707,-3.8707,-3.8707,-3.8707,-3.8707,-3.8707,-3.8707,-3.8322,-3.6688,-3.6303,-3.5862,-3.4174,-3.3807,-3.3807,-3.3807,-3.3807,-3.3807,-3.3807,-3.3807,-3.3807,-3.3807,-3.3807,-3.3807,-3.3807,-3.3807,-3.3807,-3.3807,-3.3807,-3.3807,-3.3807,-3.3807,-3.3807,-3.3807,-3.3807,-3.3807,-3.3807,-3.3807,-3.3807,-3.3807,-3.3842,-3.4652,-3.6298,-3.7281,-3.8321,-3.941,-3.9542,-3.9599,-3.9599,-3.9645,-3.9668,-3.9668,-3.9668,-3.9668,-3.9668,-3.9622,-3.9426,-3.9192,-3.9192,-3.9192,-3.9192,-3.9192,-3.9192,-3.9192,-4.0496,-4.0496,-4.0496,-4.0496,-4.0496,-4.0496,-4.0496,-4.0496,-4.0496,-4.0496,-4.0496,-4.0496,-4.0496,-4.0372,-4.0276,-4.0276,-4.0003,-3.9754,-3.9576,-3.9564,-3.9414,-3.9107,-3.8961,-3.8829,-3.8707,-3.8707,-3.8707,-3.8707,-3.8707,-3.8707,-3.8707,-3.8707,-3.8707,-3.8707,-3.8707,-3.8707,-3.8707,-3.8707,-3.8707,-3.8707,-3.8707,-3.8707,-3.8707,-3.8707,-3.8707,-3.8707,-3.8707,-3.8707,-3.8707,-3.8707,-3.8707,-3.8707,-3.8707,-3.8707,-3.8707,-3.8707,-3.8707,-3.8707,-3.8707,-3.8707,-3.8414,-3.7254,-3.6615,-3.5973,-3.4729,-3.4119,-3.3807,-3.3807,-3.3807,-3.3807,-3.3807,-3.3807,-3.3807,-3.3807,-3.3807,-3.3807,-3.3807,-3.3807,-3.3807,-3.3807,-3.3807,-3.3807,-3.3807,-3.3807,-3.3807,-3.3807,-3.3807,-3.3807,-3.3807,-3.3807,-3.4009,-3.4417,-3.4454,-3.5303,-3.7105,-3.7507,-3.8183,-3.9132,-3.9132,-3.9132,-3.9114,-3.9257,-3.9327,-3.9327,-3.9327,-3.9327,-3.9333,-3.9176,-3.9022,-3.8865,-3.8865,-3.8865,-3.8865,-3.8865,-3.8865,-3.8865,-4.0496,-4.0496,-4.0496,-4.0496,-4.0496,-4.0496,-4.0496,-4.0449,-4.0397,-4.0397,-4.0336,-4.0283,-4.0283,-4.011,-3.9992,-3.9992,-3.9668,-3.9364,-3.9125,-3.9049,-3.9013,-3.9013,-3.8818,-3.8707,-3.8707,-3.8707,-3.8707,-3.8707,-3.8707,-3.8707,-3.8707,-3.8707,-3.8707,-3.8707,-3.8707,-3.8707,-3.8707,-3.8707,-3.8707,-3.8707,-3.8707,-3.8707,-3.8707,-3.8707,-3.8707,-3.8707,-3.8707,-3.8707,-3.8707,-3.8707,-3.8707,-3.8707,-3.8707,-3.8707,-3.8707,-3.8707,-3.8707,-3.8707,-3.8707,-3.8707,-3.8505,-3.7694,-3.7052,-3.6303,-3.5243,-3.4509,-3.4027,-3.3844,-3.3807,-3.3807,-3.3807,-3.3807,-3.3807,-3.3807,-3.3807,-3.3807,-3.3807,-3.3807,-3.3807,-3.3807,-3.3807,-3.3807,-3.3807,-3.3807,-3.3807,-3.3807,-3.3807,-3.388,-3.4082,-3.4082,-3.4541,-3.5555,-3.5573,-3.6193,-3.7492,-3.7694,-3.8083,-3.8707,-3.8707,-3.8707,-3.8707,-3.8909,-3.9013,-3.9013,-3.9013,-3.9013,-3.8985,-3.8773,-3.8707,-3.8707,-3.8707,-3.8707,-3.8707,-3.8707,-3.8707,-3.8707,-4.0496,-4.0496,-4.0496,-4.0496,-4.0496,-4.0496,-4.0496,-4.0295,-4.0129,-4.0129,-3.9851,-3.9668,-3.9668,-3.9645,-3.9634,-3.9634,-3.9327,-3.9139,-3.9093,-3.8869,-3.8735,-3.8735,-3.8704,-3.8707,-3.8707,-3.8707,-3.8707,-3.8707,-3.8707,-3.8707,-3.8707,-3.8707,-3.8707,-3.8707,-3.8707,-3.8707,-3.8707,-3.8707,-3.8707,-3.8707,-3.8707,-3.8707,-3.8707,-3.8707,-3.8707,-3.8707,-3.8707,-3.8707,-3.8707,-3.8707,-3.8707,-3.8707,-3.8707,-3.8707,-3.8707,-3.8707,-3.8707,-3.8707,-3.8707,-3.8707,-3.8505,-3.7694,-3.7456,-3.6997,-3.5371,-3.4949,-3.4711,-3.3954,-3.3807,-3.3807,-3.3807,-3.3807,-3.3807,-3.3807,-3.3807,-3.3807,-3.3807,-3.3807,-3.3807,-3.3807,-3.3807,-3.3807,-3.3807,-3.3807,-3.3807,-3.3807,-3.3807,-3.4137,-3.4876,-3.4912,-3.5646,-3.7254,-3.7327,-3.7382,-3.7492,-3.823,-3.8652,-3.8707,-3.8707,-3.8707,-3.8707,-3.8719,-3.8735,-3.8735,-3.8735,-3.8735,-3.8735,-3.8723,-3.8707,-3.8707,-3.8707,-3.8707,-3.8707,-3.8707,-3.8707,-3.8707,-4.0473,-4.0364,-4.0241,-4.0241,-4.0241,-4.0176,-3.9974,-3.9861,-3.9786,-3.9786,-3.9679,-3.9599,-3.9599,-3.9414,-3.9289,-3.9289,-3.9013,-3.884,-3.884,-3.8747,-3.8707,-3.8707,-3.8707,-3.8707,-3.8707,-3.8707,-3.8707,-3.8707,-3.8707,-3.8707,-3.8707,-3.8707,-3.8707,-3.8707,-3.8707,-3.8707,-3.8707,-3.8707,-3.8707,-3.8707,-3.8707,-3.8707,-3.8707,-3.8707,-3.8707,-3.8707,-3.8707,-3.8707,-3.8707,-3.8707,-3.8707,-3.8707,-3.8707,-3.8707,-3.8707,-3.8707,-3.8707,-3.8707,-3.8707,-3.8707,-3.8634,-3.8322,-3.7878,-3.7327,-3.6688,-3.6156,-3.5569,-3.4711,-3.4546,-3.438,-3.3899,-3.3807,-3.3807,-3.3807,-3.3807,-3.3807,-3.3807,-3.3807,-3.3807,-3.3807,-3.3807,-3.3807,-3.3807,-3.3807,-3.4009,-3.4509,-3.4546,-3.4912,-3.5771,-3.6285,-3.6835,-3.7474,-3.7988,-3.823,-3.823,-3.856,-3.8707,-3.8707,-3.8707,-3.8707,-3.8707,-3.8707,-3.8707,-3.8707,-3.8707,-3.8707,-3.8707,-3.8707,-3.8707,-3.8707,-3.8707,-3.8707,-3.8707,-3.8707,-3.8707,-3.8707,-4.0339,-4.0139,-3.9932,-3.9932,-3.9932,-3.987,-3.9634,-3.9498,-3.9438,-3.9438,-3.9358,-3.9314,-3.9314,-3.9122,-3.8971,-3.8971,-3.8818,-3.8707,-3.8707,-3.8707,-3.8707,-3.8707,-3.8707,-3.8707,-3.8707,-3.8707,-3.8707,-3.8707,-3.8707,-3.8707,-3.8707,-3.8707,-3.8707,-3.8707,-3.8707,-3.8707,-3.8707,-3.8707,-3.8707,-3.8707,-3.8707,-3.8707,-3.8707,-3.8707,-3.8707,-3.8707,-3.8707,-3.8707,-3.8707,-3.8707,-3.8707,-3.8707,-3.8707,-3.8707,-3.8707,-3.8707,-3.8707,-3.8707,-3.8707,-3.8707,-3.8707,-3.8707,-3.8285,-3.7823,-3.7566,-3.707,-3.6431,-3.5573,-3.5408,-3.5243,-3.4688,-3.4578,-3.4578,-3.4578,-3.4578,-3.4578,-3.4578,-3.4578,-3.4578,-3.4578,-3.4578,-3.4578,-3.4578,-3.4578,-3.4816,-3.5371,-3.5408,-3.5789,-3.6615,-3.7437,-3.7878,-3.7878,-3.8414,-3.8707,-3.8707,-3.8707,-3.8707,-3.8707,-3.8707,-3.8707,-3.8707,-3.8707,-3.8707,-3.8707,-3.8707,-3.8707,-3.8707,-3.8707,-3.8707,-3.8707,-3.8707,-3.8707,-3.8707,-3.8707,-3.8707,-3.8707,-4.0091,-3.9819,-3.9599,-3.9599,-3.9599,-3.9599,-3.9599,-3.9302,-3.9099,-3.9099,-3.8869,-3.8707,-3.8707,-3.8707,-3.8707,-3.8707,-3.8707,-3.8707,-3.8707,-3.8707,-3.8707,-3.8707,-3.8707,-3.8707,-3.8707,-3.8707,-3.8707,-3.8707,-3.8707,-3.8707,-3.8707,-3.8707,-3.8707,-3.8707,-3.8707,-3.8707,-3.8707,-3.8707,-3.8707,-3.8707,-3.8707,-3.8707,-3.8707,-3.8707,-3.8707,-3.8707,-3.8707,-3.8707,-3.8707,-3.8707,-3.8707,-3.8707,-3.8707,-3.8707,-3.8707,-3.8707,-3.8707,-3.8707,-3.8707,-3.8707,-3.8707,-3.8707,-3.8707,-3.8487,-3.7694,-3.7511,-3.729,-3.6468,-3.6303,-3.6303,-3.6303,-3.6303,-3.6303,-3.6303,-3.6285,-3.6285,-3.6303,-3.6303,-3.6303,-3.6303,-3.6303,-3.6303,-3.6303,-3.6303,-3.6303,-3.6303,-3.6303,-3.6652,-3.7456,-3.8267,-3.8707,-3.8707,-3.8707,-3.8707,-3.8707,-3.8707,-3.8707,-3.8707,-3.8707,-3.8707,-3.8707,-3.8707,-3.8707,-3.8707,-3.8707,-3.8707,-3.8707,-3.8707,-3.8707,-3.8707,-3.8707,-3.8707,-3.8707,-3.8707,-3.8707,-3.8707,-3.9754,-3.9493,-3.9238,-3.9238,-3.9238,-3.9197,-3.9013,-3.8888,-3.8815,-3.8815,-3.8747,-3.8707,-3.8707,-3.8707,-3.8707,-3.8707,-3.8707,-3.8707,-3.8707,-3.8707,-3.8707,-3.8707,-3.8707,-3.8707,-3.8707,-3.8707,-3.8707,-3.8707,-3.8707,-3.8707,-3.8707,-3.8707,-3.8707,-3.8707,-3.8707,-3.8707,-3.8707,-3.8707,-3.8707,-3.8707,-3.8707,-3.8707,-3.8707,-3.8707,-3.8707,-3.8707,-3.8707,-3.8707,-3.8707,-3.8707,-3.8707,-3.8707,-3.8707,-3.8707,-3.8707,-3.8707,-3.8707,-3.8707,-3.8707,-3.8707,-3.8707,-3.8707,-3.8707,-3.8634,-3.8395,-3.834,-3.8102,-3.7309,-3.7144,-3.6978,-3.6395,-3.5994,-3.5851,-3.6241,-3.5677,-3.5449,-3.6194,-3.5979,-3.5884,-3.6256,-3.6303,-3.6303,-3.6303,-3.6303,-3.6387,-3.6572,-3.71,-3.7533,-3.7769,-3.8368,-3.8707,-3.8707,-3.8707,-3.8707,-3.8707,-3.8707,-3.8707,-3.8707,-3.8707,-3.8707,-3.8707,-3.8707,-3.8707,-3.8707,-3.8707,-3.8707,-3.8707,-3.8707,-3.8707,-3.8707,-3.8707,-3.8707,-3.8707,-3.8707,-3.8707,-3.8707,-3.9401,-3.9157,-3.8933,-3.8933,-3.8933,-3.8898,-3.8719,-3.8707,-3.8707,-3.8707,-3.8707,-3.8707,-3.8707,-3.8707,-3.8707,-3.8707,-3.8707,-3.8707,-3.8707,-3.8707,-3.8707,-3.8707,-3.8707,-3.8707,-3.8707,-3.8707,-3.8707,-3.8707,-3.8707,-3.8707,-3.8707,-3.8707,-3.8707,-3.8707,-3.8707,-3.8707,-3.8707,-3.8707,-3.8707,-3.8707,-3.8707,-3.8707,-3.8707,-3.8707,-3.8562,-3.8382,-3.8382,-3.8251,-3.8135,-3.8318,-3.8512,-3.8707,-3.8707,-3.8546,-3.8433,-3.8643,-3.8546,-3.8433,-3.8643,-3.8546,-3.8382,-3.8382,-3.8382,-3.8382,-3.8382,-3.8234,-3.7973,-3.7484,-3.7375,-3.723,-3.6743,-3.6386,-3.6285,-3.6604,-3.6112,-3.5919,-3.6553,-3.6369,-3.6284,-3.662,-3.6671,-3.6671,-3.6671,-3.6671,-3.6719,-3.6879,-3.7345,-3.7632,-3.7632,-3.8117,-3.8382,-3.8382,-3.8578,-3.8707,-3.8707,-3.8707,-3.8707,-3.8707,-3.8707,-3.8707,-3.8707,-3.8707,-3.8707,-3.8707,-3.8707,-3.8707,-3.8707,-3.8707,-3.8707,-3.8707,-3.8707,-3.8707,-3.8707,-3.8707,-3.8707,-3.8707,-3.9072,-3.8869,-3.8707,-3.8707,-3.8707,-3.8707,-3.8707,-3.8707,-3.8707,-3.8707,-3.8707,-3.8707,-3.8707,-3.8707,-3.8707,-3.8707,-3.8707,-3.8707,-3.8707,-3.8707,-3.8707,-3.8707,-3.8707,-3.8707,-3.8707,-3.8707,-3.8707,-3.8707,-3.8707,-3.8707,-3.8707,-3.8707,-3.8707,-3.8707,-3.8707,-3.8707,-3.8707,-3.8707,-3.8707,-3.8707,-3.8707,-3.8707,-3.8707,-3.8707,-3.8366,-3.7893,-3.7893,-3.7596,-3.7284,-3.7685,-3.8167,-3.858,-3.858,-3.8234,-3.7929,-3.8433,-3.8218,-3.7946,-3.8433,-3.8218,-3.7842,-3.7842,-3.7807,-3.7772,-3.7825,-3.7506,-3.7209,-3.7209,-3.7209,-3.7209,-3.7209,-3.7154,-3.7135,-3.7173,-3.7133,-3.7078,-3.719,-3.7171,-3.7152,-3.7192,-3.7209,-3.7209,-3.7209,-3.7171,-3.7133,-3.7133,-3.7133,-3.7133,-3.7133,-3.7578,-3.7859,-3.7893,-3.8382,-3.8643,-3.8707,-3.8707,-3.8707,-3.8707,-3.8707,-3.8707,-3.8707,-3.8707,-3.8707,-3.8707,-3.8707,-3.8707,-3.8707,-3.8707,-3.8707,-3.8707,-3.8707,-3.8707,-3.8707,-3.8707,-3.8707,-3.8707,-3.8888,-3.875,-3.8707,-3.8707,-3.8707,-3.8707,-3.8707,-3.8707,-3.8707,-3.8707,-3.8707,-3.8707,-3.8707,-3.8707,-3.8707,-3.8707,-3.8707,-3.8707,-3.8707,-3.8707,-3.8707,-3.8707,-3.8707,-3.8707,-3.8707,-3.8707,-3.8707,-3.8707,-3.8707,-3.8707,-3.8707,-3.8707,-3.8707,-3.8707,-3.8707,-3.8707,-3.8707,-3.8707,-3.8707,-3.8707,-3.8707,-3.8707,-3.8707,-3.8707,-3.8366,-3.7893,-3.7893,-3.7596,-3.7228,-3.7323,-3.7433,-3.7524,-3.7524,-3.7451,-3.736,-3.7487,-3.7433,-3.7378,-3.7487,-3.7451,-3.7341,-3.7341,-3.7039,-3.6825,-3.7248,-3.7267,-3.7209,-3.7209,-3.7209,-3.7209,-3.7209,-3.6862,-3.6704,-3.7133,-3.6501,-3.6249,-3.7078,-3.6843,-3.6724,-3.7152,-3.7209,-3.7209,-3.7209,-3.6823,-3.6563,-3.6563,-3.6563,-3.6563,-3.6563,-3.7058,-3.7524,-3.7894,-3.8013,-3.8283,-3.8692,-3.8707,-3.8707,-3.8707,-3.8707,-3.8707,-3.8707,-3.8707,-3.8707,-3.8707,-3.8707,-3.8707,-3.8707,-3.8707,-3.8707,-3.8707,-3.8707,-3.8707,-3.8707,-3.8707,-3.8707,-3.8707,-3.8765,-3.8707,-3.8707,-3.8707,-3.8707,-3.8707,-3.8707,-3.8707,-3.8707,-3.8707,-3.8707,-3.8707,-3.8707,-3.8707,-3.8707,-3.8707,-3.8707,-3.8707,-3.8707,-3.8707,-3.8707,-3.8707,-3.8707,-3.8707,-3.8707,-3.8707,-3.8707,-3.8707,-3.8707,-3.8707,-3.8707,-3.8707,-3.8707,-3.8707,-3.8707,-3.8707,-3.8707,-3.8707,-3.8707,-3.8707,-3.8707,-3.8707,-3.8707,-3.8707,-3.8234,-3.756,-3.756,-3.7248,-3.6823,-3.6823,-3.6999,-3.7209,-3.7209,-3.702,-3.6882,-3.7116,-3.7018,-3.6865,-3.7133,-3.7001,-3.6823,-3.6823,-3.6416,-3.6161,-3.6704,-3.6623,-3.644,-3.644,-3.644,-3.644,-3.644,-3.6207,-3.6118,-3.6378,-3.5968,-3.5805,-3.6357,-3.6203,-3.6118,-3.6399,-3.644,-3.644,-3.644,-3.6186,-3.6028,-3.6028,-3.6028,-3.6028,-3.6028,-3.6522,-3.6923,-3.7174,-3.7433,-3.7703,-3.7982,-3.8218,-3.8316,-3.8316,-3.8578,-3.8707,-3.8707,-3.8707,-3.8707,-3.8707,-3.8707,-3.8707,-3.8707,-3.8707,-3.8707,-3.8707,-3.8707,-3.8707,-3.8707,-3.8707,-3.8707,-3.8707,-3.8723,-3.8707,-3.8707,-3.8707,-3.8707,-3.8707,-3.8707,-3.8707,-3.8707,-3.8707,-3.8707,-3.8707,-3.8707,-3.8707,-3.8707,-3.8707,-3.8707,-3.8707,-3.8707,-3.8707,-3.8707,-3.8707,-3.8707,-3.8707,-3.8707,-3.8707,-3.8707,-3.8707,-3.8707,-3.8707,-3.8707,-3.8707,-3.8707,-3.8707,-3.8707,-3.8707,-3.8707,-3.8707,-3.8707,-3.8707,-3.8707,-3.8643,-3.8562,-3.8562,-3.7929,-3.7058,-3.7058,-3.6724,-3.6249,-3.6249,-3.6563,-3.6923,-3.6923,-3.6623,-3.6354,-3.6803,-3.6603,-3.6354,-3.6823,-3.6603,-3.6249,-3.6249,-3.5941,-3.5717,-3.6161,-3.592,-3.56,-3.56,-3.56,-3.56,-3.56,-3.56,-3.56,-3.56,-3.56,-3.56,-3.56,-3.56,-3.56,-3.56,-3.56,-3.56,-3.56,-3.56,-3.56,-3.56,-3.56,-3.56,-3.56,-3.6028,-3.6308,-3.6412,-3.6843,-3.7114,-3.7209,-3.7578,-3.7772,-3.779,-3.83,-3.8611,-3.8707,-3.8707,-3.8707,-3.8707,-3.8707,-3.8707,-3.8707,-3.8707,-3.8707,-3.8707,-3.8707,-3.8707,-3.8707,-3.8707,-3.8707,-3.8707,-3.875,-3.8707,-3.8707,-3.8707,-3.8707,-3.8707,-3.8707,-3.8707,-3.8707,-3.8707,-3.8707,-3.8707,-3.8707,-3.8707,-3.8707,-3.8707,-3.8707,-3.8707,-3.8707,-3.8707,-3.8707,-3.8707,-3.8707,-3.8707,-3.8707,-3.8707,-3.8707,-3.8707,-3.8707,-3.8707,-3.8707,-3.8707,-3.8707,-3.8707,-3.8707,-3.8707,-3.8707,-3.8707,-3.8707,-3.8707,-3.8707,-3.8415,-3.7997,-3.7997,-3.7379,-3.6519,-3.6519,-3.6161,-3.5717,-3.5717,-3.5761,-3.581,-3.581,-3.5783,-3.5717,-3.5805,-3.5783,-3.5717,-3.5805,-3.5761,-3.5717,-3.5717,-3.565,-3.5622,-3.5694,-3.5667,-3.56,-3.56,-3.56,-3.56,-3.56,-3.56,-3.56,-3.56,-3.56,-3.56,-3.56,-3.56,-3.56,-3.56,-3.56,-3.56,-3.56,-3.56,-3.56,-3.56,-3.56,-3.56,-3.56,-3.5672,-3.592,-3.6392,-3.6478,-3.6724,-3.7209,-3.7248,-3.7285,-3.7304,-3.779,-3.8251,-3.8707,-3.8707,-3.8707,-3.8707,-3.8707,-3.8707,-3.8707,-3.8707,-3.8707,-3.8707,-3.8707,-3.8707,-3.8707,-3.8707,-3.8707,-3.8707,-3.8719,-3.8707,-3.8707,-3.8707,-3.9074,-3.9368,-3.9368,-3.9753,-4.0031,-4.0031,-4.0031,-4.0031,-4.0031,-4.0031,-4.0031,-4.0031,-4.0031,-4.0031,-4.0031,-4.0031,-4.0031,-4.0031,-4.0031,-3.9845,-3.9386,-3.9368,-3.9148,-3.8707,-3.8707,-3.8707,-3.8707,-3.8707,-3.8707,-3.8707,-3.8707,-3.8707,-3.8707,-3.8707,-3.8707,-3.8707,-3.8707,-3.8562,-3.835,-3.835,-3.772,-3.6764,-3.6182,-3.5805,-3.56,-3.56,-3.56,-3.56,-3.56,-3.56,-3.56,-3.56,-3.56,-3.56,-3.56,-3.56,-3.56,-3.56,-3.56,-3.56,-3.56,-3.56,-3.56,-3.56,-3.56,-3.56,-3.56,-3.56,-3.56,-3.56,-3.56,-3.56,-3.56,-3.56,-3.56,-3.56,-3.56,-3.56,-3.56,-3.56,-3.56,-3.56,-3.56,-3.56,-3.56,-3.56,-3.5717,-3.5941,-3.5963,-3.6075,-3.6295,-3.6603,-3.6744,-3.6764,-3.7267,-3.7773,-3.8267,-3.8562,-3.8707,-3.8707,-3.8707,-3.8707,-3.8707,-3.8707,-3.8707,-3.8707,-3.8707,-3.853,-3.8249,-3.8249,-3.8083,-3.7895]},{"header":{"parameterUnit":"m.s-1","parameterCategory":1,"la1":30.6,"la2":28.766,"lo1":-90.7593,"lo2":-88.6598,"dy":0.0162,"dx":0.0183,"nx":116,"ny":114,"refTime":"2023-11-02T18:00:00:Z","depth":0,"parameterNumber":3,"parameterNumberName":"V-component_of_WINDS"},"data":[0.0,0.0,0.0,0.0,0.0,0.0,0.0,0.0,0.0,0.0,0.0,0.0,0.0,0.0,0.0,0.0,0.0,0.0,0.0,0.0,0.0,0.0,0.0,0.0,0.0,0.0,0.0,0.0,0.0,0.0,0.0,0.0,0.0,0.0,0.0,0.0,0.0,0.0,0.0,0.0,0.0,0.0,0.0,0.0,0.0,0.0,0.0,0.0,0.0,0.0,0.0,0.0,0.0,0.0,0.0,0.0,0.0,0.0,0.0,0.0,0.0,0.0,0.0,0.0,0.0,0.0,0.0,0.0,0.0,0.0,0.0,0.0,0.0,0.0,0.0,0.0,0.0,0.0,0.0,0.0,0.0,0.0,0.0,0.0,0.0,0.0,0.0,0.0,0.0,0.0,0.0,0.0,0.0,0.0,0.0,0.0,0.0,0.0,0.0,0.0,0.0,0.0,0.0,0.0,0.0,0.0,0.0,0.0,0.0,0.0,0.0,0.0,0.0,0.0,0.0,0.0,0.0,0.0,0.0,0.0,0.0,0.0,0.0,0.0,0.0,0.0,0.0,0.0,0.0,0.0,0.0,0.0,0.0,0.0,0.0,0.0,0.0,0.0,0.0,0.0,0.0,0.0,0.0,0.0,0.0,0.0,0.0,0.0,0.0,0.0,0.0,0.0,0.0,0.0,0.0,0.0,0.0,0.0,0.0,0.0,0.0,0.0,0.0,0.0,0.0,0.0,0.0,0.0,0.0,0.0,0.0,0.0,0.0,0.0,0.0,0.0,0.0,0.0,0.0,0.0,0.0,0.0,0.0,0.0,0.0,0.0,0.0,0.0,0.0,0.0,0.0,0.0,0.0,0.0,0.0,0.0,0.0,0.0,0.0,0.0,0.0,0.0,0.0,0.0,0.0,0.0,0.0,0.0,0.0,0.0,0.0,0.0,0.0,0.0,0.0,0.0,0.0,0.0,0.0,0.0,0.0,0.0,0.0,0.0,0.0,0.0,0.0,0.0,0.0,0.0,0.0,0.0,0.0,0.0,0.0,0.0,0.0,0.0,0.0,0.0,0.0,0.0,0.0,0.0,0.0,0.0,0.0,0.0,0.0,0.0,0.0,0.0,0.0,0.0,0.0,0.0,0.0,0.0,0.0,0.0,0.0,0.0,0.0,0.0,0.0,0.0,0.0,0.0,0.0,0.0,0.0,0.0,0.0,0.0,0.0,0.0,0.0,0.0,0.0,0.0,0.0,0.0,0.0,0.0,0.0,0.0,0.0,0.0,0.0,0.0,0.0,0.0,0.0,0.0,0.0,0.0,0.0,0.0,0.0,0.0,0.0,0.0,0.0,0.0,0.0,0.0,0.0,0.0,0.0,0.0,0.0,0.0,0.0,0.0,0.0,0.0,0.0,0.0,0.0,0.0,0.0,0.0,0.0,0.0,0.0,0.0,0.0,0.0,0.0,0.0,0.0,0.0,0.0,0.0,0.0,0.0,0.0,0.0,0.0,0.0,0.0,0.0,0.0,0.0,0.0,0.0,0.0,0.0,0.0,0.0,0.0,0.0,0.0,0.0,0.0,0.0,0.0,0.0,0.0,0.0,0.0,0.0,0.0,0.0,0.0,0.0,0.0,0.0,0.0,0.0,0.0,0.0,0.0,0.0,0.0,0.0,0.0,0.0,0.0,0.0,0.0,0.0,0.0,0.0,0.0,0.0,0.0,0.0,0.0,0.0,0.0,0.0,0.0,0.0,0.0,0.0,0.0,0.0,0.0,0.0,0.0,0.0,0.0,0.0,0.0,0.0,0.0,0.0,0.0,0.0,0.0,0.0,0.0,0.0,0.0,0.0,0.0,0.0,0.0,0.0,0.0,0.0,0.0,0.0,0.0,0.0,0.0,0.0,0.0,0.0,0.0,0.0,0.0,0.0,0.0,0.0,0.0,0.0,0.0,0.0,0.0,0.0,0.0,0.0,0.0,0.0,0.0,0.0,0.0,0.0,0.0,0.0,0.0,0.0,0.0,0.0,0.0,0.0,0.0,0.0,0.0,0.0,0.0,0.0,0.0,0.0,0.0,0.0,0.0,0.0,0.0,0.0,0.0,0.0,0.0,0.0,0.0,0.0,0.0,0.0,0.0,0.0,0.0,0.0,0.0,0.0,0.0,0.0,0.0,0.0,0.0,0.0,0.0,0.0,0.0,0.0,0.0,0.0,0.0,0.0,0.0,0.0,0.0,0.0,0.0,0.0,0.0,0.0,0.0,0.0,0.0,0.0,0.0,0.0,0.0,0.0,0.0,0.0,0.0,0.0,0.0,0.0,0.0,0.0,0.0,0.0,0.0,0.0,0.0,0.0,0.0,0.0,0.0,0.0,0.0,0.0,0.0,0.0,0.0,0.0,0.0,0.0,0.0,0.0,0.0,0.0,0.0,0.0,0.0,0.0,0.0,0.0,0.0,0.0,0.0,0.0,0.0,0.0,0.0,0.0,0.0,0.0,0.0,0.0,0.0,0.0,0.0,0.0,0.0,0.0,0.0,0.0,0.0,0.0,0.0,0.0,0.0,0.0,0.0,0.0,0.0,0.0,0.0,0.0,0.0,0.0,0.0,0.0,0.0,0.0,0.0,0.0,0.0,0.0,0.0,0.0,0.0,0.0,0.0,0.0,0.0,0.0,0.0,0.0,0.0,0.0,0.0,0.0,0.0,0.0,0.0,0.0,0.0,0.0,0.0,0.0,0.0,0.0,0.0,0.0,0.0,0.0,0.0,0.0,0.0,0.0,0.0,0.0,0.0,0.0,0.0,0.0,0.0,0.0,0.0,0.0,0.0,0.0,0.0,0.0,0.0,0.0,0.0,0.0,0.0,0.0,0.0,0.0,0.0,0.0,0.0,0.0,0.0,0.0,0.0,0.0,0.0,0.0,0.0,0.0,0.0,0.0,0.0,0.0,0.0,0.0,0.0,0.0,0.0,0.0,0.0,0.0,0.0,0.0,0.0,0.0,0.0,0.0,0.0,0.0,0.0,0.0,0.0,0.0,0.0,0.0,0.0,0.0,0.0,0.0,0.0,0.0,0.0,0.0,0.0,0.0,0.0,0.0,0.0,0.0,0.0,0.0,0.0,0.0,0.0,0.0,0.0,0.0,0.0,0.0,0.0,0.0,0.0,0.0,0.0,0.0,0.0,0.0,0.0,0.0,0.0,0.0,0.0,0.0,0.0,0.0,0.0,0.0,0.0,0.0,0.0,0.0,0.0,0.0,0.0,0.0,0.0,0.0,0.0,0.0,0.0,0.0,0.0,0.0,0.0,0.0,0.0,0.0,0.0,0.0,0.0,0.0,0.0,0.0,0.0,0.0,0.0,0.0,0.0,0.0,0.0,0.0,0.0,0.0,0.0,0.0,0.0,0.0,0.0,0.0,0.0,0.0,0.0,0.0,0.0,0.0,0.0,0.0,0.0,0.0,0.0,0.0,0.0,0.0,0.0,0.0,0.0,0.0,0.0,0.0,0.0,0.0,0.0,0.0,0.0,0.0,0.0,0.0,0.0,0.0,0.0,0.0,0.0,0.0,0.0,0.0,0.0,0.0,0.0,0.0,0.0,0.0,0.0,0.0,0.0,0.0,0.0,0.0,0.0,0.0,0.0,0.0,0.0,0.0,0.0,0.0,0.0,0.0,0.0,0.0,0.0,0.0,0.0,0.0,0.0,0.0,0.0,0.0,0.0,0.0,0.0,0.0,0.0,0.0,0.0,0.0,0.0,0.0,0.0,0.0,0.0,0.0,0.0,0.0,0.0,0.0,0.0,0.0,0.0,0.0,0.0,0.0,0.0,0.0,0.0,0.0,0.0,0.0,0.0,0.0,0.0,0.0,0.0,0.0,0.0,0.0,0.0,0.0,0.0,0.0,0.0,0.0,0.0,0.0,0.0,0.0,0.0,0.0,0.0,0.0,0.0,0.0,0.0,0.0,0.0,0.0,0.0,0.0,0.0,0.0,0.0,0.0,0.0,0.0,0.0,0.0,0.0,0.0,0.0,0.0,0.0,0.0,0.0,0.0,0.0,0.0,0.0,0.0,0.0,0.0,0.0,0.0,0.0,0.0,0.0,0.0,0.0,0.0,0.0,0.0,0.0,0.0,0.0,0.0,0.0,0.0,0.0,0.0,0.0,0.0,0.0,0.0,0.0,0.0,0.0,0.0,0.0,0.0,0.0,0.0,0.0,0.0,0.0,0.0,0.0,0.0,0.0,0.0,0.0,0.0,0.0,0.0,0.0,0.0,0.0,0.0,0.0,0.0,0.0,0.0,0.0,0.0,0.0,0.0,0.0,0.0,0.0,0.0,0.0,0.0,0.0,0.0,0.0,0.0,0.0,0.0,0.0,0.0,0.0,0.0,0.0,0.0,0.0,0.0,0.0,0.0,0.0,0.0,0.0,0.0,0.0,0.0,0.0,0.0,0.0,0.0,0.0,0.0,0.0,0.0,0.0,0.0,0.0,0.0,0.0,0.0,0.0,0.0,0.0,0.0,0.0,0.0,0.0,0.0,0.0,0.0,0.0,0.0,0.0,0.0,0.0,0.0,0.0,0.0,0.0,0.0,0.0,0.0,0.0,0.0,0.0,0.0,0.0,0.0,0.0,0.0,0.0,0.0,0.0,0.0,0.0,0.0,0.0,0.0,0.0,0.0,0.0,0.0,0.0,0.0,0.0,0.0,0.0,0.0,0.0,0.0,0.0,0.0,0.0,0.0,0.0,0.0,0.0,0.0,0.0,0.0,0.0,0.0,0.0,0.0,0.0,0.0,0.0,0.0,0.0,0.0,0.0,0.0,0.0,0.0,0.0,0.0,0.0,0.0,0.0,0.0,0.0,0.0,0.0,0.0,0.0,0.0,0.0,0.0,0.0,0.0,0.0,0.0,0.0,0.0,0.0,0.0,0.0,0.0,0.0,0.0,0.0,0.0,0.0,0.0,0.0,0.0,0.0,0.0,0.0,0.0,0.0,0.0,0.0,0.0,0.0,0.0,0.0,0.0,0.0,0.0,0.0,0.0,0.0,0.0,0.0,0.0,0.0,0.0,0.0,0.0,0.0,0.0,0.0,0.0,0.0,0.0,0.0,0.0,0.0,0.0,0.0,0.0,0.0,0.0,0.0,0.0,0.0,0.0,0.0,0.0,0.0,0.0,0.0,0.0,0.0,0.0,0.0,0.0,0.0,0.0,0.0,0.0,0.0,0.0,0.0,0.0,0.0,0.0,0.0,0.0,0.0,0.0,0.0,0.0,0.0,0.0,0.0,0.0,0.0,0.0,0.0,0.0,0.0,0.0,0.0,0.0,0.0,0.0,0.0,0.0,0.0,0.0,0.0,0.0,0.0,0.0,0.0,0.0,0.0,0.0,0.0,0.0,0.0,0.0,0.0,0.0,0.0,0.0,0.0,0.0,0.0,0.0,0.0,0.0,0.0,0.0,0.0,0.0,0.0,0.0,0.0,0.0,0.0,0.0,0.0,0.0,0.0,0.0,0.0,0.0,0.0,0.0,0.0,0.0,0.0,0.0,0.0,0.0,0.0,0.0,0.0,0.0,0.0,0.0,0.0,0.0,0.0,0.0,0.0,0.0,0.0,0.0,0.0,0.0,0.0,0.0,0.0,0.0,0.0,0.0,0.0,0.0,0.0,0.0,0.0,0.0,0.0,0.0,0.0,0.0,0.0,0.0,0.0,0.0,0.0,0.0,0.0,0.0,0.0,0.0,0.0,0.0,0.0,0.0,0.0,0.0,0.0,0.0,0.0,0.0,0.0,0.0,0.0,0.0,0.0,0.0,0.0,0.0,0.0,0.0,0.0,0.0,0.0,0.0,0.0,0.0,0.0,0.0,0.0,0.0,0.0,0.0,0.0,0.0,0.0,0.0,0.0,0.0,0.0,0.0,0.0,0.0,0.0,0.0,0.0,0.0,0.0,0.0,0.0,0.0,0.0,0.0,0.0,0.0,0.0,0.0,0.0,0.0,0.0,0.0,0.0,0.0,0.0,0.0,0.0,0.0,0.0,0.0,0.0,0.0,0.0,0.0,0.0,0.0,0.0,0.0,0.0,0.0,0.0,0.0,0.0,0.0,0.0,0.0,-0.7095,-0.7095,0.0,0.0,0.0,0.0,0.0,0.0,0.0,0.0,0.0,0.0,0.0,0.0,0.0,0.0,0.0,0.0,0.0,0.0,0.0,0.0,0.0,0.0,0.0,0.0,0.0,0.0,0.0,0.0,0.0,0.0,0.0,0.0,0.0,0.0,0.0,0.0,0.0,0.0,0.0,0.0,0.0,0.0,0.0,0.0,0.0,0.0,0.0,0.0,0.0,0.0,0.0,0.0,0.0,0.0,0.0,0.0,0.0,0.0,0.0,0.0,0.0,0.0,0.0,0.0,0.0,0.0,0.0,0.0,0.0,0.0,0.0,0.0,0.0,0.0,0.0,0.0,0.0,0.0,0.0,0.0,0.0,0.0,0.0,0.0,0.0,0.0,0.0,0.0,0.0,0.0,0.0,0.0,0.0,0.0,0.0,0.0,0.0,0.0,0.0,0.0,0.0,0.0,0.0,0.0,0.0,0.0,0.0,0.0,0.0,0.0,0.0,0.0,0.0,0.0,-0.7095,-0.7095,0.0,0.0,0.0,0.0,0.0,0.0,0.0,0.0,0.0,0.0,0.0,0.0,0.0,0.0,0.0,0.0,0.0,0.0,0.0,0.0,0.0,0.0,0.0,0.0,0.0,0.0,0.0,0.0,0.0,0.0,0.0,0.0,0.0,0.0,0.0,0.0,0.0,0.0,0.0,0.0,0.0,0.0,0.0,0.0,0.0,0.0,0.0,0.0,0.0,0.0,0.0,0.0,0.0,0.0,0.0,0.0,0.0,0.0,0.0,0.0,0.0,0.0,0.0,0.0,0.0,0.0,0.0,0.0,0.0,0.0,0.0,0.0,0.0,0.0,0.0,0.0,0.0,0.0,0.0,0.0,0.0,0.0,0.0,0.0,0.0,0.0,0.0,0.0,0.0,0.0,0.0,0.0,0.0,0.0,0.0,0.0,0.0,0.0,0.0,0.0,0.0,0.0,0.0,0.0,0.0,0.0,0.0,0.0,-0.5372,-0.5955,-0.6901,-0.7083,-0.7176,-0.7176,-0.7176,-0.7146,-0.7095,-0.7095,0.0,0.0,0.0,0.0,0.0,0.0,0.0,0.0,0.0,0.0,0.0,0.0,0.0,0.0,0.0,0.0,0.0,0.0,0.0,0.0,0.0,-0.63,-0.6257,-0.6103,-0.5237,-0.5081,0.0,0.0,0.0,0.0,0.0,0.0,0.0,0.0,0.0,0.0,0.0,0.0,0.0,0.0,0.0,0.0,0.0,0.0,0.0,0.0,0.0,0.0,0.0,0.0,0.0,0.0,0.0,0.0,0.0,0.0,0.0,0.0,0.0,0.0,0.0,0.0,0.0,0.0,0.0,0.0,0.0,0.0,0.0,0.0,0.0,0.0,0.0,0.0,0.0,0.0,0.0,0.0,0.0,0.0,0.0,0.0,0.0,0.0,0.0,0.0,0.0,0.0,0.0,0.0,0.0,0.0,0.0,0.0,0.0,0.0,0.0,0.0,0.0,0.0,0.0,-0.3422,-0.3578,-0.372,-0.3861,-0.4002,-0.5176,-0.5834,-0.6021,-0.7063,-0.7539,-0.7539,-0.7539,0.0,-0.7095,-0.7095,0.0,0.0,0.0,0.0,0.0,0.0,0.0,0.0,0.0,0.0,0.0,0.0,0.0,0.0,0.0,0.0,0.0,0.0,0.0,0.0,0.0,-0.63,-0.63,-0.63,-0.5934,-0.5921,-0.6468,0.0,0.0,0.0,0.0,0.0,0.0,0.0,0.0,0.0,-0.059,0.0,0.0,0.0,0.0,0.0,0.0,0.0,0.0,0.0,0.0,0.0,0.0,0.0,0.0,0.0,0.0,0.0,0.0,0.0,0.0,0.0,0.0,0.0,0.0,0.0,0.0,0.0,0.0,0.0,0.0,0.0,0.0,0.0,0.0,0.0,0.0,0.0,0.0,0.0,0.0,0.0,0.0,0.0,0.0,0.0,0.0,0.0,0.0,0.0,0.0,0.0,0.0,0.0,0.0,0.0,0.0,0.0,0.0,0.0,0.0,0.0,0.0,-0.1785,-0.1643,-0.1555,-0.1569,-0.2376,-0.3134,-0.3798,-0.5169,-0.6164,-0.6832,-0.7359,-0.76,-0.76,-0.76,-0.7522,-0.7397,-0.7397,-0.7346,-0.7272,0.0,0.0,0.0,0.0,-0.7095,-0.7095,0.0,0.0,0.0,0.0,0.0,0.0,0.0,0.0,0.0,0.0,0.0,0.0,-0.63,-0.63,-0.63,-0.63,-0.6429,-0.6528,-0.6569,-0.5924,0.0,0.0,0.0,0.0,0.0,0.0,0.0,-0.1865,-0.097,-0.0326,0.0,0.0,0.0,0.0,0.0,0.0,0.0,0.0,0.0,0.0,0.0,0.0,0.0,0.0,0.0,0.0,0.0,0.0,0.0,0.0,0.0,0.0,0.0,0.0,0.0,0.0,0.0,0.0,0.0,0.0,0.0,0.0,0.0,0.0,0.0,0.0,0.0,0.0,0.0,0.0,0.0,0.0,0.0,0.0,0.0,0.0,0.0,0.0,0.0,0.0,0.0,0.0,0.0,0.0,0.0,0.0,0.0,0.0,-0.1284,-0.0476,-0.043,-0.1295,-0.0482,-0.0194,-0.0536,-0.1906,-0.323,-0.4497,-0.5861,-0.694,-0.7824,-0.7824,-0.7824,-0.7824,-0.7787,-0.777,-0.7763,-0.7648,-0.7533,-0.7431,-0.7431,-0.736,-0.7213,-0.7213,-0.7213,-0.7206,0.0,0.0,0.0,0.0,0.0,0.0,0.0,0.0,0.0,0.0,0.0,-0.63,-0.63,-0.63,-0.63,-0.63,-0.6429,-0.6573,-0.6678,-0.6753,-0.6857,0.0,0.0,0.0,0.0,0.0,0.0,-0.1993,-0.1947,-0.1236,0.0,0.0,0.0,0.0,0.0,0.0,0.0,0.0,0.0,0.0,0.0,0.0,0.0,0.0,0.0,0.0,0.0,0.0,0.0,0.0,0.0,0.0,0.0,0.0,0.0,0.0,0.0,0.0,0.0,0.0,0.0,0.0,0.0,0.0,0.0,0.0,0.0,0.0,0.0,0.0,0.0,0.0,0.0,0.0,0.0,0.0,0.0,0.0,0.0,0.0,0.0,0.0,0.0,0.0,0.0,0.0,0.0,-0.0048,-0.0095,-0.0048,-0.0048,-0.0098,-0.005,-0.066,-0.2061,-0.3402,-0.4853,-0.638,-0.7697,-0.8383,-0.8438,-0.8438,-0.8438,-0.8431,-0.8296,-0.8289,-0.8255,-0.7777,-0.7594,-0.7587,-0.7587,-0.7584,-0.7577,-0.7577,-0.7577,-0.7556,0.0,0.0,0.0,0.0,0.0,0.0,0.0,0.0,0.0,-0.63,-0.63,-0.63,-0.63,-0.63,-0.63,-0.63,-0.6521,-0.6644,-0.6698,-0.6886,-0.7045,0.0,0.0,0.0,0.0,0.0,-0.4007,-0.3136,-0.1494,-0.0489,0.0,0.0,0.0,0.0,0.0,0.0,0.0,0.0,0.0,0.0,0.0,0.0,0.0,0.0,0.0,0.0,0.0,0.0,0.0,0.0,0.0,0.0,0.0,0.0,0.0,0.0,0.0,0.0,0.0,0.0,0.0,0.0,0.0,0.0,0.0,0.0,0.0,0.0,0.0,0.0,0.0,0.0,0.0,0.0,0.0,0.0,0.0,0.0,0.0,0.0,0.0,0.0,0.0,0.0,0.0,0.0,0.0,0.0,0.0,0.0,0.0,0.0,0.0,-0.0734,-0.2211,-0.3544,-0.4984,-0.6519,-0.7842,-0.8482,-0.8482,-0.8482,-0.8482,-0.8479,-0.8428,-0.8408,-0.8394,-0.8235,-0.7997,-0.7736,-0.7736,-0.7682,-0.76,-0.76,-0.76,-0.7594,0.0,0.0,0.0,0.0,0.0,0.0,0.0,0.0,0.0,-0.63,-0.63,-0.63,-0.63,-0.63,-0.63,-0.63,-0.6529,-0.6702,-0.6702,-0.7024,-0.7217,0.0,0.0,0.0,0.0,-0.5353,-0.403,-0.3178,-0.1498,-0.0457,0.0,0.0,0.0,0.0,0.0,0.0,0.0,0.0,0.0,0.0,0.0,0.0,0.0,0.0,0.0,0.0,0.0,0.0,0.0,0.0,0.0,0.0,0.0,0.0,0.0,0.0,0.0,0.0,0.0,0.0,0.0,0.0,0.0,0.0,0.0,0.0,0.0,0.0,0.0,0.0,0.0,0.0,0.0,0.0,0.0,0.0,0.0,0.0,0.0,0.0,0.0,0.0,0.0,0.0,0.0,0.0,0.0,0.0,0.0,0.0,0.0,0.0,-0.0482,-0.145,-0.2948,-0.436,-0.5829,-0.7338,-0.8204,-0.8635,-0.8635,-0.8635,-0.8635,-0.8632,-0.8581,-0.856,-0.8557,-0.8503,-0.8306,-0.8035,-0.7984,-0.7875,-0.7746,-0.7746,-0.7746,-0.774,0.0,0.0,0.0,0.0,0.0,0.0,0.0,0.0,-0.63,-0.63,-0.63,-0.63,-0.63,-0.63,-0.63,-0.63,-0.6529,-0.6702,-0.6709,-0.7126,-0.7419,0.0,0.0,0.0,-0.5817,-0.5726,-0.4465,-0.2019,-0.195,-0.1278,0.0,0.0,0.0,0.0,0.0,0.0,0.0,0.0,0.0,0.0,0.0,0.0,0.0,0.0,0.0,0.0,0.0,0.0,0.0,0.0,0.0,0.0,0.0,0.0,0.0,0.0,0.0,0.0,0.0,0.0,0.0,0.0,0.0,0.0,0.0,0.0,0.0,0.0,0.0,0.0,0.0,0.0,0.0,0.0,0.0,0.0,0.0,0.0,0.0,0.0,0.0,0.0,0.0,0.0,0.0,0.0,0.0,0.0,0.0,0.0,0.0,0.0,-0.1409,-0.2892,-0.4416,-0.587,-0.7315,-0.8771,-0.8826,-0.8826,-0.8826,-0.8881,-0.8885,-0.8875,-0.8781,-0.8716,-0.8706,-0.8557,-0.8492,-0.8476,-0.8385,-0.8184,-0.8005,-0.7998,-0.7992,-0.7968,0.0,0.0,0.0,0.0,0.0,0.0,0.0,-0.63,-0.63,-0.63,-0.63,-0.63,-0.63,-0.63,-0.63,-0.63,-0.6529,-0.6749,-0.6858,-0.7183,0.0,0.0,0.0,0.0,-0.5949,-0.404,-0.2692,-0.2005,-0.1009,-0.0376,0.0,0.0,0.0,0.0,0.0,0.0,0.0,0.0,0.0,0.0,0.0,0.0,0.0,0.0,0.0,0.0,0.0,0.0,0.0,0.0,0.0,0.0,0.0,0.0,0.0,0.0,0.0,0.0,0.0,0.0,0.0,0.0,0.0,0.0,0.0,0.0,0.0,0.0,0.0,0.0,0.0,0.0,0.0,0.0,0.0,0.0,0.0,0.0,0.0,0.0,0.0,0.0,0.0,0.0,0.0,0.0,0.0,0.0,0.0,0.0,0.0,0.0,-0.0389,-0.1334,-0.283,-0.3232,-0.4188,-0.5697,-0.6813,-0.7315,-0.7315,-0.8432,-0.8885,-0.8881,-0.8841,-0.8821,-0.8817,-0.8828,-0.8747,-0.8632,-0.8482,-0.8397,-0.8347,-0.8245,-0.8136,-0.7985,0.0,0.0,0.0,0.0,0.0,0.0,0.0,-0.63,-0.63,-0.63,-0.63,-0.63,-0.63,-0.63,-0.63,-0.63,-0.659,-0.6834,-0.6879,-0.7322,0.0,0.0,0.0,-0.5708,-0.5265,-0.3722,-0.2975,-0.3061,-0.1624,-0.093,-0.0884,-0.0276,0.0,0.0,0.0,0.0,0.0,0.0,0.0,0.0,0.0,0.0,0.0,0.0,0.0,0.0,0.0,0.0,0.0,0.0,0.0,0.0,0.0,0.0,0.0,0.0,0.0,0.0,0.0,0.0,0.0,0.0,0.0,0.0,0.0,0.0,0.0,0.0,0.0,0.0,0.0,0.0,0.0,0.0,0.0,0.0,0.0,0.0,0.0,0.0,0.0,0.0,0.0,0.0,0.0,0.0,0.0,0.0,0.0,0.0,0.0,0.0,-0.0616,-0.1343,-0.218,-0.285,-0.3632,-0.4528,-0.5975,-0.6702,-0.6758,-0.8211,-0.8885,-0.8885,-0.8885,-0.8885,-0.8885,-0.8885,-0.8831,-0.8791,0.0,0.0,0.0,0.0,-0.8303,-0.8218,0.0,0.0,0.0,0.0,0.0,0.0,0.0,-0.63,-0.63,-0.63,-0.63,-0.63,-0.63,-0.63,-0.63,-0.63,-0.6654,-0.6889,-0.6957,0.0,0.0,-0.6074,-0.6035,-0.5478,-0.4245,-0.4229,-0.4307,-0.448,-0.294,-0.218,-0.218,-0.0672,0.0,0.0,0.0,0.0,0.0,0.0,0.0,0.0,0.0,0.0,0.0,0.0,0.0,0.0,0.0,0.0,0.0,0.0,0.0,0.0,0.0,0.0,0.0,0.0,0.0,0.0,0.0,0.0,0.0,0.0,0.0,0.0,0.0,0.0,0.0,0.0,0.0,0.0,0.0,0.0,0.0,0.0,0.0,0.0,0.0,0.0,0.0,0.0,0.0,0.0,0.0,0.0,0.0,0.0,0.0,0.0,0.0,0.0,0.0,0.0,0.0,-0.1956,-0.1956,-0.3297,-0.3968,-0.4024,-0.5641,-0.6478,-0.6533,-0.8156,-0.8885,-0.8885,-0.8885,-0.8885,-0.8885,-0.8885,-0.8885,-0.8868,-0.8791,-0.8642,-0.8509,-0.8509,-0.8496,-0.8465,0.0,0.0,0.0,0.0,0.0,0.0,0.0,-0.63,-0.63,-0.63,-0.63,-0.63,-0.63,-0.63,-0.63,-0.63,-0.6559,-0.6949,0.0,0.0,-0.7238,-0.6074,-0.6134,-0.5611,-0.422,-0.4364,-0.4441,-0.4505,-0.2957,-0.218,-0.218,-0.0672,0.0,0.0,0.0,0.0,0.0,0.0,0.0,0.0,0.0,0.0,0.0,0.0,0.0,0.0,0.0,0.0,0.0,0.0,0.0,0.0,0.0,0.0,0.0,0.0,0.0,0.0,0.0,0.0,0.0,0.0,0.0,0.0,0.0,0.0,0.0,0.0,0.0,0.0,0.0,0.0,0.0,0.0,0.0,0.0,0.0,0.0,0.0,0.0,0.0,0.0,0.0,0.0,0.0,0.0,0.0,0.0,0.0,0.0,0.0,0.0,-0.028,-0.0448,-0.0448,-0.0728,-0.0896,-0.0896,-0.3632,0.0,-0.5027,-0.7706,-0.8885,-0.8885,-0.8885,-0.8885,-0.8885,-0.8885,-0.8885,-0.8878,-0.8851,-0.8801,-0.8665,-0.8665,-0.8587,-0.8479,0.0,0.0,0.0,0.0,0.0,0.0,0.0,-0.63,-0.63,-0.63,-0.63,-0.63,-0.63,-0.63,-0.6327,-0.6402,-0.6705,0.0,0.0,-0.7773,-0.7238,-0.6074,-0.6083,-0.5881,-0.5352,-0.5448,-0.5873,-0.6702,-0.4468,-0.3352,-0.3296,-0.1064,0.0,0.0,0.0,0.0,0.0,0.0,0.0,0.0,0.0,0.0,0.0,0.0,0.0,0.0,0.0,0.0,0.0,0.0,0.0,0.0,0.0,0.0,0.0,0.0,0.0,0.0,0.0,0.0,0.0,0.0,0.0,0.0,0.0,0.0,0.0,0.0,0.0,0.0,0.0,0.0,0.0,0.0,0.0,0.0,0.0,0.0,0.0,0.0,0.0,0.0,0.0,0.0,0.0,0.0,0.0,0.0,0.0,0.0,0.0,0.0,0.0,0.0,0.0,0.0,0.0,0.0,-0.2293,-0.3352,-0.3463,-0.642,-0.7817,-0.782,-0.8602,-0.8885,-0.8885,-0.8885,-0.8885,-0.8885,-0.8885,-0.8838,-0.8825,-0.8825,-0.8777,-0.8699,0.0,0.0,0.0,0.0,0.0,0.0,0.0,0.0,-0.63,-0.63,-0.63,-0.63,-0.63,-0.63,-0.6368,-0.6542,0.0,0.0,0.0,-0.7753,-0.7201,-0.5991,-0.6278,-0.6458,-0.6516,-0.6794,-0.7574,-0.8885,-0.5919,-0.4526,-0.4414,-0.14,0.0,0.0,0.0,0.0,0.0,0.0,0.0,0.0,0.0,0.0,0.0,0.0,0.0,0.0,0.0,0.0,0.0,0.0,0.0,0.0,0.0,0.0,0.0,0.0,0.0,0.0,0.0,0.0,0.0,0.0,0.0,0.0,0.0,0.0,0.0,0.0,0.0,0.0,0.0,0.0,0.0,0.0,0.0,0.0,0.0,0.0,0.0,0.0,0.0,0.0,0.0,0.0,0.0,0.0,0.0,0.0,0.0,0.0,0.0,0.0,0.0,0.0,0.0,0.0,0.0,0.0,-0.151,-0.218,-0.2291,-0.5303,-0.6702,-0.6758,-0.8266,-0.8885,-0.8885,-0.8885,-0.8885,-0.8885,-0.8885,-0.8885,-0.8885,-0.8885,-0.8885,-0.8865,0.0,0.0,0.0,0.0,0.0,0.0,0.0,0.0,0.0,-0.63,-0.63,-0.63,-0.63,-0.63,-0.6412,-0.6651,0.0,0.0,-0.7436,-0.7546,-0.7063,-0.5871,-0.7252,-0.7553,-0.6516,-0.7767,-0.8621,-0.8885,-0.5919,-0.4526,-0.4414,-0.14,0.0,0.0,0.0,0.0,0.0,0.0,0.0,0.0,0.0,0.0,0.0,0.0,0.0,0.0,0.0,0.0,0.0,0.0,0.0,0.0,0.0,0.0,0.0,0.0,0.0,0.0,0.0,0.0,0.0,0.0,0.0,0.0,0.0,0.0,0.0,0.0,0.0,0.0,0.0,0.0,0.0,0.0,0.0,0.0,0.0,0.0,0.0,0.0,0.0,0.0,0.0,0.0,0.0,0.0,0.0,0.0,0.0,0.0,0.0,0.0,0.0,0.0,0.0,0.0,0.0,0.0,-0.151,-0.218,-0.2291,-0.5303,-0.6702,-0.6758,-0.8266,-0.8885,-0.8885,-0.8885,-0.8885,-0.8885,-0.8885,-0.8885,-0.8885,-0.8885,-0.8885,-0.8881,0.0,0.0,0.0,0.0,0.0,0.0,0.0,0.0,0.0,0.0,-0.63,-0.63,-0.63,-0.6375,-0.6474,0.0,0.0,0.0,-0.7217,-0.738,-0.7332,-0.697,-0.7635,-0.7862,-0.7568,-0.8157,-0.857,-0.8804,-0.5777,-0.4371,-0.4414,-0.14,0.0,0.0,0.0,0.0,0.0,0.0,0.0,0.0,0.0,0.0,0.0,0.0,0.0,0.0,0.0,0.0,0.0,0.0,0.0,0.0,0.0,0.0,0.0,0.0,0.0,0.0,0.0,0.0,0.0,0.0,0.0,0.0,0.0,0.0,0.0,0.0,0.0,0.0,0.0,0.0,0.0,0.0,0.0,0.0,0.0,0.0,0.0,0.0,0.0,0.0,0.0,0.0,0.0,0.0,0.0,0.0,0.0,0.0,0.0,0.0,0.0,0.0,0.0,0.0,0.0,0.0,-0.0616,-0.0896,-0.1008,-0.3129,-0.5023,-0.6758,-0.8266,-0.8885,-0.8885,-0.8885,-0.8885,-0.8885,-0.8885,-0.8885,-0.8885,-0.8885,-0.8885,-0.8885,0.0,0.0,0.0,0.0,0.0,0.0,0.0,0.0,0.0,0.0,0.0,-0.63,-0.63,-0.6392,0.0,0.0,0.0,0.0,0.0,-0.7224,-0.7421,-0.7678,-0.7767,-0.7936,-0.8201,-0.8248,-0.8394,-0.8648,-0.5672,-0.4298,-0.4354,-0.138,0.0,0.0,0.0,0.0,0.0,0.0,0.0,0.0,0.0,0.0,0.0,0.0,0.0,0.0,0.0,0.0,0.0,0.0,0.0,0.0,0.0,0.0,0.0,0.0,0.0,0.0,0.0,0.0,0.0,0.0,0.0,0.0,0.0,0.0,0.0,0.0,0.0,0.0,0.0,0.0,0.0,0.0,0.0,0.0,0.0,0.0,0.0,0.0,0.0,0.0,0.0,0.0,0.0,0.0,0.0,0.0,0.0,0.0,0.0,0.0,0.0,0.0,0.0,0.0,0.0,0.0,0.0,0.0,-0.0056,-0.151,-0.3852,-0.6755,-0.782,-0.8546,-0.8885,-0.8885,-0.8885,-0.8885,-0.8885,-0.8885,-0.8885,-0.8885,-0.8885,-0.8885,0.0,0.0,0.0,0.0,0.0,0.0,0.0,0.0,0.0,0.0,0.0,0.0,0.0,0.0,0.0,0.0,0.0,0.0,0.0,-0.7024,-0.7217,-0.7422,-0.7658,-0.7885,-0.7992,-0.8194,-0.8343,-0.8489,-0.5622,-0.4194,-0.4143,-0.1332,0.0,0.0,0.0,0.0,0.0,0.0,0.0,0.0,0.0,0.0,0.0,0.0,0.0,0.0,0.0,0.0,0.0,0.0,0.0,0.0,0.0,0.0,0.0,0.0,0.0,0.0,0.0,0.0,0.0,0.0,0.0,0.0,0.0,0.0,0.0,0.0,0.0,0.0,0.0,0.0,0.0,0.0,0.0,0.0,0.0,0.0,0.0,0.0,0.0,0.0,0.0,0.0,0.0,0.0,0.0,0.0,0.0,0.0,0.0,0.0,0.0,0.0,0.0,0.0,0.0,0.0,0.0,0.0,-0.0056,-0.151,-0.3852,-0.6702,-0.6758,-0.7595,-0.8885,-0.8885,-0.8885,-0.8885,-0.8885,-0.8885,-0.8885,-0.8885,-0.8885,-0.8885,0.0,0.0,0.0,0.0,0.0,0.0,0.0,0.0,0.0,0.0,0.0,0.0,0.0,0.0,0.0,0.0,0.0,0.0,0.0,-0.6766,-0.6959,-0.7207,-0.7267,-0.7439,-0.7743,-0.7892,-0.8038,-0.8187,-0.6318,-0.498,-0.4136,-0.2232,-0.0852,0.0,0.0,0.0,0.0,0.0,0.0,0.0,0.0,0.0,0.0,0.0,0.0,0.0,0.0,0.0,0.0,0.0,0.0,0.0,0.0,0.0,0.0,0.0,0.0,0.0,0.0,0.0,0.0,0.0,0.0,0.0,0.0,0.0,0.0,0.0,0.0,0.0,0.0,0.0,0.0,0.0,0.0,0.0,0.0,0.0,0.0,0.0,0.0,0.0,0.0,0.0,0.0,0.0,0.0,0.0,0.0,0.0,0.0,0.0,0.0,0.0,0.0,0.0,0.0,0.0,0.0,0.0,-0.0056,-0.151,-0.2737,-0.3852,-0.5806,-0.698,-0.754,-0.8491,-0.8885,-0.8885,-0.8885,-0.8885,-0.8885,-0.8885,-0.8885,-0.8885,0.0,0.0,0.0,0.0,0.0,0.0,0.0,0.0,0.0,0.0,0.0,0.0,0.0,0.0,0.0,0.0,0.0,0.0,0.0,0.0,-0.6729,-0.693,-0.7041,-0.7186,-0.7431,-0.7634,-0.7784,-0.7833,-0.6528,-0.5448,-0.4692,-0.3217,-0.1893,-0.0667,-0.0667,-0.041,0.0,0.0,0.0,0.0,0.0,0.0,0.0,0.0,0.0,0.0,0.0,0.0,0.0,0.0,0.0,0.0,0.0,0.0,0.0,0.0,0.0,0.0,0.0,0.0,0.0,0.0,0.0,0.0,0.0,0.0,0.0,0.0,0.0,0.0,0.0,0.0,0.0,0.0,0.0,0.0,0.0,0.0,0.0,0.0,0.0,0.0,0.0,0.0,0.0,0.0,0.0,0.0,0.0,0.0,0.0,0.0,0.0,0.0,0.0,0.0,0.0,0.0,0.0,0.0,-0.0056,-0.1008,-0.1677,-0.2347,-0.4858,-0.6197,-0.6813,-0.8266,-0.8885,-0.8885,-0.8885,-0.8885,-0.8885,-0.8885,-0.8885,-0.8885,0.0,0.0,0.0,0.0,0.0,0.0,0.0,0.0,0.0,0.0,0.0,0.0,0.0,0.0,0.0,0.0,0.0,0.0,0.0,0.0,0.0,-0.6681,-0.6913,-0.7065,-0.7071,-0.7421,-0.7577,-0.7577,-0.63,-0.5688,-0.5591,-0.4222,-0.2945,-0.1808,-0.1713,-0.1095,0.0,0.0,0.0,0.0,0.0,0.0,0.0,0.0,0.0,0.0,0.0,0.0,0.0,0.0,0.0,0.0,0.0,0.0,0.0,0.0,0.0,0.0,-0.0101,-0.005,0.0,-0.0101,-0.005,0.0,0.0,0.0,0.0,0.0,0.0,0.0,0.0,0.0,0.0,0.0,0.0,0.0,0.0,0.0,0.0,0.0,0.0,0.0,0.0,0.0,0.0,0.0,0.0,0.0,0.0,0.0,0.0,0.0,0.0,0.0,0.0,0.0,0.0,0.0,0.0,0.0,0.0,0.0,-0.0784,-0.2291,-0.3744,-0.5252,-0.6813,-0.8211,-0.8826,-0.8885,-0.8885,-0.8885,-0.8885,-0.8885,-0.8885,-0.8885,0.0,0.0,0.0,0.0,0.0,0.0,0.0,0.0,0.0,0.0,0.0,0.0,0.0,0.0,0.0,0.0,0.0,0.0,0.0,0.0,0.0,0.0,0.0,0.0,0.0,0.0,0.0,0.0,-0.7154,-0.6593,-0.5591,-0.4316,-0.304,-0.1761,-0.0857,-0.0286,0.0,0.0,0.0,0.0,0.0,0.0,0.0,0.0,0.0,0.0,0.0,0.0,0.0,0.0,0.0,0.0,0.0,0.0,0.0,0.0,0.0,-0.0202,-0.1209,-0.0756,-0.0252,-0.126,-0.0756,0.0,0.0,0.0,0.0,0.0,0.0,0.0,0.0,0.0,0.0,0.0,0.0,0.0,0.0,0.0,0.0,0.0,0.0,0.0,0.0,0.0,0.0,0.0,0.0,0.0,0.0,0.0,0.0,0.0,0.0,0.0,0.0,0.0,0.0,0.0,0.0,0.0,0.0,0.0,-0.0784,-0.2235,-0.2626,-0.43,-0.6702,-0.7091,-0.7931,-0.8885,-0.8885,-0.8885,-0.8885,-0.8885,-0.8885,-0.8885,0.0,0.0,0.0,0.0,0.0,0.0,0.0,0.0,0.0,0.0,0.0,0.0,0.0,0.0,0.0,0.0,0.0,0.0,0.0,0.0,0.0,0.0,0.0,0.0,0.0,0.0,0.0,0.0,0.0,0.0,-0.5375,-0.4695,-0.344,-0.1761,-0.1113,-0.0511,0.0,0.0,0.0,0.0,0.0,0.0,0.0,0.0,0.0,0.0,0.0,0.0,0.0,0.0,0.0,0.0,0.0,0.0,0.0,0.0,0.0,-0.0907,-0.1058,-0.1008,-0.1058,-0.1812,-0.1008,-0.0151,-0.0756,-0.0404,0.0,0.0,0.0,0.0,0.0,0.0,0.0,0.0,0.0,0.0,0.0,0.0,0.0,0.0,0.0,0.0,0.0,0.0,0.0,0.0,0.0,0.0,0.0,0.0,0.0,0.0,0.0,0.0,0.0,0.0,0.0,0.0,0.0,0.0,0.0,0.0,-0.0448,-0.1287,-0.1901,-0.3183,-0.4801,-0.6142,-0.7204,-0.7986,-0.8657,-0.8885,-0.8885,-0.8885,-0.8885,-0.8885,0.0,0.0,0.0,0.0,0.0,0.0,0.0,0.0,0.0,0.0,0.0,0.0,0.0,0.0,0.0,0.0,0.0,0.0,0.0,0.0,0.0,0.0,0.0,0.0,0.0,0.0,0.0,0.0,0.0,0.0,0.0,0.0,0.0,0.0,0.0,0.0,0.0,0.0,0.0,0.0,0.0,0.0,0.0,0.0,0.0,0.0,0.0,0.0,0.0,0.0,0.0,0.0,0.0,0.0,0.0,0.0,-0.0956,-0.1762,-0.0605,-0.1109,-0.2013,-0.2013,-0.1008,-0.0303,-0.146,-0.0857,0.0,0.0,0.0,0.0,0.0,0.0,0.0,0.0,0.0,0.0,0.0,0.0,0.0,0.0,0.0,0.0,0.0,0.0,0.0,0.0,0.0,0.0,0.0,0.0,0.0,0.0,0.0,0.0,0.0,0.0,0.0,0.0,0.0,0.0,0.0,0.0,-0.0112,-0.0336,-0.1454,-0.2235,-0.296,-0.5415,-0.6647,-0.7091,-0.838,-0.8885,-0.8885,-0.8885,-0.8885,-0.8885,0.0,0.0,0.0,0.0,0.0,0.0,0.0,0.0,0.0,0.0,-0.63,0.0,0.0,0.0,0.0,0.0,0.0,0.0,0.0,0.0,0.0,0.0,0.0,0.0,0.0,0.0,0.0,0.0,-0.6637,0.0,0.0,0.0,0.0,0.0,0.0,0.0,0.0,0.0,0.0,0.0,0.0,0.0,0.0,0.0,0.0,0.0,0.0,0.0,0.0,0.0,0.0,0.0,0.0,0.0,0.0,0.0,-0.0946,-0.1963,-0.1711,-0.1812,-0.2013,-0.2013,-0.1008,-0.005,-0.0303,-0.0151,0.0,0.0,0.0,0.0,0.0,0.0,0.0,0.0,0.0,0.0,0.0,0.0,0.0,0.0,0.0,0.0,0.0,0.0,0.0,0.0,0.0,0.0,0.0,0.0,0.0,0.0,0.0,0.0,0.0,0.0,0.0,0.0,0.0,0.0,0.0,0.0,-0.0672,-0.1789,-0.0784,-0.2516,-0.5862,-0.5194,-0.6311,-0.8546,-0.8826,-0.8885,-0.8885,-0.8885,-0.8885,-0.8885,0.0,0.0,0.0,0.0,0.0,0.0,0.0,0.0,0.0,0.0,-0.63,-0.63,0.0,0.0,0.0,0.0,0.0,0.0,0.0,0.0,0.0,0.0,0.0,0.0,0.0,-0.6368,-0.6402,-0.6402,0.0,-0.5649,-0.4028,-0.3455,-0.2362,-0.084,-0.0252,0.0,0.0,0.0,0.0,0.0,0.0,0.0,0.0,0.0,0.0,0.0,0.0,0.0,0.0,0.0,0.0,0.0,0.0,0.0,0.0,0.0,-0.0944,-0.2013,-0.2013,-0.2514,-0.3065,-0.3065,-0.2564,-0.1913,-0.1209,0.0,0.0,0.0,0.0,0.0,0.0,0.0,0.0,0.0,0.0,0.0,0.0,0.0,0.0,0.0,0.0,0.0,0.0,0.0,0.0,0.0,0.0,0.0,0.0,0.0,0.0,0.0,0.0,0.0,0.0,0.0,0.0,0.0,0.0,0.0,0.0,0.0,-0.0392,-0.1008,-0.028,-0.1678,-0.4355,-0.447,-0.5808,-0.782,-0.8602,-0.8885,-0.8885,-0.8885,-0.8885,-0.8885,0.0,0.0,0.0,0.0,0.0,0.0,0.0,-0.63,-0.63,-0.63,-0.63,-0.63,-0.63,-0.63,-0.63,0.0,0.0,0.0,0.0,0.0,0.0,0.0,0.0,0.0,0.0,0.0,0.0,-0.5944,-0.5944,0.0,0.0,0.0,0.0,0.0,0.0,0.0,0.0,0.0,0.0,0.0,0.0,0.0,0.0,0.0,0.0,0.0,0.0,0.0,0.0,0.0,0.0,0.0,0.0,0.0,0.0,0.0,-0.0935,-0.1951,-0.1652,-0.2556,-0.3565,-0.3565,-0.3565,-0.3311,-0.2252,-0.2,0.0,0.0,0.0,0.0,0.0,0.0,0.0,0.0,0.0,0.0,0.0,0.0,0.0,0.0,0.0,0.0,0.0,0.0,0.0,0.0,0.0,0.0,0.0,0.0,0.0,0.0,0.0,0.0,0.0,0.0,0.0,0.0,0.0,0.0,0.0,0.0,0.0,0.0,-0.0336,-0.1343,-0.2794,-0.4357,-0.5864,-0.726,-0.8436,-0.8885,-0.8885,-0.8885,-0.8885,-0.8885,0.0,0.0,0.0,0.0,0.0,0.0,0.0,-0.63,-0.63,-0.63,-0.63,-0.63,-0.63,-0.63,-0.63,0.0,0.0,0.0,0.0,0.0,0.0,0.0,0.0,0.0,0.0,0.0,0.0,-0.4844,-0.4844,0.0,0.0,0.0,0.0,0.0,0.0,0.0,0.0,0.0,0.0,0.0,0.0,0.0,0.0,0.0,0.0,0.0,0.0,0.0,0.0,0.0,0.0,0.0,0.0,0.0,0.0,0.0,0.0,0.0,-0.0492,-0.1144,-0.2163,-0.2163,-0.2163,-0.2154,-0.2018,0.0,0.0,-0.0295,0.0,0.0,0.0,0.0,0.0,0.0,0.0,0.0,0.0,0.0,0.0,0.0,0.0,0.0,0.0,0.0,0.0,0.0,0.0,0.0,0.0,0.0,0.0,0.0,0.0,0.0,0.0,0.0,0.0,0.0,0.0,0.0,0.0,0.0,0.0,-0.0056,-0.1399,-0.2851,-0.4414,-0.5864,-0.7371,-0.8716,-0.8826,-0.8885,-0.8885,-0.8885,-0.8885,-0.8885,0.0,0.0,0.0,0.0,0.0,0.0,0.0,-0.63,-0.63,-0.63,-0.63,-0.63,-0.63,-0.63,-0.63,0.0,0.0,0.0,0.0,0.0,0.0,0.0,0.0,0.0,0.0,0.0,-0.5118,-0.4688,-0.4062,0.0,0.0,0.0,0.0,0.0,0.0,0.0,0.0,0.0,0.0,0.0,0.0,0.0,0.0,0.0,0.0,0.0,0.0,0.0,0.0,0.0,0.0,0.0,0.0,0.0,0.0,0.0,-0.0895,-0.178,-0.1349,-0.2128,-0.3061,-0.3061,-0.3159,-0.296,-0.2072,0.0,-0.1636,-0.0289,0.0,0.0,0.0,0.0,0.0,0.0,0.0,0.0,0.0,0.0,0.0,0.0,0.0,0.0,0.0,0.0,0.0,0.0,0.0,0.0,0.0,0.0,0.0,0.0,0.0,0.0,0.0,0.0,0.0,0.0,0.0,0.0,0.0,0.0,0.0,-0.0056,-0.0616,-0.1734,-0.324,-0.4749,-0.6255,-0.7651,-0.8546,-0.8885,-0.8885,-0.8885,-0.8885,-0.8885,0.0,0.0,0.0,0.0,0.0,0.0,-0.63,-0.63,-0.63,-0.63,-0.63,-0.63,-0.63,-0.63,-0.63,-0.63,0.0,0.0,0.0,0.0,0.0,0.0,0.0,0.0,0.0,0.0,-0.453,-0.4217,-0.3164,-0.2112,0.0,0.0,-0.0706,0.0,0.0,0.0,0.0,0.0,0.0,0.0,0.0,0.0,0.0,0.0,0.0,0.0,0.0,0.0,0.0,0.0,0.0,0.0,0.0,0.0,0.0,0.0,-0.0604,-0.1274,-0.1369,-0.2035,-0.2755,-0.3182,-0.3325,-0.3132,0.0,0.0,-0.1604,-0.0283,0.0,0.0,0.0,0.0,0.0,0.0,0.0,0.0,0.0,0.0,0.0,0.0,0.0,0.0,0.0,0.0,0.0,0.0,0.0,0.0,0.0,0.0,0.0,0.0,0.0,0.0,0.0,0.0,0.0,0.0,0.0,0.0,0.0,0.0,0.0,0.0,-0.0448,-0.1231,-0.2347,-0.3855,-0.5363,-0.6813,-0.782,-0.8491,-0.8885,-0.8885,-0.8885,-0.8885,0.0,0.0,0.0,0.0,0.0,0.0,0.0,-0.63,-0.63,-0.63,-0.63,-0.63,-0.63,-0.63,-0.63,-0.63,0.0,0.0,0.0,0.0,0.0,0.0,0.0,0.0,0.0,0.0,-0.4178,-0.3124,-0.2113,-0.1058,0.0,0.0,0.0,0.0,0.0,0.0,0.0,0.0,0.0,0.0,0.0,0.0,0.0,0.0,0.0,0.0,0.0,0.0,0.0,0.0,0.0,0.0,0.0,0.0,0.0,0.0,0.0,0.0,0.0,-0.0047,-0.0381,-0.1666,-0.1999,-0.2036,0.0,0.0,-0.1617,-0.0278,0.0,0.0,0.0,0.0,0.0,0.0,0.0,0.0,0.0,0.0,0.0,0.0,0.0,0.0,0.0,0.0,0.0,0.0,0.0,0.0,0.0,0.0,0.0,0.0,0.0,0.0,0.0,0.0,0.0,0.0,0.0,0.0,0.0,0.0,0.0,-0.0056,-0.1566,-0.218,-0.2347,-0.3855,-0.5363,-0.6702,-0.6702,-0.7595,-0.8885,-0.8885,-0.8885,-0.8885,0.0,0.0,0.0,0.0,0.0,0.0,0.0,-0.63,-0.63,-0.63,-0.63,-0.63,-0.63,-0.63,-0.63,-0.63,0.0,0.0,0.0,0.0,0.0,0.0,0.0,0.0,0.0,0.0,-0.2426,-0.2074,-0.1019,-0.0314,0.0,0.0,0.0,0.0,0.0,0.0,0.0,0.0,0.0,0.0,0.0,0.0,0.0,0.0,0.0,0.0,0.0,0.0,0.0,0.0,0.0,0.0,0.0,0.0,0.0,0.0,-0.0586,-0.104,-0.0227,-0.0592,-0.1324,-0.1735,-0.1234,-0.0868,-0.1676,0.0,-0.0499,-0.0091,0.0,0.0,0.0,0.0,0.0,0.0,0.0,0.0,0.0,0.0,0.0,0.0,0.0,0.0,0.0,0.0,0.0,0.0,0.0,0.0,0.0,0.0,0.0,0.0,0.0,0.0,0.0,0.0,0.0,0.0,0.0,0.0,0.0,0.0,0.0,0.0,-0.0504,-0.0672,-0.084,-0.2292,-0.3183,-0.3741,-0.4803,-0.6086,-0.7371,-0.7371,-0.8042,-0.8885,0.0,0.0,0.0,0.0,0.0,0.0,0.0,-0.63,-0.63,-0.63,-0.63,-0.63,-0.63,-0.63,-0.63,-0.63,0.0,0.0,0.0,0.0,0.0,0.0,0.0,0.0,0.0,-0.2465,-0.1607,-0.1607,-0.051,0.0,0.0,0.0,0.0,0.0,0.0,0.0,0.0,0.0,0.0,0.0,0.0,0.0,0.0,0.0,0.0,0.0,0.0,0.0,0.0,0.0,0.0,0.0,0.0,0.0,0.0,0.0,-0.0539,-0.0941,0.0,-0.0539,-0.1121,-0.1121,-0.0539,0.0,0.0,0.0,0.0,0.0,0.0,0.0,0.0,0.0,0.0,0.0,0.0,0.0,0.0,0.0,0.0,0.0,0.0,0.0,0.0,0.0,0.0,0.0,0.0,0.0,0.0,0.0,0.0,0.0,0.0,0.0,0.0,0.0,0.0,0.0,0.0,0.0,0.0,0.0,0.0,0.0,0.0,0.0,0.0,-0.1008,-0.1677,-0.2291,-0.324,-0.4524,-0.5864,-0.5864,-0.6813,-0.8045,0.0,0.0,0.0,0.0,0.0,0.0,0.0,0.0,0.0,0.0,-0.63,-0.63,-0.63,-0.63,-0.6261,0.0,0.0,0.0,0.0,0.0,0.0,0.0,0.0,0.0,0.0,-0.1996,-0.1489,-0.1489,-0.0471,0.0,0.0,0.0,0.0,0.0,0.0,0.0,0.0,0.0,0.0,0.0,0.0,0.0,0.0,0.0,0.0,0.0,0.0,0.0,0.0,0.0,0.0,0.0,0.0,0.0,0.0,0.0,0.0,0.0,0.0,0.0,0.0,0.0,0.0,0.0,0.0,0.0,0.0,0.0,0.0,0.0,0.0,0.0,0.0,0.0,0.0,0.0,0.0,0.0,0.0,0.0,0.0,0.0,0.0,0.0,0.0,0.0,0.0,0.0,0.0,0.0,0.0,0.0,0.0,0.0,0.0,0.0,0.0,0.0,0.0,0.0,0.0,0.0,0.0,0.0,0.0,0.0,0.0,0.0,-0.0784,-0.2068,-0.2068,-0.2961,-0.4359,-0.4359,-0.5252,-0.6533,0.0,0.0,0.0,0.0,0.0,0.0,0.0,0.0,0.0,0.0,-0.63,-0.63,-0.63,-0.63,-0.5983,0.0,0.0,0.0,0.0,0.0,0.0,0.0,0.0,0.0,0.0,-0.0902,-0.0392,-0.0392,-0.0118,0.0,0.0,0.0,0.0,0.0,0.0,0.0,0.0,0.0,0.0,0.0,0.0,0.0,0.0,0.0,0.0,0.0,0.0,0.0,0.0,0.0,0.0,0.0,0.0,0.0,0.0,0.0,0.0,0.0,0.0,0.0,0.0,0.0,0.0,0.0,0.0,0.0,0.0,0.0,0.0,0.0,0.0,0.0,0.0,0.0,0.0,0.0,0.0,0.0,0.0,0.0,0.0,0.0,0.0,0.0,0.0,0.0,0.0,0.0,0.0,0.0,0.0,0.0,0.0,0.0,0.0,0.0,0.0,0.0,0.0,0.0,0.0,0.0,0.0,0.0,0.0,0.0,0.0,0.0,-0.0224,-0.0504,-0.0504,-0.1455,-0.2738,-0.2738,-0.3687,-0.5196,0.0,0.0,0.0,0.0,0.0,0.0,0.0,0.0,0.0,0.0,0.0,0.0,0.0,0.0,0.0,0.0,0.0,0.0,0.0,0.0,0.0,0.0,0.0,0.0,-0.0863,-0.0314,0.0,0.0,0.0,0.0,0.0,0.0,0.0,0.0,0.0,0.0,0.0,0.0,0.0,0.0,0.0,0.0,0.0,0.0,0.0,0.0,0.0,0.0,0.0,0.0,0.0,0.0,0.0,0.0,0.0,0.0,0.0,0.0,0.0,0.0,0.0,0.0,0.0,0.0,0.0,0.0,0.0,0.0,0.0,0.0,0.0,0.0,0.0,0.0,0.0,0.0,0.0,0.0,0.0,0.0,0.0,0.0,0.0,0.0,0.0,0.0,0.0,0.0,0.0,0.0,0.0,0.0,0.0,0.0,0.0,0.0,0.0,0.0,0.0,0.0,0.0,0.0,0.0,0.0,0.0,0.0,0.0,0.0,0.0,0.0,0.0,-0.0504,-0.1175,-0.1175,-0.2125,-0.3576,0.0,0.0,0.0,0.0,0.0,0.0,0.0,0.0,0.0,0.0,0.0,0.0,0.0,0.0,0.0,0.0,0.0,0.0,0.0,0.0,0.0,0.0,0.0,-0.0941,-0.0039,0.0,0.0,0.0,0.0,0.0,0.0,0.0,0.0,0.0,0.0,0.0,0.0,0.0,0.0,0.0,0.0,0.0,0.0,0.0,0.0,0.0,0.0,0.0,0.0,0.0,0.0,0.0,0.0,0.0,0.0,0.0,0.0,0.0,0.0,0.0,0.0,0.0,0.0,0.0,0.0,0.0,0.0,0.0,0.0,0.0,0.0,0.0,0.0,0.0,0.0,0.0,0.0,0.0,0.0,0.0,0.0,0.0,0.0,0.0,0.0,0.0,0.0,0.0,0.0,0.0,0.0,0.0,0.0,0.0,0.0,0.0,0.0,0.0,0.0,0.0,0.0,0.0,0.0,0.0,0.0,0.0,0.0,0.0,0.0,0.0,0.0,0.0,0.0,0.0,-0.0784,-0.1901,0.0,0.0,0.0,0.0,0.0,0.0,0.0,0.0,0.0,0.0,0.0,0.0,0.0,0.0,0.0,0.0,0.0,0.0,0.0,0.0,0.0,0.0,-0.0235,-0.0157,0.0,0.0,0.0,0.0,0.0,0.0,0.0,0.0,0.0,0.0,0.0,0.0,0.0,0.0,0.0,0.0,0.0,0.0,0.0,0.0,0.0,0.0,0.0,0.0,0.0,0.0,0.0,0.0,0.0,0.0,0.0,0.0,0.0,0.0,0.0,0.0,0.0,0.0,0.0,0.0,0.0,0.0,0.0,0.0,0.0,0.0,0.0,0.0,0.0,0.0,0.0,0.0,0.0,0.0,0.0,0.0,0.0,0.0,0.0,0.0,0.0,0.0,0.0,0.0,0.0,0.0,0.0,0.0,0.0,0.0,0.0,0.0,0.0,0.0,0.0,0.0,0.0,0.0,0.0,0.0,0.0,0.0,0.0,0.0,0.0,0.0,0.0,0.0,0.0,0.0,-0.0168,-0.0504,0.0,0.0,0.0,0.0,0.0,0.0,0.0,0.0,0.0,0.0,0.0,0.0,0.0,0.0,0.0,0.0,0.0,0.0,0.0,0.0,0.0,0.0,0.0,0.0,0.0,0.0,0.0,0.0,0.0,0.0,0.0,0.0,0.0,0.0,0.0,0.0,0.0,0.0,0.0,0.0,0.0,0.0,0.0,0.0,0.0,0.0,0.0,0.0,0.0,0.0,0.0,0.0,0.0,0.0,0.0,0.0,0.0,0.0,0.0,0.0,0.0,0.0,0.0,0.0,0.0,0.0,0.0,0.0,0.0,0.0,0.0,0.0,0.0,0.0,0.0,0.0,0.0,0.0,0.0,0.0,0.0,0.0,0.0,0.0,0.0,0.0,0.0,0.0,0.0,0.0,0.0,0.0,0.0,0.0,0.0,0.0,0.0,0.0,0.0,0.0,0.0,0.0,0.0,0.0,0.0,0.0,0.0,0.0,0.0,0.0,0.0,0.0,0.0,0.0,0.0,-0.0224,0.0,0.0,0.0,0.0,0.0,0.0,0.0,0.0,0.0,0.0,0.0,0.0,0.0,0.0,0.0,0.0,0.0,0.0,0.0,0.0,0.0,0.0,0.0,0.0,0.0,0.0,0.0,0.0,0.0,0.0,0.0,0.0,0.0,0.0,0.0,0.0,0.0,0.0,0.0,0.0,0.0,0.0,0.0,0.0,0.0,0.0,0.0,0.0,0.0,0.0,0.0,0.0,0.0,0.0,0.0,0.0,0.0,0.0,0.0,0.0,0.0,0.0,0.0,0.0,0.0,0.0,0.0,0.0,0.0,0.0,0.0,0.0,0.0,0.0,0.0,0.0,0.0,0.0,0.0,0.0,0.0,0.0,0.0,0.0,0.0,0.0,0.0,0.0,0.0,0.0,0.0,0.0,0.0,0.0,0.0,0.0,0.0,0.0,0.0,0.0,0.0,0.0,0.0,0.0,0.0,0.0,0.0,0.0,0.0,0.0,0.0,0.0,0.0,0.0,0.0,-0.0168,0.0,0.0,0.0,0.0,0.0,0.0,0.0,0.0,0.0,0.0,0.0,0.0,0.0,0.0,0.0,0.0,0.0,0.0,0.0,0.0,0.0,0.0,0.0,0.0,0.0,0.0,0.0,0.0,0.0,0.0,0.0,0.0,0.0,0.0,0.0,0.0,0.0,0.0,0.0,0.0,0.0,0.0,0.0,0.0,0.0,0.0,0.0,0.0,0.0,0.0,0.0,0.0,0.0,0.0,0.0,0.0,0.0,0.0,0.0,0.0,0.0,0.0,0.0,0.0,0.0,0.0,0.0,0.0,0.0,0.0,0.0,0.0,0.0,0.0,0.0,0.0,0.0,0.0,0.0,0.0,0.0,0.0,0.0,0.0,0.0,0.0,0.0,0.0,0.0,0.0,0.0,0.0,0.0,0.0,0.0,0.0,0.0,0.0,0.0,0.0,0.0,0.0,0.0,0.0,0.0,0.0,0.0,0.0,0.0,0.0,0.0,0.0,0.0,0.0,0.0,0.0,0.0,0.0,0.0,0.0,0.0,0.0,0.0,0.0,0.0,0.0,0.0,0.0,0.0,0.0,0.0,0.0,0.0,0.0,0.0,0.0,0.0,0.0,0.0,0.0,0.0,0.0,0.0,0.0,0.0,0.0,0.0,0.0,0.0,0.0,0.0,0.0,0.0,0.0,0.0,0.0,0.0,0.0,0.0,0.0,0.0,0.0,0.0,0.0,0.0,0.0,0.0,0.0,0.0,0.0,0.0,0.0,0.0,0.0,0.0,0.0,0.0,0.0,0.0,0.0,0.0,0.0,0.0,0.0,0.0,0.0,0.0,0.0,0.0,0.0,0.0,0.0,0.0,0.0,0.0,0.0,0.0,0.0,0.0,0.0,0.0,0.0,0.0,0.0,0.0,0.0,0.0,0.0,0.0,0.0,0.0,0.0,0.0,0.0,0.0,0.0,0.0,0.0,0.0,0.0,0.0,0.0,0.0,0.0,0.0,0.0,0.0,0.0,0.0,0.0,0.0,0.0,0.0,0.0,0.0,0.0,0.0,0.0,0.0,0.0,0.0,0.0,0.0,0.0,0.0,0.0,0.0,0.0,0.0,0.0,0.0,0.0,0.0,0.0,0.0,0.0,0.0,0.0,0.0,0.0,0.0,0.0,0.0,0.0,0.0,0.0,0.0,0.0,0.0,0.0,0.0,0.0,0.0,0.0,0.0,0.0,0.0,0.0,0.0,0.0,0.0,0.0,0.0,0.0,0.0,0.0,0.0,0.0,0.0,0.0,0.0,0.0,0.0,0.0,0.0,0.0,0.0,0.0,0.0,0.0,0.0,0.0,0.0,0.0,0.0,0.0,0.0,0.0,0.0,0.0,0.0,0.0,0.0,0.0,0.0,0.0,0.0,0.0,0.0,0.0,0.0,0.0,0.0,0.0,0.0,0.0,0.0,0.0,0.0,0.0,0.0,0.0,0.0,0.0,0.0,0.0,0.0,0.0,0.0,0.0,0.0,0.0,0.0,0.0,0.0,0.0,0.0,0.0,0.0,0.0,0.0,0.0,0.0,0.0,0.0,0.0,0.0,0.0,0.0,0.0,0.0,0.0,0.0,0.0,0.0,0.0,0.0,0.0,0.0,0.0,0.0,0.0,0.0,0.0,0.0,0.0,0.0,0.0,0.0,0.0,0.0,0.0,0.0,0.0,0.0,0.0,0.0,0.0,0.0,0.0,0.0,0.0,0.0,0.0,0.0,0.0,0.0,0.0,0.0,0.0,0.0,0.0,0.0,0.0,0.0,0.0,0.0,0.0,0.0,0.0,0.0,0.0,0.0,0.0,0.0,0.0,0.0,0.0,0.0,0.0,0.0,0.0,0.0,0.0,0.0,0.0,0.0,0.0,0.0,0.0,0.0,0.0,0.0,0.0,0.0,0.0,0.0,0.0,0.0,0.0,0.0,0.0,0.0,0.0,0.0,0.0,0.0,0.0,0.0,0.0,0.0,0.0,0.0,0.0,0.0,0.0,0.0,0.0,0.0,0.0,0.0,0.0,0.0,0.0,0.0,0.0,0.0,0.0,0.0,0.0,0.0,0.0,0.0,0.0,0.0,0.0,0.0,0.0,0.0,0.0,0.0,0.0,0.0,0.0,0.0,0.0,0.0,0.0,0.0,0.0,0.0,0.0,0.0,0.0,0.0,0.0,0.0,0.0,0.0,0.0,0.0,0.0,0.0,0.0,0.0,0.0,0.0,0.0,0.0,0.0,0.0,0.0,0.0,0.0,0.0,0.0,0.0,0.0,0.0,0.0,0.0,0.0,0.0,0.0,0.0,0.0,0.0,0.0,0.0,0.0,0.0,0.0,0.0,0.0,0.0,0.0,0.0,0.0,0.0,0.0,0.0,0.0,0.0,0.0,0.0,0.0,0.0,0.0,0.0,0.0,0.0,0.0,0.0,0.0,0.0,0.0,0.0,0.0,0.0,0.0,0.0,0.0,0.0,0.0,0.0,0.0,0.0,0.0,0.0,0.0,0.0,0.0,0.0,0.0,0.0,0.0,0.0,0.0,0.0,0.0,0.0,0.0,0.0,0.0,0.0,0.0,0.0,0.0,0.0,0.0,0.0,0.0,0.0,0.0,0.0,0.0,0.0,0.0,0.0,0.0,0.0,0.0,0.0,0.0,0.0,0.0,0.0,0.0,0.0,0.0,0.0,0.0,0.0,0.0,0.0,0.0,0.0,0.0,0.0235,0.0628,0.0628,0.0862,0.1216,0.0,0.0,0.0,0.0,0.0,0.0,0.0,0.0,0.0,0.0,0.0,0.0,0.0,0.0,0.0,0.0,0.0,0.0,0.0,0.0,0.0,0.0,0.0,0.0,0.0,0.0,0.0,0.0,0.0,0.0,0.0,0.0,0.0,0.0,0.0,0.0,0.0,0.0,0.0,0.0,0.0,0.0,0.0,0.0,0.0,0.0,0.0,0.0,0.0,0.0,0.0,0.0,0.0,0.0,0.0,0.0,0.0,0.0,0.0,0.0,0.0,0.0,0.0,0.0,0.0,0.0,0.0,0.0,0.0,0.0,0.0,0.0,0.0,0.0,0.0,0.0,0.0,0.0,0.0,0.0,0.0,0.0,0.0,0.0,0.0,0.0,0.0,0.0,0.0,0.0,0.0,0.0,0.0,0.0,0.0,0.0,0.0,0.0,0.0,0.0,0.0,0.0,0.0,0.0,0.0,0.0,0.0,0.0,0.0,0.0,0.0,0.0628,0.1607,0.1607,0.219,0.3085,0.3085,0.0,0.0,0.0,0.0,0.0,0.0,0.0,0.0,0.0042,0.0,0.0,0.0,0.0,0.0,0.0,0.0,0.0,0.0,0.0,0.0,0.0,0.0,0.0,0.0,0.0,0.0,0.0,0.0,0.0,0.0,0.0,0.0,0.0,0.0,0.0,0.0,0.0,0.0,0.0,0.0,0.0,0.0,0.0,0.0,0.0,0.0,0.0,0.0,0.0,0.0,0.0,0.0,0.0,0.0,0.0,0.0,0.0,0.0,0.0,0.0,0.0,0.0,0.0,0.0,0.0,0.0,0.0,0.0,0.0,0.0,0.0,0.0,0.0,0.0,0.0,0.0,0.0,0.0,0.0,0.0,0.0,0.0,0.0,0.0,0.0,0.0,0.0,0.0,0.0,0.0,0.0,0.0,0.0,0.0,0.0,0.0,0.0,0.0,0.0,0.0,0.0,0.0,0.0,0.0,0.0,0.0,0.0,0.0,0.0,0.0,0.0628,0.1607,0.1607,0.219,0.3085,0.3085,0.3091,0.0,0.0,0.0,0.0,0.0,0.0,0.0,0.0252,0.0,0.0,0.0,0.0,0.0,0.0,0.0,0.0,0.0,0.0,0.0,0.0,0.0,0.0,0.0,0.0,0.0,0.0,0.0,0.0,0.0,0.0,0.0,0.0,0.0,0.0,0.0,0.0,0.0,0.0,0.0,0.0,0.0,0.0,0.0,0.0,0.0,0.0,0.0,0.0,0.0,0.0,0.0,0.0,0.0,0.0,0.0,0.0,0.0,0.0,0.0,0.0,0.0,0.0,0.0,0.0,0.0,0.0,0.0,0.0,0.0,0.0,0.0,0.0,0.0,0.0,0.0,0.0,0.0,0.0,0.0,0.0,0.0,0.0,0.0,0.0,0.0,0.0,0.0,0.0,0.0,0.0,0.0,0.0,0.0,0.0,0.0,0.0,0.0,0.0,0.0,0.0,0.0,0.0,0.0,0.0,0.0,0.0,0.0,0.0039,0.0549,0.1371,0.2347,0.2893,0.34,0.3865,0.3865,0.3542,0.3024,0.2549,0.0,0.0,0.0,0.0,0.0,0.0,0.0,0.0,0.0,0.0,0.0,0.0,0.0,0.0,0.0,0.0,0.0,0.0,0.0,0.0,0.0,0.0,0.0,0.0,0.0,0.0,0.0,0.0,0.0,0.0,0.0,0.0,0.0,0.0,0.0,0.0,0.0,0.0,0.0,0.0,0.0,0.0,0.0,0.0,0.0,0.0,0.0,0.0,0.0,0.0,0.0,0.0,0.0,0.0,0.0,0.0,0.0,0.0,0.0,0.0,0.0,0.0,0.0,0.0,0.0,0.0,0.0,0.0,0.0,0.0,0.0,0.0,0.0,0.0,0.0,0.0,0.0,0.0,0.0,0.0,0.0,0.0,0.0,0.0,0.0,0.0,0.0,0.0,0.0,0.0,0.0,0.0,0.0,0.0,0.0,0.0,0.0,0.0,0.0,0.0,0.0,0.0,0.0,0.0196,0.0275,0.0353,0.141,0.2347,0.3163,0.4062,0.4414,0.4414,0.4414,0.3982,0.324,0.2231,0.1997,0.1958,0.0706,0.0,0.0,0.0,0.0,0.0,0.0,0.0,0.0,0.0,0.0,0.0,0.0,0.0,0.0,0.0,0.0,0.0,0.0,0.0,0.0,0.0,0.0,0.0,0.0,0.0,0.0,0.0,0.0,0.0,0.0,0.0,0.0,0.0,0.0,0.0,0.0,0.0,0.0,0.0,0.0,0.0,0.0,0.0,0.0,0.0,0.0,0.0,0.0,0.0,0.0,0.0,0.0,0.0,0.0,0.0,0.0,0.0,0.0,0.0,0.0,0.0,0.0,0.0,0.0,0.0,0.0,0.0,0.0,0.0,0.0,0.0,0.0,0.0,0.0,0.0,0.0,0.0,0.0,0.0,0.0,0.0,0.0,0.0,0.0,0.0,0.0,0.0,0.0,0.0,0.0,0.0,0.0,0.0,0.0,0.0,0.0,0.0,0.0,0.0,0.0039,0.0,0.1372,0.145,0.2462,0.2968,0.3124,0.324,0.3318,0.3318,0.3318,0.3787,0.4334,0.3281,0.3515,0.3986,0.2035,0.1372,0.0,0.0,0.0,0.0,0.0,0.0,0.0,0.0,0.0,0.0,0.0,0.0,0.0,0.0,0.0,0.0,0.0,0.0,0.0,0.0,0.0,0.0,0.0,0.0,0.0,0.0,0.0,0.0,0.0,0.0,0.0,0.0,0.0,0.0,0.0,0.0,0.0,0.0,0.0,0.0,0.0,0.0,0.0,0.0,0.0,0.0,0.0,0.0,0.0,0.0,0.0,0.0,0.0,0.0,0.0,0.0,0.0,0.0,0.0,0.0,0.0,0.0,0.0,0.0,0.0,0.0,0.0,0.0,0.0,0.0,0.0,0.0,0.0,0.0,0.0,0.0,0.0,0.0,0.0,0.0,0.0,0.0,0.0,0.0,0.0,0.0,0.0,0.0,0.0,0.0,0.0,0.0,0.0,0.0,0.0,0.0,0.0628,0.0902,0.0,0.0,0.0,0.0,0.2929,0.3435,0.3982,0.3982,0.3982,0.3982,0.0,0.0,0.0,0.0,0.0,0.3593,0.2113,0.1607,0.1411,0.0353,0.0,0.0,0.0,0.0,0.0,0.0,0.0,0.0,0.0,0.0,0.0,0.0,0.0,0.0,0.0,0.0,0.0,0.0,0.0,0.0,0.0,0.0,0.0,0.0,0.0,0.0,0.0,0.0,0.0,0.0,0.0,0.0,0.0,0.0,0.0,0.0,0.0,0.0,0.0,0.0,0.0,0.0,0.0,0.0,0.0,0.0,0.0,0.0,0.0,0.0,0.0,0.0,0.0,0.0,0.0,0.0,0.0,0.0,0.0,0.0,0.0,0.0,0.0,0.0,0.0,0.0,0.0,0.0,0.0,0.0,0.0,0.0,0.0,0.0,0.0,0.0,0.0,0.0,0.0,0.0,0.0,0.0,0.0,0.0,0.0,0.0,0.0,0.0,0.0,0.0,0.0,0.0,0.0,0.0432,0.1488,0.2113,0.0,0.2387,0.2815,0.0,0.0,0.0,0.0,0.0,0.0,0.0,0.0,0.0,0.0,0.0,0.0,0.0,0.0,0.1802,0.145,0.0667,0.0236,0.0,0.0,0.0,0.0,0.0,0.0,0.0,0.0,0.0,0.0,0.0,0.0,0.0,0.0,0.0,0.0,0.0,0.0,0.0,0.0,0.0,0.0,0.0,0.0,0.0,0.0,0.0,0.0,0.0,0.0,0.0,0.0,0.0,0.0,0.0,0.0,0.0,0.0,0.0,0.0,0.0,0.0,0.0,0.0,0.0,0.0,0.0,0.0,0.0,0.0,0.0,0.0,0.0,0.0,0.0,0.0,0.0,0.0,0.0,0.0,0.0,0.0,0.0,0.0,0.0,0.0,0.0,0.0,0.0,0.0,0.0,0.0,0.0,0.0,0.0,0.0,0.0,0.0,0.0,0.0,0.0,0.0,0.0,0.0,0.0,0.0,0.0,0.0,0.0,0.0,0.0,0.0,0.1528,0.254,0.3554,0.453,0.453,0.4569,0.4686,0.0,0.0,0.0,0.0,0.0,0.0,0.0,0.0,0.0,0.0,0.0,0.0,0.0,0.0,0.0,0.1528,0.0824,0.0,0.0,0.0,0.0,0.0,0.0,0.0,0.0,0.0,0.0,0.0,0.0,0.0,0.0,0.0,0.0,0.0,0.0,0.0,0.0,0.0,0.0,0.0,0.0,0.0,0.0,0.0,0.0,0.0,0.0,0.0,0.0,0.0,0.0,0.0,0.0,0.0,0.0,0.0,0.0,0.0,0.0,0.0,0.0,0.0,0.0,0.0,0.0,0.0,0.0,0.0,0.0,0.0,0.0,0.0,0.0,0.0,0.0,0.0,0.0,0.0,0.0,0.0,0.0,0.0,0.0,0.0,0.0,0.0,0.0,0.0,0.0,0.0,0.0,0.0,0.0,0.0,0.0,0.0,0.0,0.0,0.0,0.0,0.0,0.0,0.0,0.0,0.0,0.0,0.0,0.0,0.1919,0.2579,0.3632,0.4334,0.4688,0.4688,0.5079,0.5709,0.5395,0.0,0.0,0.0,0.0,0.0,0.0,0.0,0.0,0.0,0.0,0.0,0.0,0.0,0.0,0.0,0.0,0.0,0.0,0.0,0.0,0.0,0.0,0.0,0.0,0.0,0.0,0.0,0.0,0.0,0.0,0.0,0.0,0.0,0.0,0.0,0.0,0.0,0.0,0.0,0.0,0.0,0.0,0.0,0.0,0.0,0.0,0.0,0.0,0.0,0.0,0.0,0.0,0.0,0.0,0.0,0.0,0.0,0.0,0.0,0.0,0.0,0.0,0.0,0.0,0.0,0.0,0.0,0.0,0.0,0.0,0.0,0.0,0.0,0.0,0.0,0.0,0.0,0.0,0.0,0.0,0.0,0.0,0.0,0.0,0.0,0.0,0.0,0.0,0.0,0.0,0.0,0.0,0.0,0.0,0.0,0.0,0.0,0.0,0.0,0.0,0.0,0.0,0.0,0.0,0.0,0.0,0.0,0.0,0.0,0.4727,0.5237,0.5237,0.5237,0.5628,0.0,0.0,0.0,0.6219,0.0,0.0,0.63,0.0,0.0,0.0,0.0,0.0,0.0,0.0,0.0,0.0,0.0,0.0,0.0,0.0,0.0,0.0,0.0549,0.0,0.0,0.0,0.0,0.0,0.0,0.0,0.0,0.0,0.0,0.0,0.0,0.0,0.0,0.0,0.0,0.0,0.0,0.0,0.0,0.0,0.0,0.0,0.0,0.0,0.0,0.0,0.0,0.0,0.0,0.0,0.0,0.0,0.0,0.0,0.0,0.0,0.0,0.0,0.0,0.0,0.0,0.0,0.0,0.0,0.0,0.0,0.0,0.0,0.0,0.0,0.0,0.0,0.0,0.0,0.0,0.0,0.0,0.0,0.0,0.0,0.0,0.0,0.0,0.0,0.0,0.0,0.0,0.0,0.0,0.0,0.0,0.0,0.0,0.0,0.0,0.0,0.0,0.0,0.0,0.0,0.0,0.0,0.0,0.0,0.0,0.0,0.0,0.0,0.63,0.63,0.63,0.63,0.63,0.0,0.63,0.63,0.0,0.63,0.63,0.0,0.0,0.0,0.63,0.63,0.0,0.63,0.0,0.0,0.0,0.0,0.0,0.0,0.0,0.0,0.0,0.0,0.0,0.0,0.0,0.0,0.0086,0.0087,0.0044,0.0045,0.0,0.0,0.0,0.0,0.0,0.0,0.0,0.0,0.0,0.0,0.0,0.0,0.0,0.0,0.0,0.0,0.0,0.0,0.0,0.0,0.0,0.0,0.0,0.0,0.0,0.0,0.0,0.0,0.0,0.0,0.0,0.0,0.0,0.0,0.0,0.0,0.0,0.0,0.0,0.0,0.0,0.0,0.0,0.0,0.0,0.0,0.0,0.0,0.0,0.0,0.0,0.0,0.0,0.0,0.0,0.0,0.0,0.0,0.0,0.0,0.0,0.0,0.0,0.0,0.0,0.0,0.0,0.0,0.0,0.0,0.0745,0.0,0.0,0.0,0.0,0.0,0.0,0.0,0.0,0.0,0.0,0.0,0.63,0.63,0.63,0.63,0.0,0.63,0.63,0.63,0.0,0.0,0.0,0.0,0.0,0.63,0.63,0.0,0.6103,0.5867,0.0,0.0,0.0,0.0,0.0,0.0,0.2696,0.0,0.0,0.0,0.0,0.0,0.2223,0.1673,0.1151,0.1177,0.0526,0.0,0.0,0.0,0.0,0.0,0.0,0.0,0.0,0.0,0.0,0.0,0.0,0.0,0.0,0.0,0.0,0.0,0.0,0.0,0.0,0.0,0.0,0.0,0.0,0.0,0.0,0.0,0.0,0.0,0.0,0.0,0.0,0.0,0.0,0.0,0.0,0.0,0.0,0.0,0.0,0.0,0.0,0.0,0.0,0.0,0.0,0.0,0.0,0.0,0.0,0.0,0.0,0.0,0.0,0.0,0.0,0.0,0.0,0.0,0.0,0.0,0.0,0.0,0.0,0.0,0.0,0.0,0.0196,0.0667,0.1254,0.1802,0.0,0.0,0.0,0.0,0.0,0.0,0.63,0.63,0.0,0.0,0.0,0.0,0.0,0.0,0.0,0.0,0.63,0.0,0.0,0.63,0.63,0.0,0.0,0.0,0.6388,0.6388,0.6351,0.0,0.0,0.0,0.0,0.0,0.0,0.0,0.0,0.0,0.0,0.0,0.0,0.0,0.3108,0.2333,0.1582,0.1616,0.0728,0.0,0.0,0.0,0.0,0.0,0.0,0.0,0.0,0.0,0.0,0.0,0.0,0.0,0.0,0.0,0.0,0.0,0.0,0.0,0.0,0.0,0.0,0.0,0.0,0.0,0.0,0.0,0.0,0.0,0.0,0.0,0.0,0.0,0.0,0.0,0.0,0.0,0.0,0.0,0.0,0.0,0.0,0.0,0.0,0.0,0.0,0.0,0.0,0.0,0.0,0.0,0.0,0.0,0.0,0.0,0.0,0.0,0.0,0.0,0.0,0.0,0.0,0.0,0.0,0.0,0.0,0.0118,0.0,0.1568,0.1802,0.2347,0.324,0.4334,0.0,0.4882,0.5825,0.63,0.63,0.63,0.0,0.0,0.0,0.0,0.0,0.0,0.0,0.63,0.63,0.63,0.0,0.0,0.6323,0.634,0.6484,0.6538,0.6535,0.6518,0.6426,0.0,0.0,0.0,0.0,0.0,0.5628,0.0,0.0,0.0,0.0,0.0,0.3435,0.0,0.3449,0.2664,0.1952,0.1954,0.1004,0.0168,0.0168,0.0084,0.0042,0.0168,0.0084,0.0,0.0,0.0,0.0,0.0,0.0,0.0,0.0,0.0,0.0,0.0,0.0,0.0,0.0,0.0,0.0,0.0,0.0,0.0,0.0,0.0,0.0,0.0,0.0,0.0,0.0,0.0,0.0,0.0,0.0,0.0,0.0,0.0,0.0,0.0,0.0,0.0,0.0,0.0,0.0,0.0,0.0,0.0,0.0,0.0,0.0,0.0,0.0,0.0,0.0,0.0,0.0,0.0,0.0,0.0,0.0,0.0,0.0,0.0,0.0,0.0824,0.1372,0.1607,0.3205,0.4181,0.4375,0.5431,0.5983,0.5983,0.6183,0.63,0.63,0.0,0.0,0.0,0.0,0.0,0.0,0.0,0.0,0.63,0.63,0.63,0.6313,0.6426,0.647,0.6491,0.6603,0.6658,0.6637,0.6555,0.6494,0.645,0.0,0.0,0.0,0.63,0.0,0.0,0.0,0.0,0.0,0.0,0.567,0.0,0.5662,0.4839,0.408,0.4095,0.261,0.1274,0.1296,0.0588,0.0294,0.1133,0.0546,0.0,0.0,0.0,0.0,0.0,0.0,0.0,0.0,0.0,0.0,0.0,0.0,0.0,0.0,0.0,0.0,0.0,0.0,0.0,0.0,0.0,0.0,0.0,0.0,0.0,0.0,0.0,0.0,0.0,0.0,0.0,0.0,0.0,0.0,0.0,0.0,0.0,0.0,0.0,0.0,0.0,0.0,0.0,0.0,0.0,0.0,0.0,0.0,0.0,0.0,0.0,0.0,0.0,0.0,0.0,0.0,0.0,0.0,0.0,0.0,0.0,0.2075,0.3088,0.4142,0.496,0.5473,0.6025,0.63,0.63,0.63,0.63,0.63,0.0,0.0,0.0,0.0,0.0,0.0,0.0,0.63,0.63,0.63,0.0,0.6412,0.6484,0.6559,0.6607,0.6759,0.6814,0.6803,0.6725,0.6651,0.0,0.6453,0.6405,0.6392,0.0,0.63,0.63,0.0,0.0,0.0,0.63,0.63,0.0,0.0,0.5473,0.4704,0.4681,0.3461,0.2358,0.2343,0.1501,0.1137,0.2187,0.1015,0.0366,0.1419,0.0663,0.0,0.0,0.0,0.0,0.0,0.0,0.0,0.0,0.0,0.0,0.0,0.0,0.0,0.0,0.0,0.0,0.0,0.0,0.0,0.0,0.0,0.0,0.0,0.0,0.0,0.0,0.0,0.0,0.0,0.0,0.0,0.0,0.0,0.0,0.0,0.0,0.0,0.0,0.0,0.0,0.0,0.0,0.0,0.0,0.0,0.0,0.0,0.0,0.0,0.0,0.0,0.0,0.0,0.0,0.0,0.0,0.0,0.0,0.0,0.0,0.4882,0.5434,0.63,0.63,0.63,0.63,0.63,0.63,0.63,0.0,0.0,0.0,0.0,0.0,0.0,0.0,0.0,0.6303,0.0,0.6409,0.6518,0.6536,0.6637,0.6763,0.6873,0.6927,0.6923,0.6896,0.6848,0.6719,0.6566,0.6538,0.0,0.0,0.0,0.0,0.0,0.0,0.0,0.0,0.0,0.63,0.0,0.0,0.0,0.5002,0.4139,0.3396,0.0,0.0,0.0,0.324,0.0,0.0,0.0,0.1497,0.0,0.0293,0.0125,0.0,0.0,0.0,0.0,0.0,0.0,0.0,0.0,0.0,0.0,0.0,0.0,0.0,0.0,0.0,0.0,0.0,0.0,0.0,0.0,0.0,0.0,0.0,0.0,0.0,0.0,0.0,0.0,0.0,0.0,0.0,0.0,0.0,0.0,0.0,0.0,0.0,0.0,0.0,0.0,0.0,0.0,0.0,0.0,0.0,0.0,0.0,0.0,0.0,0.0,0.0,0.0,0.0,0.1607,0.0,0.0,0.0,0.0,0.618,0.63,0.63,0.63,0.63,0.63,0.63,0.0,0.0,0.0,0.0,0.63,0.0,0.0,0.0,0.63,0.0,0.6436,0.6497,0.0,0.6773,0.6846,0.6879,0.7021,0.7071,0.7051,0.0,0.6873,0.6832,0.0,0.658,0.6508,0.6494,0.0,0.0,0.0,0.0,0.0,0.0,0.63,0.0,0.63,0.0,0.6103,0.6103,0.0,0.453,0.453,0.0,0.0,0.0,0.0,0.0,0.3085,0.2123,0.1434,0.1424,0.0571,0.0,0.0,0.0,0.0,0.0,0.0,0.0,0.0,0.0,0.0,0.0,0.0,0.0,0.0,0.0,0.0,0.0,0.0,0.0,0.0,0.0,0.0,0.0,0.0,0.0,0.0,0.0,0.0,0.0,0.0,0.0,0.0,0.0,0.0,0.0,0.0,0.0,0.0,0.0,0.0,0.0,0.0,0.0,0.0,0.0,0.0,0.0,0.0,0.0,0.0,0.0,0.0,0.2737,0.0,0.0,0.0,0.0,0.0,0.0,0.63,0.63,0.63,0.63,0.63,0.0,0.0,0.0,0.0,0.0,0.63,0.0,0.63,0.0,0.6347,0.0,0.0,0.6658,0.0,0.6836,0.6937,0.7014,0.7075,0.7095,0.7088,0.0,0.7007,0.0,0.0,0.0,0.0,0.6566,0.0,0.0,0.0,0.0,0.0,0.0,0.0,0.0,0.63,0.0,0.63,0.63,0.0,0.0,0.0,0.0,0.0,0.0,0.4217,0.3552,0.0,0.0,0.2238,0.1668,0.0,0.0,0.0,0.0,0.0,0.0,0.0,0.0,0.0,0.0,0.0,0.0,0.0,0.0,0.0,0.0673,0.1031,0.1031,0.1746,0.2102,0.2058,0.1355,0.1406,0.2039,0.1344,0.103,0.1031,0.1052,0.0627,0.0,0.0,0.0,0.0,0.0,0.0,0.0,0.0,0.0,0.0,0.0,0.0,0.0,0.0,0.0,0.0,0.0,0.0,0.0,0.0823,0.1527,0.0,0.0,0.3125,0.3865,0.0,0.0,0.5473,0.0,0.0,0.0,0.0,0.0,0.63,0.63,0.0,0.0,0.0,0.0,0.0,0.0,0.0,0.63,0.63,0.0,0.6381,0.6525,0.6637,0.6814,0.6943,0.6943,0.7007,0.7095,0.7095,0.7095,0.7095,0.7095,0.7095,0.0,0.6974,0.6916,0.6875,0.0,0.0,0.0,0.6337,0.0,0.0,0.0,0.0,0.0,0.0,0.0,0.0,0.0,0.63,0.0,0.0,0.0,0.0,0.0,0.0,0.4414,0.0,0.453,0.0,0.2543,0.0,0.0,0.0,0.0588,0.0435,0.0442,0.0161,0.0122,0.0416,0.0459,0.0421,0.043,0.078,0.0788,0.0489,0.1696,0.2281,0.2324,0.317,0.3614,0.357,0.2681,0.2769,0.3573,0.2679,0.2287,0.2291,0.2291,0.1793,0.0993,0.0965,0.0981,0.0895,0.0251,0.0,0.0,0.1723,0.0706,0.0,0.0,0.0,0.0,0.0,0.0,0.0,0.0,0.0,0.0,0.0,0.0,0.0,0.0,0.0,0.4647,0.4688,0.0,0.6261,0.0,0.0,0.63,0.0,0.0,0.0,0.0,0.0,0.0,0.0,0.0,0.0,0.0,0.63,0.63,0.63,0.63,0.6381,0.6525,0.6637,0.6875,0.7088,0.0,0.7092,0.7095,0.7095,0.0,0.0,0.7095,0.7095,0.7095,0.0,0.0,0.0,0.0,0.0,0.0,0.0,0.0,0.0,0.63,0.0,0.0,0.0,0.0,0.63,0.0,0.0,0.0,0.0,0.0,0.0,0.0,0.0,0.0,0.0,0.0,0.4647,0.4608,0.3671,0.0,0.0,0.2113,0.1568,0.153,0.0589,0.0437,0.1502,0.1544,0.156,0.1552,0.2698,0.2773,0.1735,0.2917,0.3525,0.3525,0.357,0.3614,0.3614,0.357,0.357,0.3614,0.3571,0.3528,0.3535,0.3564,0.3503,0.3464,0.3487,0.3469,0.32,0.0846,0.0,0.0,0.0,0.0,0.0,0.0,0.0,0.0,0.0,0.1605,0.0,0.0,0.2384,0.0,0.0,0.3748,0.4295,0.0,0.0,0.5747,0.5747,0.6103,0.0,0.0,0.0,0.63,0.0,0.0,0.0,0.0,0.0,0.0,0.0,0.0,0.0,0.0,0.0,0.63,0.0,0.0,0.0,0.0,0.0,0.7007,0.7095,0.0,0.7095,0.7095,0.7095,0.7095,0.7095,0.7095,0.7095,0.7095,0.7095,0.7061,0.6997,0.6852,0.6742,0.659,0.0,0.0,0.63,0.63,0.0,0.0,0.0,0.0,0.0,0.0,0.0,0.0,0.0,0.0,0.0,0.0,0.0,0.0,0.0,0.0,0.5747,0.5747,0.4805,0.0,0.0,0.0,0.2579,0.2579,0.2267,0.2198,0.2571,0.2612,0.26,0.2578,0.297,0.3067,0.2814,0.4006,0.4664,0.4821,0.5575,0.5933,0.5885,0.5132,0.522,0.5888,0.5132,0.4776,0.4779,0.4813,0.433,0.3616,0.3598,0.3582,0.35,0.2686,0.2444,0.2425,0.3748,0.0,0.0,0.0,0.0,0.0,0.0,0.0,0.0,0.0,0.3435,0.0,0.3669,0.0,0.5276,0.0,0.5906,0.63,0.63,0.63,0.0,0.63,0.63,0.63,0.0,0.0,0.0,0.0,0.0,0.63,0.0,0.0,0.0,0.0,0.0,0.63,0.63,0.63,0.647,0.0,0.0,0.7095,0.0,0.0,0.7095,0.7095,0.0,0.7095,0.7095,0.7095,0.7095,0.7095,0.7095,0.7095,0.7068,0.6927,0.6858,0.6736,0.6569,0.6446,0.6364,0.6313,0.63,0.0,0.63,0.0,0.63,0.0,0.0,0.0,0.0,0.0,0.0,0.0,0.0,0.0,0.0,0.63,0.63,0.63,0.5709,0.5002,0.0,0.3904,0.3669,0.3669,0.3318,0.3279,0.3632,0.3669,0.3657,0.3673,0.4067,0.4201,0.3933,0.5125,0.5814,0.6027,0.6738,0.7095,0.7095,0.6337,0.6425,0.7051,0.6337,0.6027,0.6027,0.6027,0.5534,0.4823,0.4845,0.4824,0.4749,0.3899,0.3636,0.3634,0.496,0.0,0.0,0.0,0.3202,0.0,0.0,0.0,0.324,0.0,0.4139,0.4766,0.4766,0.5709,0.63,0.63,0.63,0.63,0.63,0.63,0.0,0.0,0.63,0.63,0.63,0.0,0.0,0.0,0.0,0.0,0.0,0.0,0.0,0.0,0.63,0.0,0.6377,0.6338,0.647,0.6725,0.6977,0.7095,0.7095,0.7095,0.7095,0.7095,0.7095,0.7095,0.7095,0.7095,0.7095,0.7095,0.7095,0.7095,0.7068,0.6933,0.6889,0.6822,0.6573,0.6525,0.648,0.6344,0.6306,0.63,0.0,0.0,0.63,0.0,0.0,0.0,0.0,0.0,0.0,0.0,0.0,0.0,0.0,0.0,0.63,0.63,0.63,0.63,0.63,0.5392,0.4766,0.4766,0.3826,0.3709,0.0,0.4766,0.4766,0.4766,0.5909,0.6081,0.5175,0.6323,0.6947,0.7085,0.7092,0.7095,0.7095,0.7095,0.7095,0.7095,0.7095,0.7095,0.7095,0.7095,0.7095,0.7095,0.7095,0.7095,0.6818,0.4621,0.3744,0.3696,0.5944,0.6103,0.6141,0.0,0.4805,0.4295,0.0,0.0,0.0,0.0,0.5709,0.5906,0.5906,0.6141,0.63,0.63,0.63,0.0,0.0,0.0,0.0,0.63,0.63,0.63,0.63,0.63,0.63,0.63,0.0,0.0,0.63,0.0,0.0,0.0,0.0,0.0,0.7365,0.6606,0.647,0.6725,0.6977,0.7095,0.7095,0.0,0.7095,0.7095,0.7095,0.7095,0.7095,0.7095,0.7095,0.7095,0.7095,0.7095,0.7088,0.7051,0.6967,0.6869,0.6831,0.6647,0.6504,0.6467,0.6378,0.63,0.63,0.63,0.0,0.0,0.0,0.0,0.0,0.0,0.0,0.0,0.0,0.0,0.0,0.0,0.0,0.63,0.63,0.63,0.63,0.6064,0.5906,0.5906,0.5628,0.5589,0.5867,0.5906,0.5906,0.5906,0.6178,0.6304,0.6159,0.6557,0.6834,0.6943,0.7045,0.7095,0.7095,0.7095,0.7095,0.7095,0.7095,0.7095,0.7095,0.7095,0.7095,0.7095,0.7095,0.7095,0.703,0.6572,0.5798,0.493,0.63,0.0,0.0,0.63,0.0,0.0,0.5395,0.5906,0.0,0.6385,0.6337,0.0,0.6477,0.6433,0.6419,0.6487,0.6494,0.0,0.6494,0.0,0.0,0.6395,0.6392,0.6364,0.6303,0.63,0.0,0.63,0.0,0.0,0.63,0.0,0.0,0.0,0.0,0.6606,0.7107,0.6673,0.6909,0.7609,0.7824,0.8185,0.0,0.8619,0.8619,0.8619,0.8619,0.7965,0.7095,0.7095,0.7095,0.7095,0.7095,0.7095,0.7095,0.7095,0.7041,0.6964,0.6903,0.6803,0.6637,0.6545,0.6453,0.6375,0.6313,0.63,0.63,0.0,0.63,0.63,0.0,0.0,0.0,0.0,0.0,0.0,0.0,0.0,0.0,0.0,0.63,0.63,0.63,0.63,0.63,0.63,0.63,0.63,0.63,0.63,0.63,0.63,0.63,0.6368,0.6511,0.6624,0.6776,0.6886,0.7028,0.7095,0.7095,0.7095,0.7095,0.7095,0.7095,0.7095,0.7095,0.7095,0.7095,0.7095,0.7095,0.7095,0.7105,0.7238,0.677,0.6141,0.63,0.0,0.0,0.0,0.0,0.0,0.0,0.63,0.0,0.6494,0.0,0.6433,0.6671,0.658,0.6556,0.6688,0.6702,0.6702,0.6702,0.6702,0.6641,0.6549,0.6542,0.6474,0.633,0.6327,0.632,0.0,0.0,0.0,0.0,0.0,0.0,0.0,0.0,0.0,0.0,0.7104,0.7943,0.8916,0.907,0.971,1.0611,1.0611,1.0611,1.0611,1.0611,0.927,0.7573,0.7573,0.7573,0.7533,0.7401,0.7316,0.7316,0.7139,0.7095,0.7068,0.6947,0.69,0.6861,0.6573,0.6525,0.6474,0.633,0.63,0.63,0.63,0.63,0.6338,0.649,0.0,0.0,0.0,0.0,0.0,0.0,0.0,0.0,0.0,0.0,0.0,0.63,0.63,0.63,0.63,0.63,0.63,0.0,0.0,0.63,0.63,0.63,0.6361,0.6484,0.6597,0.6749,0.6859,0.7001,0.7078,0.7095,0.7095,0.7095,0.7095,0.7095,0.7095,0.7095,0.7095,0.7095,0.7095,0.7095,0.7095,0.7095,0.7095,0.7095,0.7095,0.63,0.0,0.0,0.0,0.0,0.63,0.63,0.63,0.6351,0.6494,0.6491,0.6545,0.6681,0.6675,0.6671,0.6698,0.6702,0.0,0.0,0.0,0.0,0.6661,0.6661,0.659,0.6477,0.6474,0.6416,0.0,0.0,0.0,0.0,0.0,0.0,0.0,0.0,0.0,0.7984,0.9877,0.0,1.0124,1.0262,1.0438,1.0611,1.0611,1.0611,1.0611,1.0611,1.0351,1.0005,1.0005,1.0005,0.9831,0.8886,0.8584,0.8408,0.7404,0.7095,0.7092,0.7065,0.6974,0.6842,0.6705,0.6566,0.6474,0.633,0.63,0.63,0.63,0.63,0.6567,0.7403,0.0,0.0,0.0,0.0,0.0,0.0,0.0,0.0,0.0,0.0,0.63,0.63,0.63,0.63,0.63,0.63,0.63,0.0,0.0,0.63,0.0,0.63,0.6313,0.0,0.648,0.659,0.6742,0.6852,0.6984,0.7095,0.7095,0.7095,0.7095,0.7095,0.7095,0.7095,0.7095,0.7095,0.7095,0.7095,0.7095,0.7095,0.7095,0.7095,0.7095,0.0,0.0,0.0,0.0,0.0,0.0,0.0,0.6409,0.6463,0.6569,0.659,0.6678,0.6905,0.6861,0.6848,0.6922,0.6886,0.6886,0.6886,0.6886,0.6895,0.682,0.6817,0.6749,0.6593,0.6552,0.6477,0.6409,0.0,0.0,0.0,0.0,0.0,0.0,0.0,0.7818,0.0,0.0,1.0964,1.1387,1.1465,1.1863,1.2431,1.2431,1.2431,1.2431,1.2431,1.2431,1.2211,1.0999,1.0611,1.0481,0.9966,0.9792,0.9666,0.9096,0.8492,0.8013,0.8013,0.7526,0.696,0.6854,0.6705,0.6552,0.6443,0.6354,0.6451,0.6984,0.7061,0.7403,0.8389,0.8161,0.7821,0.0,0.0,0.0,0.0,0.0,0.7061,0.0,0.0,0.0,0.0,0.63,0.63,0.63,0.63,0.0,0.0,0.0,0.63,0.0,0.0,0.0,0.63,0.0,0.6549,0.6702,0.6854,0.696,0.7095,0.7095,0.7095,0.7095,0.7095,0.7095,0.7095,0.7095,0.7095,0.7095,0.7095,0.7095,0.7095,0.7095,0.7095,0.7095,0.0,0.63,0.0,0.0,0.6323,0.6381,0.6494,0.6566,0.6614,0.6732,0.6749,0.6848,0.7068,0.6997,0.6974,0.7085,0.7095,0.7095,0.7095,0.7095,0.7048,0.6933,0.693,0.6859,0.6753,0.663,0.6657,0.0,0.0,0.0,0.0,0.0,0.0,0.0,0.0,0.0,0.0,0.0,1.1406,1.2674,1.2674,1.3252,1.4088,1.4088,1.4088,1.4088,1.4088,1.4088,1.3822,1.1955,1.1348,1.1305,1.1042,1.095,1.0913,1.0654,0.9966,0.9279,0.9279,0.858,0.7796,0.7683,0.7514,0.7349,0.7221,0.7062,0.7176,0.7974,0.8275,0.8613,0.9183,0.8841,0.8575,0.0,0.0,0.0,0.0,0.0,0.7783,0.0,0.0,0.0,0.63,0.63,0.63,0.63,0.63,0.63,0.63,0.0,0.0,0.0,0.63,0.63,0.63,0.0,0.6519,0.6702,0.6824,0.6927,0.7095,0.7095,0.7095,0.7095,0.7095,0.7095,0.7095,0.7095,0.7095,0.7095,0.7095,0.7095,0.7095,0.7095,0.7095,0.7095,0.0,0.0,0.0,0.0,0.0,0.6497,0.6511,0.6709,0.6849,0.6862,0.6866,0.6923,0.7078,0.7085,0.7082,0.7095,0.7095,0.7095,0.7095,0.7095,0.7092,0.7078,0.7078,0.7011,0.6869,0.6852,0.7201,0.0,0.0,0.6892,0.0,0.0,0.0,0.0,0.0,0.0,1.1576,1.2512,1.3297,1.3913,1.3913,1.3997,1.4088,1.4088,1.4088,1.4088,1.4088,1.4088,1.4088,1.387,1.3779,1.3561,1.2504,1.2157,1.1943,1.0907,1.0524,1.0438,1.0438,1.0351,1.0254,1.0117,0.9817,0.956,0.9434,0.9183,0.9031,0.9145,0.989,1.0265,0.9448,0.9965,0.9959,0.0,0.0,0.0,0.0,0.0,0.7783,0.7783,0.0,0.0,0.63,0.63,0.63,0.63,0.63,0.63,0.0,0.0,0.0,0.63,0.63,0.63,0.63,0.6313,0.6463,0.6702,0.6715,0.6868,0.7095,0.7095,0.7095,0.7095,0.7095,0.7095,0.7095,0.7095,0.7095,0.7095,0.7095,0.7095,0.7095,0.7095,0.7095,0.7095,0.0,0.0,0.0,0.0,0.0,0.0,0.6719,0.6851,0.6916,0.7001,0.7011,0.7034,0.7088,0.7095,0.7095,0.7095,0.7095,0.7095,0.7095,0.7095,0.7095,0.7095,0.7095,0.7068,0.7014,0.7647,0.8119,0.0,0.0,0.0,0.0,0.0,0.0,0.0,1.0808,1.1629,1.2651,1.3193,1.3707,1.4088,1.4088,1.4088,1.4088,1.4088,1.4088,1.4088,1.4088,1.4088,1.4088,1.4088,1.4088,1.3997,1.3512,1.3379,1.3294,1.282,1.2206,1.1638,1.1638,1.1128,1.059,1.0542,1.0206,0.9878,0.9832,0.9544,0.9485,1.0078,1.1019,1.1583,1.1174,1.0938,1.0714,1.0533,0.0,0.0,0.0,0.0,0.0,0.9583,0.0,0.8084,0.8084,0.7557,0.7215,0.7215,0.6644,0.63,0.63,0.0,0.0,0.63,0.0,0.63,0.63,0.63,0.645,0.6702,0.6702,0.6854,0.7095,0.7095,0.7095,0.7095,0.7095,0.7095,0.7095,0.7095,0.7095,0.7095,0.7095,0.7095,0.7095,0.7095,0.7095,0.7095,0.63,0.6334,0.6395,0.6494,0.6546,0.6678,0.6852,0.692,0.6984,0.7085,0.7095,0.7095,0.7095,0.7095,0.7095,0.7095,0.7095,0.7095,0.7095,0.7095,0.7095,0.7095,0.7095,0.0,0.7621,0.8371,0.9041,0.9653,0.9114,0.0,0.0,0.0,0.9874,1.1531,1.1695,1.2379,1.3313,1.3513,1.3773,1.4088,1.4088,1.4088,1.4088,1.4088,1.4088,1.4088,1.4088,1.4088,1.4088,1.4088,1.4088,1.4088,1.4088,1.4088,1.4088,1.4088,1.3512,1.2808,1.2808,1.2254,1.1649,1.1649,1.1236,1.0877,1.0877,1.0501,1.0383,1.1087,1.1805,1.2305,1.2305,1.1731,1.1391,1.1774,0.0,0.0,0.0,1.1242,0.0,1.0378,0.9744,0.9183,0.8879,0.8466,0.8237,0.8237,0.7326,0.6606,0.63,0.0,0.0,0.0,0.0,0.0,0.63,0.63,0.645,0.6702,0.6702,0.6854,0.7095,0.7095,0.7095,0.7095,0.7095,0.7095,0.7095,0.7095,0.7095,0.7095,0.7095,0.7095,0.7095,0.7095,0.7095,0.7095,0.63,0.6412,0.6511,0.6511,0.6722,0.6883,0.6886,0.7004,0.7095,0.7095,0.7095,0.7095,0.7095,0.7095,0.7095,0.7095,0.7095,0.7095,0.7095,0.7095,0.7095,0.0,0.0,0.7665,0.8846,0.8886,0.9862,1.1863,0.0,0.0,1.1696,1.1656,1.2181,1.316,1.3167,1.3327,1.36,1.36,1.3773,1.4088,1.4088,1.4088,1.4088,1.4088,1.4088,1.4088,1.4088,1.4088,1.4088,1.4088,1.4088,1.4088,1.4088,1.4088,1.4088,1.4088,1.4088,1.4088,1.4088,1.4088,1.4046,1.4046,1.3606,1.3167,1.3167,1.2701,1.2268,1.2268,1.2298,1.2305,1.2305,1.2298,1.1959,1.0975,0.0,0.0,0.0,1.082,0.0,0.9448,0.9296,0.8917,0.7897,0.8694,0.9296,0.9296,0.8351,0.7365,0.6338,0.63,0.0,0.63,0.63,0.0,0.63,0.63,0.645,0.6702,0.6702,0.6854,0.7095,0.7095,0.7095,0.7095,0.7095,0.7095,0.7095,0.7095,0.7095,0.7095,0.7095,0.7095,0.7095,0.7095,0.7095,0.7095,0.6446,0.6525,0.6661,0.6766,0.6865,0.6916,0.7014,0.7068,0.7095,0.7095,0.7095,0.7095,0.7095,0.7095,0.7095,0.0,0.7095,0.7095,0.0,0.7095,0.7095,0.7095,0.7095,0.7665,0.889,0.9666,1.0747,1.2162,1.1742,1.1618,1.1702,1.2393,1.2883,1.322,1.3373,1.3513,1.3613,1.382,1.4001,1.4088,1.4088,1.4088,1.4088,1.4088,1.4088,1.4088,1.4088,1.4088,1.4088,1.4088,1.4088,1.4088,1.4088,1.4088,1.4088,1.4088,1.4088,1.4088,1.4088,1.4088,1.4088,1.4088,1.3647,1.3213,1.3213,1.2739,1.2305,1.2305,1.2305,1.2305,1.2305,1.2305,1.2187,1.1879,1.2077,0.0,1.1885,0.0,1.17,1.1397,1.1366,1.1211,1.0907,1.0527,1.0303,1.0303,0.9405,0.8389,0.0,0.0,0.0,0.0,0.63,0.0,0.63,0.63,0.645,0.6702,0.6702,0.6854,0.7095,0.7095,0.7095,0.7095,0.7095,0.7095,0.7095,0.7095,0.7095,0.7095,0.7095,0.7095,0.7095,0.7095,0.7095,0.7095,0.6559,0.6681,0.6817,0.6869,0.693,0.6994,0.7082,0.7095,0.7095,0.7095,0.7095,0.7095,0.7095,0.7095,0.7095,0.7095,0.7095,0.7095,0.7095,0.7095,0.7095,0.7095,0.7533,0.8317,0.9492,1.0654,1.1815,1.2984,1.2908,1.2787,1.2619,1.3249,1.354,1.3547,1.3728,1.3808,1.378,1.4008,1.4088,1.4088,1.4088,1.4088,1.4088,1.4088,1.4088,1.4088,1.4088,1.4088,1.4088,1.4088,1.4088,1.4088,1.4088,1.4088,1.4088,1.4088,1.4088,1.4088,1.4088,1.4088,1.4088,1.4088,1.3647,1.3153,1.2919,1.2572,1.2305,1.2305,1.2305,1.2305,1.2305,1.2305,1.2305,1.2305,1.2305,1.2305,1.2305,1.2305,1.215,1.1768,1.207,1.215,1.1768,1.1502,1.1354,1.1354,1.0421,0.0,0.0,0.0,0.7442,0.7442,0.7061,0.6872,0.6872,0.649,0.645,0.6702,0.6814,0.692,0.7095,0.7095,0.7095,0.7095,0.7095,0.7095,0.7095,0.7095,0.7095,0.7095,0.7095,0.7095,0.7095,0.7095,0.7095,0.7095,0.6715,0.6841,0.69,0.69,0.7007,0.7095,0.7095,0.7095,0.7095,0.7095,0.7095,0.7095,0.7095,0.7095,0.7095,0.7095,0.7095,0.7095,0.7095,0.7095,0.7139,0.7228,0.8321,0.9449,1.0697,1.1766,1.2899,1.4088,1.4088,1.4088,1.4088,1.4088,1.4088,1.4088,1.4088,1.4088,1.4088,1.4088,1.4088,1.4088,1.4088,1.4088,1.4088,1.4088,1.4088,1.4088,1.4088,1.4088,1.4088,1.4088,1.4088,1.4088,1.4088,1.4088,1.4088,1.4088,1.4088,1.4088,1.4088,1.4088,1.4088,1.4088,1.3647,1.3053,1.2438,1.2305,1.2305,1.2305,1.2305,1.2305,1.2305,1.2305,1.2305,1.2305,1.2305,1.2305,1.2305,1.2305,1.1959,1.1013,1.1731,1.1922,1.0975,1.1731,1.2305,1.2305,0.0,0.0,0.0,0.0,0.9448,0.9296,0.8389,0.7897,0.7897,0.6918,0.6503,0.6719,0.696,0.7095,0.7095,0.7095,0.7095,0.7095,0.7095,0.7095,0.7095,0.7095,0.7139,0.7228,0.7228,0.7228,0.7228,0.7228,0.7228,0.7228,0.6832,0.6947,0.7048,0.7048,0.7071,0.7095,0.7095,0.7095,0.7095,0.7095,0.7095,0.7095,0.7095,0.7095,0.7095,0.7095,0.7095,0.7095,0.7095,0.7095,0.7489,0.8452,0.8759,0.9836,1.1852,1.2151,1.2899,1.4088,1.4088,1.4088,1.4088,1.4088,1.4088,1.4088,1.4088,1.4088,1.4088,1.4088,1.4088,1.4088,1.4088,1.4088,1.4088,1.4088,1.4088,1.4088,1.4088,1.4088,1.4088,1.4088,1.4088,1.4088,1.4088,1.4088,1.4088,1.4088,1.4088,1.4088,1.4088,1.4088,1.4088,1.4088,1.3647,1.3053,1.2438,1.2305,1.2305,1.2305,1.2305,1.2305,1.2305,1.2305,1.2305,1.2305,1.2305,1.2305,1.2305,1.2305,1.2224,1.1959,1.215,1.2224,1.1959,1.215,1.2305,0.0,0.0,1.1959,1.1959,1.1737,1.0875,0.9334,0.9069,0.8955,0.8955,0.803,0.7333,0.6875,0.7011,0.7095,0.7095,0.7095,0.7095,0.7095,0.7095,0.7095,0.7095,0.7095,0.7621,0.8496,0.8496,0.8496,0.8496,0.8496,0.8496,0.8496,0.698,0.7045,0.7095,0.7095,0.7095,0.7095,0.7095,0.7095,0.7095,0.7095,0.7095,0.7095,0.7095,0.7095,0.7095,0.7095,0.7095,0.7095,0.7095,0.7621,0.8233,0.889,0.9879,1.1037,1.2285,1.2851,1.3428,1.4088,1.4088,1.4088,1.4088,1.4088,1.4088,1.4088,1.4088,1.4088,1.4088,1.4088,1.4088,1.4088,1.4088,1.4088,1.4088,1.4088,1.4088,1.4088,1.4088,1.4088,1.4088,1.4088,1.4088,1.4088,1.4088,1.4088,1.4088,1.4088,1.4088,1.4088,1.4088,1.4088,1.4021,1.3754,1.3447,1.3053,1.2438,1.2305,1.2305,1.2305,1.2305,1.2305,1.2305,1.2305,1.2305,1.2305,1.2305,1.2305,1.2305,1.2305,1.2305,1.2305,1.2305,1.2305,1.2305,1.2305,1.2305,1.2305,1.2305,0.0,1.2305,1.2305,1.1811,1.0726,1.0233,1.0002,1.0002,0.9252,0.8765,0.848,0.862,0.8703,0.8703,0.8145,0.7929,0.7929,0.7929,0.7929,0.7973,0.8488,0.9096,0.9666,0.9666,0.9666,0.9666,0.9666,0.9666,0.9666,0.7095,0.7095,0.7095,0.7095,0.7095,0.7095,0.7095,0.7095,0.7095,0.7095,0.7095,0.7095,0.7095,0.7095,0.7095,0.7095,0.7272,0.736,0.736,0.8321,0.9061,0.9405,1.1252,1.237,1.2589,1.3561,1.4088,1.4088,1.4088,1.4088,1.4088,1.4088,1.4088,1.4088,1.4088,1.4088,1.4088,1.4088,1.4088,1.4088,1.4088,1.4088,1.4088,1.4088,1.4088,1.4088,1.4088,1.4088,1.4088,1.4088,1.4088,1.4088,1.4088,1.4088,1.4088,1.4088,1.4088,1.4088,1.4088,1.4088,1.3948,1.3353,1.3213,1.3053,1.2438,1.2305,1.2305,1.2305,1.2305,1.2305,1.2305,1.2305,1.2305,1.2305,1.2305,1.2305,1.2305,1.2305,1.2305,1.2305,1.2305,1.2305,1.2305,1.2305,1.2305,1.2305,1.2305,1.2305,1.2305,1.2305,1.2305,1.2305,1.1465,1.0974,1.0901,1.0423,1.0264,1.0412,1.0562,1.0611,1.0567,0.9579,0.9148,0.9148,0.9148,0.9148,0.9235,1.0183,1.0697,1.0864,1.0864,1.0864,1.0864,1.0864,1.0864,1.0864,0.7095,0.7095,0.7095,0.7095,0.7095,0.7095,0.7095,0.7095,0.7095,0.7095,0.7095,0.7095,0.7095,0.7095,0.7095,0.7095,0.8013,0.8627,0.8627,0.8803,0.9753,1.1681,1.2114,1.2766,1.3779,1.3997,1.4088,1.4088,1.4088,1.4088,1.4088,1.4088,1.4088,1.4088,1.4088,1.4088,1.4088,1.4088,1.4088,1.4088,1.4088,1.4088,1.4088,1.4088,1.4088,1.4088,1.4088,1.4088,1.4088,1.4088,1.4088,1.4088,1.4088,1.4088,1.4088,1.4088,1.4088,1.4088,1.4088,1.4088,1.3948,1.3353,1.3213,1.3053,1.2438,1.2305,1.2305,1.2305,1.2305,1.2305,1.2305,1.2305,1.2305,1.2305,1.2305,1.2305,1.2305,1.2305,1.2305,1.2305,1.2305,1.2305,1.2305,1.2305,1.2305,1.2305,1.2305,1.2305,1.2305,1.2305,1.2305,1.2305,1.215,1.1847,1.1401,1.1531,1.126,1.056,1.0595,1.0611,1.0611,1.0438,1.0351,1.0351,1.0351,1.0351,1.0351,1.0524,1.1166,1.2029,1.2029,1.2029,1.2029,1.2029,1.2029,1.2029,0.7095,0.7095,0.7095,0.7095,0.7095,0.7095,0.7095,0.7095,0.7095,0.7095,0.7095,0.7095,0.7095,0.7665,0.8057,0.8057,0.9144,1.0096,1.0697,1.074,1.1209,1.2237,1.2942,1.3512,1.4088,1.4088,1.4088,1.4088,1.4088,1.4088,1.4088,1.4088,1.4088,1.4088,1.4088,1.4088,1.4088,1.4088,1.4088,1.4088,1.4088,1.4088,1.4088,1.4088,1.4088,1.4088,1.4088,1.4088,1.4088,1.4088,1.4088,1.4088,1.4088,1.4088,1.4088,1.4088,1.4088,1.4088,1.4088,1.4088,1.3981,1.3513,1.3327,1.3093,1.2683,1.2418,1.2305,1.2305,1.2305,1.2305,1.2305,1.2305,1.2305,1.2305,1.2305,1.2305,1.2305,1.2305,1.2305,1.2305,1.2305,1.2305,1.2305,1.2305,1.2305,1.2305,1.2305,1.2305,1.2305,1.2305,1.2378,1.2569,1.2583,1.2588,1.2641,1.2732,1.2683,1.2479,1.2479,1.2479,1.2473,1.1815,1.1509,1.1509,1.1509,1.1509,1.1558,1.2211,1.282,1.3288,1.3288,1.3288,1.3288,1.3288,1.3288,1.3288,0.7095,0.7095,0.7095,0.7095,0.7095,0.7095,0.7095,0.736,0.7533,0.7533,0.7749,0.7921,0.7921,0.8755,0.9279,0.9279,1.0351,1.1381,1.2242,1.2547,1.2723,1.2723,1.3603,1.4088,1.4088,1.4088,1.4088,1.4088,1.4088,1.4088,1.4088,1.4088,1.4088,1.4088,1.4088,1.4088,1.4088,1.4088,1.4088,1.4088,1.4088,1.4088,1.4088,1.4088,1.4088,1.4088,1.4088,1.4088,1.4088,1.4088,1.4088,1.4088,1.4088,1.4088,1.4088,1.4088,1.4088,1.4088,1.4088,1.4088,1.4015,1.3673,1.344,1.3213,1.2871,1.2603,1.2385,1.2318,1.2305,1.2305,1.2305,1.2305,1.2305,1.2305,1.2305,1.2305,1.2305,1.2305,1.2305,1.2305,1.2305,1.2305,1.2305,1.2305,1.2305,1.2305,1.2305,1.2331,1.2405,1.2405,1.2572,1.2985,1.2991,1.3173,1.36,1.3673,1.3861,1.4088,1.4088,1.4088,1.4088,1.316,1.2723,1.2723,1.2723,1.2723,1.2808,1.373,1.4088,1.4088,1.4088,1.4088,1.4088,1.4088,1.4088,1.4088,0.7095,0.7095,0.7095,0.7095,0.7095,0.7095,0.7095,0.8061,0.8759,0.8759,0.9705,1.0351,1.0351,1.0438,1.0481,1.0481,1.1509,1.22,1.2279,1.3336,1.3955,1.3955,1.4039,1.4088,1.4088,1.4088,1.4088,1.4088,1.4088,1.4088,1.4088,1.4088,1.4088,1.4088,1.4088,1.4088,1.4088,1.4088,1.4088,1.4088,1.4088,1.4088,1.4088,1.4088,1.4088,1.4088,1.4088,1.4088,1.4088,1.4088,1.4088,1.4088,1.4088,1.4088,1.4088,1.4088,1.4088,1.4088,1.4088,1.4088,1.4015,1.3673,1.3586,1.342,1.2918,1.2764,1.2677,1.2358,1.2305,1.2305,1.2305,1.2305,1.2305,1.2305,1.2305,1.2305,1.2305,1.2305,1.2305,1.2305,1.2305,1.2305,1.2305,1.2305,1.2305,1.2305,1.2305,1.2425,1.2737,1.275,1.3018,1.3513,1.354,1.356,1.36,1.3915,1.4068,1.4088,1.4088,1.4088,1.4088,1.3997,1.3955,1.3955,1.3955,1.3955,1.3955,1.4046,1.4088,1.4088,1.4088,1.4088,1.4088,1.4088,1.4088,1.4088,0.7228,0.7709,0.8233,0.8233,0.8233,0.8448,0.9183,0.9662,0.9966,0.9966,1.0308,1.0611,1.0611,1.1209,1.1638,1.1638,1.2723,1.3421,1.3421,1.3864,1.4088,1.4088,1.4088,1.4088,1.4088,1.4088,1.4088,1.4088,1.4088,1.4088,1.4088,1.4088,1.4088,1.4088,1.4088,1.4088,1.4088,1.4088,1.4088,1.4088,1.4088,1.4088,1.4088,1.4088,1.4088,1.4088,1.4088,1.4088,1.4088,1.4088,1.4088,1.4088,1.4088,1.4088,1.4088,1.4088,1.4088,1.4088,1.4088,1.4088,1.4062,1.3948,1.374,1.354,1.3353,1.316,1.2946,1.2677,1.2616,1.2556,1.2338,1.2305,1.2305,1.2305,1.2305,1.2305,1.2305,1.2305,1.2305,1.2305,1.2305,1.2305,1.2305,1.2305,1.2378,1.2603,1.2616,1.275,1.3019,1.3206,1.3407,1.3593,1.378,1.3915,1.3915,1.4035,1.4088,1.4088,1.4088,1.4088,1.4088,1.4088,1.4088,1.4088,1.4088,1.4088,1.4088,1.4088,1.4088,1.4088,1.4088,1.4088,1.4088,1.4088,1.4088,1.4088,0.7841,0.8623,0.9449,0.9449,0.9449,0.971,1.0481,1.0907,1.1123,1.1123,1.1472,1.1692,1.1692,1.2382,1.2851,1.2851,1.3603,1.4088,1.4088,1.4088,1.4088,1.4088,1.4088,1.4088,1.4088,1.4088,1.4088,1.4088,1.4088,1.4088,1.4088,1.4088,1.4088,1.4088,1.4088,1.4088,1.4088,1.4088,1.4088,1.4088,1.4088,1.4088,1.4088,1.4088,1.4088,1.4088,1.4088,1.4088,1.4088,1.4088,1.4088,1.4088,1.4088,1.4088,1.4088,1.4088,1.4088,1.4088,1.4088,1.4088,1.4088,1.4088,1.3935,1.372,1.3626,1.3447,1.326,1.2991,1.2931,1.2871,1.2625,1.2585,1.2585,1.2585,1.2585,1.2585,1.2585,1.2585,1.2585,1.2585,1.2585,1.2585,1.2585,1.2585,1.2672,1.2918,1.2931,1.3026,1.3327,1.358,1.374,1.374,1.3981,1.4088,1.4088,1.4088,1.4088,1.4088,1.4088,1.4088,1.4088,1.4088,1.4088,1.4088,1.4088,1.4088,1.4088,1.4088,1.4088,1.4088,1.4088,1.4088,1.4088,1.4088,1.4088,1.4088,0.8934,0.9836,1.0611,1.0611,1.0611,1.0611,1.0611,1.1595,1.2328,1.2328,1.3336,1.4088,1.4088,1.4088,1.4088,1.4088,1.4088,1.4088,1.4088,1.4088,1.4088,1.4088,1.4088,1.4088,1.4088,1.4088,1.4088,1.4088,1.4088,1.4088,1.4088,1.4088,1.4088,1.4088,1.4088,1.4088,1.4088,1.4088,1.4088,1.4088,1.4088,1.4088,1.4088,1.4088,1.4088,1.4088,1.4088,1.4088,1.4088,1.4088,1.4088,1.4088,1.4088,1.4088,1.4088,1.4088,1.4088,1.4088,1.4088,1.4088,1.4088,1.4088,1.4088,1.4008,1.3673,1.3606,1.3527,1.3273,1.3213,1.3213,1.3213,1.3213,1.3213,1.3213,1.3206,1.3206,1.3213,1.3213,1.3213,1.3213,1.3213,1.3213,1.3213,1.3213,1.3213,1.3213,1.3213,1.334,1.3586,1.3928,1.4088,1.4088,1.4088,1.4088,1.4088,1.4088,1.4088,1.4088,1.4088,1.4088,1.4088,1.4088,1.4088,1.4088,1.4088,1.4088,1.4088,1.4088,1.4088,1.4088,1.4088,1.4088,1.4088,1.4088,1.4088,1.4088,1.0096,1.0999,1.1809,1.1809,1.1809,1.2077,1.2912,1.3343,1.3555,1.3555,1.3864,1.4088,1.4088,1.4088,1.4088,1.4088,1.4088,1.4088,1.4088,1.4088,1.4088,1.4088,1.4088,1.4088,1.4088,1.4088,1.4088,1.4088,1.4088,1.4088,1.4088,1.4088,1.4088,1.4088,1.4088,1.4088,1.4088,1.4088,1.4088,1.4088,1.4088,1.4088,1.4088,1.4088,1.4088,1.4088,1.4088,1.4088,1.4088,1.4088,1.4088,1.4088,1.4088,1.4088,1.4088,1.4088,1.4088,1.4088,1.4088,1.4088,1.4088,1.4088,1.4088,1.4062,1.3975,1.3955,1.3868,1.3533,1.3473,1.3413,1.3247,1.3817,1.4077,1.3325,1.446,1.491,1.3397,1.3856,1.4045,1.3286,1.3213,1.3213,1.3213,1.3213,1.3605,1.4591,1.4848,1.4974,1.5068,1.4441,1.4088,1.4088,1.4088,1.4088,1.4088,1.4088,1.4088,1.4088,1.4088,1.4088,1.4088,1.4088,1.4088,1.4088,1.4088,1.4088,1.4088,1.4088,1.4088,1.4088,1.4088,1.4088,1.4088,1.4088,1.4088,1.4088,1.1252,1.2206,1.3027,1.3027,1.3027,1.3252,1.3997,1.4088,1.4088,1.4088,1.4088,1.4088,1.4088,1.4088,1.4088,1.4088,1.4088,1.4088,1.4088,1.4088,1.4088,1.4088,1.4088,1.4088,1.4088,1.4088,1.4088,1.4088,1.4088,1.4088,1.4088,1.4088,1.4088,1.4088,1.4088,1.4088,1.4088,1.4088,1.4088,1.4088,1.4088,1.4088,1.4088,1.4088,1.437,1.4734,1.4734,1.5019,1.5311,1.4901,1.4447,1.4088,1.4088,1.4412,1.4657,1.4208,1.4412,1.4657,1.4208,1.4412,1.4734,1.4734,1.4734,1.4734,1.4734,1.5061,1.5294,1.5097,1.5053,1.4995,1.4845,1.5351,1.5589,1.4928,1.589,1.6322,1.5001,1.5391,1.5542,1.4889,1.4816,1.4816,1.4816,1.4816,1.5163,1.6036,1.6238,1.6314,1.6314,1.5304,1.4734,1.4734,1.4328,1.4088,1.4088,1.4088,1.4088,1.4088,1.4088,1.4088,1.4088,1.4088,1.4088,1.4088,1.4088,1.4088,1.4088,1.4088,1.4088,1.4088,1.4088,1.4088,1.4088,1.4088,1.4088,1.4088,1.2413,1.3336,1.4088,1.4088,1.4088,1.4088,1.4088,1.4088,1.4088,1.4088,1.4088,1.4088,1.4088,1.4088,1.4088,1.4088,1.4088,1.4088,1.4088,1.4088,1.4088,1.4088,1.4088,1.4088,1.4088,1.4088,1.4088,1.4088,1.4088,1.4088,1.4088,1.4088,1.4088,1.4088,1.4088,1.4088,1.4088,1.4088,1.4088,1.4088,1.4088,1.4088,1.4088,1.4088,1.4776,1.5696,1.5696,1.6396,1.7139,1.6191,1.5179,1.4377,1.4377,1.5061,1.5662,1.4657,1.5103,1.5621,1.4657,1.5103,1.582,1.582,1.5902,1.5985,1.5861,1.6601,1.7302,1.7302,1.7302,1.7302,1.7302,1.7374,1.7415,1.7334,1.7464,1.7536,1.7342,1.7383,1.7423,1.7293,1.7302,1.7302,1.7302,1.7383,1.7464,1.7464,1.7464,1.7464,1.7464,1.6437,1.5779,1.5696,1.4734,1.4208,1.4088,1.4088,1.4088,1.4088,1.4088,1.4088,1.4088,1.4088,1.4088,1.4088,1.4088,1.4088,1.4088,1.4088,1.4088,1.4088,1.4088,1.4088,1.4088,1.4088,1.4088,1.4088,1.3343,1.3913,1.4088,1.4088,1.4088,1.4088,1.4088,1.4088,1.4088,1.4088,1.4088,1.4088,1.4088,1.4088,1.4088,1.4088,1.4088,1.4088,1.4088,1.4088,1.4088,1.4088,1.4088,1.4088,1.4088,1.4088,1.4088,1.4088,1.4088,1.4088,1.4088,1.4088,1.4088,1.4088,1.4088,1.4088,1.4088,1.4088,1.4088,1.4088,1.4088,1.4088,1.4088,1.4088,1.4776,1.5696,1.5696,1.6396,1.7261,1.7009,1.6813,1.6609,1.6609,1.6772,1.6927,1.669,1.6764,1.6887,1.669,1.6772,1.6968,1.6968,1.7617,1.806,1.7172,1.7131,1.7302,1.7302,1.7302,1.7302,1.7302,1.8029,1.835,1.7464,1.8749,1.9274,1.7536,1.8069,1.831,1.7423,1.7302,1.7302,1.7302,1.8109,1.863,1.863,1.863,1.863,1.863,1.7577,1.656,1.5745,1.5455,1.4936,1.413,1.4088,1.4088,1.4088,1.4088,1.4088,1.4088,1.4088,1.4088,1.4088,1.4088,1.4088,1.4088,1.4088,1.4088,1.4088,1.4088,1.4088,1.4088,1.4088,1.4088,1.4088,1.387,1.4088,1.4088,1.4088,1.4088,1.4088,1.4088,1.4088,1.4088,1.4088,1.4088,1.4088,1.4088,1.4088,1.4088,1.4088,1.4088,1.4088,1.4088,1.4088,1.4088,1.4088,1.4088,1.4088,1.4088,1.4088,1.4088,1.4088,1.4088,1.4088,1.4088,1.4088,1.4088,1.4088,1.4088,1.4088,1.4088,1.4088,1.4088,1.4088,1.4088,1.4088,1.4088,1.4088,1.5061,1.6478,1.6478,1.7172,1.8109,1.8109,1.7747,1.7302,1.7302,1.7658,1.7989,1.7455,1.7706,1.798,1.7464,1.7698,1.8109,1.8109,1.8957,1.9481,1.835,1.851,1.8868,1.8868,1.8868,1.8868,1.8868,1.9353,1.9559,1.8988,1.9835,2.0206,1.9027,1.9402,1.9559,1.8948,1.8868,1.8868,1.8868,1.9392,1.9766,1.9766,1.9766,1.9766,1.9766,1.8709,1.7859,1.7285,1.6764,1.6198,1.5636,1.5103,1.4852,1.4852,1.4328,1.4088,1.4088,1.4088,1.4088,1.4088,1.4088,1.4088,1.4088,1.4088,1.4088,1.4088,1.4088,1.4088,1.4088,1.4088,1.4088,1.4088,1.4046,1.4088,1.4088,1.4088,1.4088,1.4088,1.4088,1.4088,1.4088,1.4088,1.4088,1.4088,1.4088,1.4088,1.4088,1.4088,1.4088,1.4088,1.4088,1.4088,1.4088,1.4088,1.4088,1.4088,1.4088,1.4088,1.4088,1.4088,1.4088,1.4088,1.4088,1.4088,1.4088,1.4088,1.4088,1.4088,1.4088,1.4088,1.4088,1.4088,1.4088,1.4208,1.437,1.437,1.5711,1.7577,1.7577,1.831,1.9274,1.9274,1.863,1.7859,1.7859,1.851,1.9076,1.8149,1.855,1.9076,1.8109,1.855,1.9274,1.9274,1.9923,2.0362,1.9481,1.9962,2.0605,2.0605,2.0605,2.0605,2.0605,2.0605,2.0605,2.0605,2.0605,2.0605,2.0605,2.0605,2.0605,2.0605,2.0605,2.0605,2.0605,2.0605,2.0605,2.0605,2.0605,2.0605,2.0605,1.9766,1.9204,1.9006,1.8069,1.7504,1.7302,1.6437,1.5985,1.5944,1.4894,1.4292,1.4088,1.4088,1.4088,1.4088,1.4088,1.4088,1.4088,1.4088,1.4088,1.4088,1.4088,1.4088,1.4088,1.4088,1.4088,1.4088,1.3913,1.4088,1.4088,1.4088,1.4088,1.4088,1.4088,1.4088,1.4088,1.4088,1.4088,1.4088,1.4088,1.4088,1.4088,1.4088,1.4088,1.4088,1.4088,1.4088,1.4088,1.4088,1.4088,1.4088,1.4088,1.4088,1.4088,1.4088,1.4088,1.4088,1.4088,1.4088,1.4088,1.4088,1.4088,1.4088,1.4088,1.4088,1.4088,1.4088,1.4088,1.465,1.5496,1.5496,1.6838,1.8758,1.8758,1.9481,2.0362,2.0362,2.0284,2.0157,2.0157,2.0245,2.0362,2.0206,2.0245,2.0362,2.0206,2.0284,2.0362,2.0362,2.0479,2.0566,2.0401,2.0489,2.0605,2.0605,2.0605,2.0605,2.0605,2.0605,2.0605,2.0605,2.0605,2.0605,2.0605,2.0605,2.0605,2.0605,2.0605,2.0605,2.0605,2.0605,2.0605,2.0605,2.0605,2.0605,2.0605,2.044,1.9962,1.9045,1.8838,1.831,1.7302,1.7172,1.709,1.705,1.5992,1.5019,1.4088,1.4088,1.4088,1.4088,1.4088,1.4088,1.4088,1.4088,1.4088,1.4088,1.4088,1.4088,1.4088,1.4088,1.4088,1.4088,1.3997,1.4088,1.4088,1.4088,1.4222,1.4329,1.4329,1.4469,1.462,1.462,1.462,1.462,1.462,1.462,1.462,1.462,1.462,1.462,1.462,1.462,1.462,1.462,1.462,1.4502,1.4335,1.4329,1.4249,1.4088,1.4088,1.4088,1.4088,1.4088,1.4088,1.4088,1.4088,1.4088,1.4088,1.4088,1.4088,1.4088,1.4088,1.437,1.4817,1.4817,1.6157,1.823,1.9441,2.0206,2.0605,2.0605,2.0605,2.0605,2.0605,2.0605,2.0605,2.0605,2.0605,2.0605,2.0605,2.0605,2.0605,2.0605,2.0605,2.0605,2.0605,2.0605,2.0605,2.0605,2.0605,2.0605,2.0605,2.0605,2.0605,2.0605,2.0605,2.0605,2.0605,2.0605,2.0605,2.0605,2.0605,2.0605,2.0605,2.0605,2.0605,2.0605,2.0605,2.0605,2.0605,2.0605,2.0362,1.9923,1.9883,1.9638,1.9146,1.855,1.827,1.823,1.7131,1.6034,1.4977,1.437,1.4088,1.4088,1.4088,1.4088,1.4088,1.4088,1.4088,1.4088,1.4088,1.4454,1.497,1.497,1.5387,1.5794]}]]